Osage River (Missouri), Taberville (06918250)

StateMissouriLatestPoor (890 cfs)
RiverOsage RiverRatingObservedEstimated
Updated2021-01-24 8:45 (38 minutes ago)Flood - The river is flooding. Obstacles can be treacherous or deadly. The river should be avoided at this stage for casual trips and definitely for the inexperienced. Trips should be attempted only with protective gear and equipment.Flood(none)38403
Discharge890 cfs (median: 426 cfs)High - The river is high and potentially dangerous, especially for the young and / or inexperienced. Normal stream obstacles are sometimes difficult to navigate. Extended distances can be attempted, but canoe travel may not be advisable.High(none)7197
Height10.96 feetGood - Conditions are ideal for a canoe or kayak. Boats typically will drag on fewer than one-quarter of riffles, if at all, and portages are unnecessary or rare. Normal float lengths can be attempted without a problem.Good(none)4305
TrendSteady (rising over 24 hours)Low - River is low but can still be floated. Some riffles are okay but most come with significant dragging and might need a portage. Float lengths should be reduced to accommodate low flow, dragging, and portages.Low(none)1188
USGSExternal icon USGS Site (External icon Google Maps)Poor - River is too low to float comfortably. Most or all riffles will drag or must be portaged and some obstacles (such as slick shelf rock) cause undue problems. Avoid the river at this stage for casual paddling trips.Poor(none)50

Trending Data

Plot Image

Trips for Osage River (Missouri), Taberville (06918250)

DateStartEndDistanceConditionDischargeHeightFishingDetails

A total of 0 rows are displayed.

Condition Descriptions

Fishing Conditions

Fish Species

Notes

Classic Trip List

The classic River Trips application is still available for use. It is updated with the new system using a data retrofit. It is no longer maintained. The original River Trips application is no longer updated (as of 1 Dec 2016) but can be checked for errors or for the condition of the data before it was converted to the new system.

Gauge Data Table

ObservationHeightDischargeMaximum
Discharge
Minimum
Discharge
Mean
Discharge
P05P10P20P25P50
(Median)
P75P80P90P95
2021-01-24 08:45 10.96 890 8490 (2020) 50 (2012) 2690 50 68 157 426 5980 6870 8490
2021-01-24 07:45 10.96 890 8490 (2020) 50 (2012) 2690 50 68 157 426 5980 6870 8490
2021-01-24 06:45 10.94 877 8490 (2020) 50 (2012) 2690 50 68 157 426 5980 6870 8490
2021-01-24 05:45 10.96 890 8490 (2020) 50 (2012) 2690 50 68 157 426 5980 6870 8490
2021-01-24 04:45 10.92 865 8490 (2020) 50 (2012) 2690 50 68 157 426 5980 6870 8490
2021-01-24 03:45 10.89 848 8490 (2020) 50 (2012) 2690 50 68 157 426 5980 6870 8490
2021-01-24 02:45 10.89 848 8490 (2020) 50 (2012) 2690 50 68 157 426 5980 6870 8490
2021-01-24 01:45 10.88 842 8490 (2020) 50 (2012) 2690 50 68 157 426 5980 6870 8490
2021-01-24 00:45 10.84 818 8490 (2020) 50 (2012) 2690 50 68 157 426 5980 6870 8490
2021-01-23 23:45 10.86 830 10400 (2020) 50 (2012) 2810 50 55 173 399 5280 6130 10400
2021-01-23 22:45 10.86 830 10400 (2020) 50 (2012) 2810 50 55 173 399 5280 6130 10400
2021-01-23 21:45 10.84 818 10400 (2020) 50 (2012) 2810 50 55 173 399 5280 6130 10400
2021-01-23 20:45 10.84 818 10400 (2020) 50 (2012) 2810 50 55 173 399 5280 6130 10400
2021-01-23 19:45 10.83 813 10400 (2020) 50 (2012) 2810 50 55 173 399 5280 6130 10400
2021-01-23 18:45 10.84 818 10400 (2020) 50 (2012) 2810 50 55 173 399 5280 6130 10400
2021-01-23 17:45 10.83 813 10400 (2020) 50 (2012) 2810 50 55 173 399 5280 6130 10400
2021-01-23 16:45 10.86 830 10400 (2020) 50 (2012) 2810 50 55 173 399 5280 6130 10400
2021-01-23 15:45 10.87 836 10400 (2020) 50 (2012) 2810 50 55 173 399 5280 6130 10400
2021-01-23 14:45 10.89 848 10400 (2020) 50 (2012) 2810 50 55 173 399 5280 6130 10400
2021-01-23 13:45 10.89 848 10400 (2020) 50 (2012) 2810 50 55 173 399 5280 6130 10400
2021-01-23 12:45 10.88 842 10400 (2020) 50 (2012) 2810 50 55 173 399 5280 6130 10400
2021-01-23 11:45 10.85 824 10400 (2020) 50 (2012) 2810 50 55 173 399 5280 6130 10400
2021-01-23 10:45 10.84 818 10400 (2020) 50 (2012) 2810 50 55 173 399 5280 6130 10400
2021-01-23 09:45 10.82 807 10400 (2020) 50 (2012) 2810 50 55 173 399 5280 6130 10400
2021-01-23 08:45 10.85 824 10400 (2020) 50 (2012) 2810 50 55 173 399 5280 6130 10400
2021-01-23 07:45 10.93 871 10400 (2020) 50 (2012) 2810 50 55 173 399 5280 6130 10400
2021-01-23 06:45 10.99 908 10400 (2020) 50 (2012) 2810 50 55 173 399 5280 6130 10400
2021-01-23 05:45 11.04 939 10400 (2020) 50 (2012) 2810 50 55 173 399 5280 6130 10400
2021-01-23 04:45 11.01 920 10400 (2020) 50 (2012) 2810 50 55 173 399 5280 6130 10400
2021-01-23 03:45 10.95 883 10400 (2020) 50 (2012) 2810 50 55 173 399 5280 6130 10400
2021-01-23 02:45 10.88 842 10400 (2020) 50 (2012) 2810 50 55 173 399 5280 6130 10400
2021-01-23 01:45 10.84 818 10400 (2020) 50 (2012) 2810 50 55 173 399 5280 6130 10400
2021-01-23 00:45 10.88 842 10400 (2020) 50 (2012) 2810 50 55 173 399 5280 6130 10400
2021-01-22 23:45 10.97 896 14200 (2020) 50 (2013) 3500 50 126 223 510 6660 10100 14200
2021-01-22 22:45 11.08 965 14200 (2020) 50 (2013) 3500 50 126 223 510 6660 10100 14200
2021-01-22 21:45 11.16 1020 14200 (2020) 50 (2013) 3500 50 126 223 510 6660 10100 14200
2021-01-22 20:45 11.19 1040 14200 (2020) 50 (2013) 3500 50 126 223 510 6660 10100 14200
2021-01-22 19:45 11.15 1010 14200 (2020) 50 (2013) 3500 50 126 223 510 6660 10100 14200
2021-01-22 18:45 11.07 958 14200 (2020) 50 (2013) 3500 50 126 223 510 6660 10100 14200
2021-01-22 17:45 11.00 914 14200 (2020) 50 (2013) 3500 50 126 223 510 6660 10100 14200
2021-01-22 16:45 10.96 890 14200 (2020) 50 (2013) 3500 50 126 223 510 6660 10100 14200
2021-01-22 15:45 10.96 890 14200 (2020) 50 (2013) 3500 50 126 223 510 6660 10100 14200
2021-01-22 14:45 11.02 927 14200 (2020) 50 (2013) 3500 50 126 223 510 6660 10100 14200
2021-01-22 13:45 11.08 965 14200 (2020) 50 (2013) 3500 50 126 223 510 6660 10100 14200
2021-01-22 12:45 11.12 990 14200 (2020) 50 (2013) 3500 50 126 223 510 6660 10100 14200
2021-01-22 11:45 11.23 1060 14200 (2020) 50 (2013) 3500 50 126 223 510 6660 10100 14200
2021-01-22 10:45 11.25 1080 14200 (2020) 50 (2013) 3500 50 126 223 510 6660 10100 14200
2021-01-22 09:45 11.27 1090 14200 (2020) 50 (2013) 3500 50 126 223 510 6660 10100 14200
2021-01-22 08:45 11.32 1130 14200 (2020) 50 (2013) 3500 50 126 223 510 6660 10100 14200
2021-01-22 07:45 11.39 1180 14200 (2020) 50 (2013) 3500 50 126 223 510 6660 10100 14200
2021-01-22 06:45 11.45 1220 14200 (2020) 50 (2013) 3500 50 126 223 510 6660 10100 14200
2021-01-22 05:45 11.46 1230 14200 (2020) 50 (2013) 3500 50 126 223 510 6660 10100 14200
2021-01-22 04:45 11.42 1200 14200 (2020) 50 (2013) 3500 50 126 223 510 6660 10100 14200
2021-01-22 03:45 11.33 1130 14200 (2020) 50 (2013) 3500 50 126 223 510 6660 10100 14200
2021-01-22 02:45 11.24 1070 14200 (2020) 50 (2013) 3500 50 126 223 510 6660 10100 14200
2021-01-22 01:45 11.20 1040 14200 (2020) 50 (2013) 3500 50 126 223 510 6660 10100 14200
2021-01-22 00:45 11.22 1060 14200 (2020) 50 (2013) 3500 50 126 223 510 6660 10100 14200
2021-01-21 23:45 11.29 1110 16700 (2020) 50 (2013) 4280 50 128 221 578 8910 14500 16700
2021-01-21 22:45 11.41 1190 16700 (2020) 50 (2013) 4280 50 128 221 578 8910 14500 16700
2021-01-21 21:45 11.49 1250 16700 (2020) 50 (2013) 4280 50 128 221 578 8910 14500 16700
2021-01-21 20:45 11.53 1280 16700 (2020) 50 (2013) 4280 50 128 221 578 8910 14500 16700
2021-01-21 19:45 11.54 1290 16700 (2020) 50 (2013) 4280 50 128 221 578 8910 14500 16700
2021-01-21 18:45 11.49 1250 16700 (2020) 50 (2013) 4280 50 128 221 578 8910 14500 16700
2021-01-21 17:45 11.39 1180 16700 (2020) 50 (2013) 4280 50 128 221 578 8910 14500 16700
2021-01-21 16:45 11.30 1110 16700 (2020) 50 (2013) 4280 50 128 221 578 8910 14500 16700
2021-01-21 15:45 11.24 1070 16700 (2020) 50 (2013) 4280 50 128 221 578 8910 14500 16700
2021-01-21 14:45 11.26 1080 16700 (2020) 50 (2013) 4280 50 128 221 578 8910 14500 16700
2021-01-21 13:45 11.33 1130 16700 (2020) 50 (2013) 4280 50 128 221 578 8910 14500 16700
2021-01-21 12:45 11.41 1190 16700 (2020) 50 (2013) 4280 50 128 221 578 8910 14500 16700
2021-01-21 11:45 11.50 1260 16700 (2020) 50 (2013) 4280 50 128 221 578 8910 14500 16700
2021-01-21 10:45 11.58 1320 16700 (2020) 50 (2013) 4280 50 128 221 578 8910 14500 16700
2021-01-21 09:45 11.63 1360 16700 (2020) 50 (2013) 4280 50 128 221 578 8910 14500 16700
2021-01-21 08:45 11.66 1380 16700 (2020) 50 (2013) 4280 50 128 221 578 8910 14500 16700
2021-01-21 07:45 11.70 1420 16700 (2020) 50 (2013) 4280 50 128 221 578 8910 14500 16700
2021-01-21 06:45 11.73 1440 16700 (2020) 50 (2013) 4280 50 128 221 578 8910 14500 16700
2021-01-21 05:45 11.73 1440 16700 (2020) 50 (2013) 4280 50 128 221 578 8910 14500 16700
2021-01-21 04:45 11.70 1420 16700 (2020) 50 (2013) 4280 50 128 221 578 8910 14500 16700
2021-01-21 03:45 11.62 1350 16700 (2020) 50 (2013) 4280 50 128 221 578 8910 14500 16700
2021-01-21 02:45 11.54 1290 16700 (2020) 50 (2013) 4280 50 128 221 578 8910 14500 16700
2021-01-21 01:45 11.48 1240 16700 (2020) 50 (2013) 4280 50 128 221 578 8910 14500 16700
2021-01-21 00:45 11.51 1270 16700 (2020) 50 (2013) 4280 50 128 221 578 8910 14500 16700
2021-01-20 23:45 11.59 1330 17300 (2020) 50 (2013) 4400 50 181 266 579 8760 14100 17300
2021-01-20 22:45 11.67 1390 17300 (2020) 50 (2013) 4400 50 181 266 579 8760 14100 17300
2021-01-20 21:45 11.71 1420 17300 (2020) 50 (2013) 4400 50 181 266 579 8760 14100 17300
2021-01-20 20:45 11.66 1380 17300 (2020) 50 (2013) 4400 50 181 266 579 8760 14100 17300
2021-01-20 19:45 11.64 1370 17300 (2020) 50 (2013) 4400 50 181 266 579 8760 14100 17300
2021-01-20 18:45 11.59 1330 17300 (2020) 50 (2013) 4400 50 181 266 579 8760 14100 17300
2021-01-20 17:45 11.58 1320 17300 (2020) 50 (2013) 4400 50 181 266 579 8760 14100 17300
2021-01-20 16:45 11.48 1240 17300 (2020) 50 (2013) 4400 50 181 266 579 8760 14100 17300
2021-01-20 15:45 11.51 1270 17300 (2020) 50 (2013) 4400 50 181 266 579 8760 14100 17300
2021-01-20 14:45 11.46 1230 17300 (2020) 50 (2013) 4400 50 181 266 579 8760 14100 17300
2021-01-20 13:45 11.54 1290 17300 (2020) 50 (2013) 4400 50 181 266 579 8760 14100 17300
2021-01-20 12:45 11.64 1370 17300 (2020) 50 (2013) 4400 50 181 266 579 8760 14100 17300
2021-01-20 11:45 11.72 1430 17300 (2020) 50 (2013) 4400 50 181 266 579 8760 14100 17300
2021-01-20 10:45 11.82 1520 17300 (2020) 50 (2013) 4400 50 181 266 579 8760 14100 17300
2021-01-20 09:45 11.91 1590 17300 (2020) 50 (2013) 4400 50 181 266 579 8760 14100 17300
2021-01-20 08:45 11.94 1620 17300 (2020) 50 (2013) 4400 50 181 266 579 8760 14100 17300
2021-01-20 07:45 11.97 1650 17300 (2020) 50 (2013) 4400 50 181 266 579 8760 14100 17300
2021-01-20 06:45 11.97 1650 17300 (2020) 50 (2013) 4400 50 181 266 579 8760 14100 17300
2021-01-20 05:45 11.93 1610 17300 (2020) 50 (2013) 4400 50 181 266 579 8760 14100 17300
2021-01-20 04:45 11.87 1560 17300 (2020) 50 (2013) 4400 50 181 266 579 8760 14100 17300
2021-01-20 03:45 11.81 1510 17300 (2020) 50 (2013) 4400 50 181 266 579 8760 14100 17300
2021-01-20 02:45 11.77 1470 17300 (2020) 50 (2013) 4400 50 181 266 579 8760 14100 17300
2021-01-20 01:45 11.78 1480 17300 (2020) 50 (2013) 4400 50 181 266 579 8760 14100 17300
2021-01-20 00:45 11.80 1500 17300 (2020) 50 (2013) 4400 50 181 266 579 8760 14100 17300
2021-01-19 23:45 11.85 1540 16900 (2020) 50 (2013) 4270 50 228 322 610 7980 12100 16900
2021-01-19 22:45 11.89 1580 16900 (2020) 50 (2013) 4270 50 228 322 610 7980 12100 16900
2021-01-19 21:45 11.95 1630 16900 (2020) 50 (2013) 4270 50 228 322 610 7980 12100 16900
2021-01-19 20:45 12.02 1690 16900 (2020) 50 (2013) 4270 50 228 322 610 7980 12100 16900
2021-01-19 19:45 12.08 1740 16900 (2020) 50 (2013) 4270 50 228 322 610 7980 12100 16900
2021-01-19 18:45 12.10 1750 16900 (2020) 50 (2013) 4270 50 228 322 610 7980 12100 16900
2021-01-19 17:45 12.09 1750 16900 (2020) 50 (2013) 4270 50 228 322 610 7980 12100 16900
2021-01-19 16:45 12.06 1720 16900 (2020) 50 (2013) 4270 50 228 322 610 7980 12100 16900
2021-01-19 15:45 12.00 1670 16900 (2020) 50 (2013) 4270 50 228 322 610 7980 12100 16900
2021-01-19 14:45 11.96 1640 16900 (2020) 50 (2013) 4270 50 228 322 610 7980 12100 16900
2021-01-19 13:45 11.93 1610 16900 (2020) 50 (2013) 4270 50 228 322 610 7980 12100 16900
2021-01-19 12:45 11.96 1640 16900 (2020) 50 (2013) 4270 50 228 322 610 7980 12100 16900
2021-01-19 11:45 12.00 1670 16900 (2020) 50 (2013) 4270 50 228 322 610 7980 12100 16900
2021-01-19 10:45 12.05 1710 16900 (2020) 50 (2013) 4270 50 228 322 610 7980 12100 16900
2021-01-19 09:45 12.07 1730 16900 (2020) 50 (2013) 4270 50 228 322 610 7980 12100 16900
2021-01-19 08:45 12.09 1750 16900 (2020) 50 (2013) 4270 50 228 322 610 7980 12100 16900
2021-01-19 07:45 12.09 1750 16900 (2020) 50 (2013) 4270 50 228 322 610 7980 12100 16900
2021-01-19 06:45 12.09 1750 16900 (2020) 50 (2013) 4270 50 228 322 610 7980 12100 16900
2021-01-19 05:45 12.09 1750 16900 (2020) 50 (2013) 4270 50 228 322 610 7980 12100 16900
2021-01-19 04:45 12.06 1720 16900 (2020) 50 (2013) 4270 50 228 322 610 7980 12100 16900
2021-01-19 03:45 12.08 1740 16900 (2020) 50 (2013) 4270 50 228 322 610 7980 12100 16900
2021-01-19 02:45 12.09 1750 16900 (2020) 50 (2013) 4270 50 228 322 610 7980 12100 16900
2021-01-19 01:45 12.09 1750 16900 (2020) 50 (2013) 4270 50 228 322 610 7980 12100 16900
2021-01-19 00:45 12.09 1750 16900 (2020) 50 (2013) 4270 50 228 322 610 7980 12100 16900
2021-01-18 23:45 12.07 1730 16400 (2020) 50 (2013) 4090 50 149 317 787 7300 10400 16400
2021-01-18 22:45 12.06 1720 16400 (2020) 50 (2013) 4090 50 149 317 787 7300 10400 16400
2021-01-18 21:45 12.06 1720 16400 (2020) 50 (2013) 4090 50 149 317 787 7300 10400 16400
2021-01-18 20:45 12.08 1740 16400 (2020) 50 (2013) 4090 50 149 317 787 7300 10400 16400
2021-01-18 19:45 12.11 1760 16400 (2020) 50 (2013) 4090 50 149 317 787 7300 10400 16400
2021-01-18 18:45 12.11 1760 16400 (2020) 50 (2013) 4090 50 149 317 787 7300 10400 16400
2021-01-18 17:45 12.06 1720 16400 (2020) 50 (2013) 4090 50 149 317 787 7300 10400 16400
2021-01-18 16:45 12.01 1680 16400 (2020) 50 (2013) 4090 50 149 317 787 7300 10400 16400
2021-01-18 15:45 11.92 1600 16400 (2020) 50 (2013) 4090 50 149 317 787 7300 10400 16400
2021-01-18 14:45 11.94 1620 16400 (2020) 50 (2013) 4090 50 149 317 787 7300 10400 16400
2021-01-18 13:45 11.97 1650 16400 (2020) 50 (2013) 4090 50 149 317 787 7300 10400 16400
2021-01-18 12:45 11.98 1660 16400 (2020) 50 (2013) 4090 50 149 317 787 7300 10400 16400
2021-01-18 11:45 12.11 1760 16400 (2020) 50 (2013) 4090 50 149 317 787 7300 10400 16400
2021-01-18 10:45 12.12 1770 16400 (2020) 50 (2013) 4090 50 149 317 787 7300 10400 16400
2021-01-18 09:45 12.12 1770 16400 (2020) 50 (2013) 4090 50 149 317 787 7300 10400 16400
2021-01-18 08:45 12.11 1760 16400 (2020) 50 (2013) 4090 50 149 317 787 7300 10400 16400
2021-01-18 07:45 12.08 1740 16400 (2020) 50 (2013) 4090 50 149 317 787 7300 10400 16400
2021-01-18 06:45 12.05 1710 16400 (2020) 50 (2013) 4090 50 149 317 787 7300 10400 16400
2021-01-18 05:45 12.03 1700 16400 (2020) 50 (2013) 4090 50 149 317 787 7300 10400 16400
2021-01-18 04:45 12.01 1680 16400 (2020) 50 (2013) 4090 50 149 317 787 7300 10400 16400
2021-01-18 03:45 12.02 1690 16400 (2020) 50 (2013) 4090 50 149 317 787 7300 10400 16400
2021-01-18 02:45 12.03 1700 16400 (2020) 50 (2013) 4090 50 149 317 787 7300 10400 16400
2021-01-18 01:45 12.06 1720 16400 (2020) 50 (2013) 4090 50 149 317 787 7300 10400 16400
2021-01-18 00:45 12.09 1750 16400 (2020) 50 (2013) 4090 50 149 317 787 7300 10400 16400
2021-01-17 23:45 12.11 1760 18200 (2020) 76 (2012) 4070 76 108 403 832 6990 9360 18200
2021-01-17 22:45 12.14 1790 18200 (2020) 76 (2012) 4070 76 108 403 832 6990 9360 18200
2021-01-17 21:45 12.13 1780 18200 (2020) 76 (2012) 4070 76 108 403 832 6990 9360 18200
2021-01-17 20:45 12.12 1770 18200 (2020) 76 (2012) 4070 76 108 403 832 6990 9360 18200
2021-01-17 19:45 12.09 1750 18200 (2020) 76 (2012) 4070 76 108 403 832 6990 9360 18200
2021-01-17 18:45 12.04 1710 18200 (2020) 76 (2012) 4070 76 108 403 832 6990 9360 18200
2021-01-17 17:45 11.99 1660 18200 (2020) 76 (2012) 4070 76 108 403 832 6990 9360 18200
2021-01-17 16:45 11.92 1600 18200 (2020) 76 (2012) 4070 76 108 403 832 6990 9360 18200
2021-01-17 15:45 11.88 1570 18200 (2020) 76 (2012) 4070 76 108 403 832 6990 9360 18200
2021-01-17 14:45 11.89 1580 18200 (2020) 76 (2012) 4070 76 108 403 832 6990 9360 18200
2021-01-17 13:45 11.90 1580 18200 (2020) 76 (2012) 4070 76 108 403 832 6990 9360 18200
2021-01-17 12:45 11.94 1620 18200 (2020) 76 (2012) 4070 76 108 403 832 6990 9360 18200
2021-01-17 11:45 11.98 1660 18200 (2020) 76 (2012) 4070 76 108 403 832 6990 9360 18200
2021-01-17 10:45 12.02 1690 18200 (2020) 76 (2012) 4070 76 108 403 832 6990 9360 18200
2021-01-17 09:45 12.09 1750 18200 (2020) 76 (2012) 4070 76 108 403 832 6990 9360 18200
2021-01-17 08:45 12.09 1750 18200 (2020) 76 (2012) 4070 76 108 403 832 6990 9360 18200
2021-01-17 07:45 12.06 1720 18200 (2020) 76 (2012) 4070 76 108 403 832 6990 9360 18200
2021-01-17 06:45 12.01 1680 18200 (2020) 76 (2012) 4070 76 108 403 832 6990 9360 18200
2021-01-17 05:45 11.95 1630 18200 (2020) 76 (2012) 4070 76 108 403 832 6990 9360 18200
2021-01-17 04:45 11.92 1600 18200 (2020) 76 (2012) 4070 76 108 403 832 6990 9360 18200
2021-01-17 03:45 11.93 1610 18200 (2020) 76 (2012) 4070 76 108 403 832 6990 9360 18200
2021-01-17 02:45 11.92 1600 18200 (2020) 76 (2012) 4070 76 108 403 832 6990 9360 18200
2021-01-17 01:45 11.95 1630 18200 (2020) 76 (2012) 4070 76 108 403 832 6990 9360 18200
2021-01-17 00:45 11.96 1640 18200 (2020) 76 (2012) 4070 76 108 403 832 6990 9360 18200
2021-01-16 22:45 11.99 1660 19600 (2020) 52 (2013) 4310 52 68 305 877 7770 10400 19600
2021-01-16 21:45 12.01 1680 19600 (2020) 52 (2013) 4310 52 68 305 877 7770 10400 19600
2021-01-16 20:45 12.03 1700 19600 (2020) 52 (2013) 4310 52 68 305 877 7770 10400 19600
2021-01-16 19:45 12.02 1690 19600 (2020) 52 (2013) 4310 52 68 305 877 7770 10400 19600
2021-01-16 18:45 11.99 1660 19600 (2020) 52 (2013) 4310 52 68 305 877 7770 10400 19600
2021-01-16 17:45 11.96 1640 19600 (2020) 52 (2013) 4310 52 68 305 877 7770 10400 19600
2021-01-16 16:45 11.89 1580 19600 (2020) 52 (2013) 4310 52 68 305 877 7770 10400 19600
2021-01-16 15:45 11.85 1540 19600 (2020) 52 (2013) 4310 52 68 305 877 7770 10400 19600
2021-01-16 14:45 11.87 1560 19600 (2020) 52 (2013) 4310 52 68 305 877 7770 10400 19600
2021-01-16 13:45 11.88 1570 19600 (2020) 52 (2013) 4310 52 68 305 877 7770 10400 19600
2021-01-16 12:45 11.89 1580 19600 (2020) 52 (2013) 4310 52 68 305 877 7770 10400 19600
2021-01-16 11:45 11.90 1580 19600 (2020) 52 (2013) 4310 52 68 305 877 7770 10400 19600
2021-01-16 10:45 11.89 1580 19600 (2020) 52 (2013) 4310 52 68 305 877 7770 10400 19600
2021-01-16 09:45 11.89 1580 19600 (2020) 52 (2013) 4310 52 68 305 877 7770 10400 19600
2021-01-16 08:45 11.94 1620 19600 (2020) 52 (2013) 4310 52 68 305 877 7770 10400 19600
2021-01-16 07:45 11.95 1630 19600 (2020) 52 (2013) 4310 52 68 305 877 7770 10400 19600
2021-01-16 06:45 11.90 1580 19600 (2020) 52 (2013) 4310 52 68 305 877 7770 10400 19600
2021-01-16 05:45 11.87 1560 19600 (2020) 52 (2013) 4310 52 68 305 877 7770 10400 19600
2021-01-16 04:45 11.85 1540 19600 (2020) 52 (2013) 4310 52 68 305 877 7770 10400 19600
2021-01-16 03:45 11.84 1530 19600 (2020) 52 (2013) 4310 52 68 305 877 7770 10400 19600
2021-01-16 02:45 11.83 1520 19600 (2020) 52 (2013) 4310 52 68 305 877 7770 10400 19600
2021-01-16 01:45 11.83 1520 19600 (2020) 52 (2013) 4310 52 68 305 877 7770 10400 19600
2021-01-16 00:45 11.85 1540 19600 (2020) 52 (2013) 4310 52 68 305 877 7770 10400 19600
2021-01-15 23:45 11.87 1560 20400 (2020) 50 (2013) 4650 50 98 362 858 9000 12200 20400
2021-01-15 22:45 11.89 1580 20400 (2020) 50 (2013) 4650 50 98 362 858 9000 12200 20400
2021-01-15 21:45 11.89 1580 20400 (2020) 50 (2013) 4650 50 98 362 858 9000 12200 20400
2021-01-15 20:45 11.88 1570 20400 (2020) 50 (2013) 4650 50 98 362 858 9000 12200 20400
2021-01-15 19:45 11.87 1560 20400 (2020) 50 (2013) 4650 50 98 362 858 9000 12200 20400
2021-01-15 18:45 11.83 1520 20400 (2020) 50 (2013) 4650 50 98 362 858 9000 12200 20400
2021-01-15 17:45 11.76 1470 20400 (2020) 50 (2013) 4650 50 98 362 858 9000 12200 20400
2021-01-15 16:45 11.71 1420 20400 (2020) 50 (2013) 4650 50 98 362 858 9000 12200 20400
2021-01-15 15:45 11.65 1380 20400 (2020) 50 (2013) 4650 50 98 362 858 9000 12200 20400
2021-01-15 14:45 11.63 1360 20400 (2020) 50 (2013) 4650 50 98 362 858 9000 12200 20400
2021-01-15 13:45 11.62 1350 20400 (2020) 50 (2013) 4650 50 98 362 858 9000 12200 20400
2021-01-15 12:45 11.64 1370 20400 (2020) 50 (2013) 4650 50 98 362 858 9000 12200 20400
2021-01-15 11:45 11.70 1420 20400 (2020) 50 (2013) 4650 50 98 362 858 9000 12200 20400
2021-01-15 10:45 11.72 1430 20400 (2020) 50 (2013) 4650 50 98 362 858 9000 12200 20400
2021-01-15 09:45 11.73 1440 20400 (2020) 50 (2013) 4650 50 98 362 858 9000 12200 20400
2021-01-15 08:45 11.75 1460 20400 (2020) 50 (2013) 4650 50 98 362 858 9000 12200 20400
2021-01-15 07:45 11.79 1490 20400 (2020) 50 (2013) 4650 50 98 362 858 9000 12200 20400
2021-01-15 06:45 11.77 1470 20400 (2020) 50 (2013) 4650 50 98 362 858 9000 12200 20400
2021-01-15 05:45 11.71 1420 20400 (2020) 50 (2013) 4650 50 98 362 858 9000 12200 20400
2021-01-15 04:45 11.68 1400 20400 (2020) 50 (2013) 4650 50 98 362 858 9000 12200 20400
2021-01-15 03:45 11.67 1390 20400 (2020) 50 (2013) 4650 50 98 362 858 9000 12200 20400
2021-01-15 02:45 11.65 1380 20400 (2020) 50 (2013) 4650 50 98 362 858 9000 12200 20400
2021-01-15 01:45 11.69 1410 20400 (2020) 50 (2013) 4650 50 98 362 858 9000 12200 20400
2021-01-15 00:45 11.74 1450 20400 (2020) 50 (2013) 4650 50 98 362 858 9000 12200 20400
2021-01-14 23:45 11.75 1460 20700 (2020) 50 (2013) 4740 50 61 305 802 9260 11600 20700
2021-01-14 22:45 11.76 1470 20700 (2020) 50 (2013) 4740 50 61 305 802 9260 11600 20700
2021-01-14 21:45 11.78 1480 20700 (2020) 50 (2013) 4740 50 61 305 802 9260 11600 20700
2021-01-14 20:45 11.80 1500 20700 (2020) 50 (2013) 4740 50 61 305 802 9260 11600 20700
2021-01-14 19:45 11.81 1510 20700 (2020) 50 (2013) 4740 50 61 305 802 9260 11600 20700
2021-01-14 18:45 11.81 1510 20700 (2020) 50 (2013) 4740 50 61 305 802 9260 11600 20700
2021-01-14 17:45 11.82 1520 20700 (2020) 50 (2013) 4740 50 61 305 802 9260 11600 20700
2021-01-14 16:45 11.82 1520 20700 (2020) 50 (2013) 4740 50 61 305 802 9260 11600 20700
2021-01-14 15:45 11.77 1470 20700 (2020) 50 (2013) 4740 50 61 305 802 9260 11600 20700
2021-01-14 14:45 11.75 1460 20700 (2020) 50 (2013) 4740 50 61 305 802 9260 11600 20700
2021-01-14 13:45 11.73 1440 20700 (2020) 50 (2013) 4740 50 61 305 802 9260 11600 20700
2021-01-14 12:45 11.69 1410 20700 (2020) 50 (2013) 4740 50 61 305 802 9260 11600 20700
2021-01-14 11:45 11.63 1360 20700 (2020) 50 (2013) 4740 50 61 305 802 9260 11600 20700
2021-01-14 10:45 11.59 1330 20700 (2020) 50 (2013) 4740 50 61 305 802 9260 11600 20700
2021-01-14 09:45 11.61 1340 20700 (2020) 50 (2013) 4740 50 61 305 802 9260 11600 20700
2021-01-14 08:45 11.62 1350 20700 (2020) 50 (2013) 4740 50 61 305 802 9260 11600 20700
2021-01-14 07:45 11.66 1380 20700 (2020) 50 (2013) 4740 50 61 305 802 9260 11600 20700
2021-01-14 06:45 11.69 1410 20700 (2020) 50 (2013) 4740 50 61 305 802 9260 11600 20700
2021-01-14 05:45 11.65 1380 20700 (2020) 50 (2013) 4740 50 61 305 802 9260 11600 20700
2021-01-14 04:45 11.65 1380 20700 (2020) 50 (2013) 4740 50 61 305 802 9260 11600 20700
2021-01-14 03:45 11.65 1380 20700 (2020) 50 (2013) 4740 50 61 305 802 9260 11600 20700
2021-01-14 02:45 11.67 1390 20700 (2020) 50 (2013) 4740 50 61 305 802 9260 11600 20700
2021-01-14 01:45 11.66 1380 20700 (2020) 50 (2013) 4740 50 61 305 802 9260 11600 20700
2021-01-14 00:45 11.70 1420 20700 (2020) 50 (2013) 4740 50 61 305 802 9260 11600 20700
2021-01-13 23:45 11.69 1410 19500 (2020) 50 (2013) 4310 50 115 315 784 8050 8740 19500
2021-01-13 22:45 11.70 1420 19500 (2020) 50 (2013) 4310 50 115 315 784 8050 8740 19500
2021-01-13 21:45 11.68 1400 19500 (2020) 50 (2013) 4310 50 115 315 784 8050 8740 19500
2021-01-13 20:45 11.67 1390 19500 (2020) 50 (2013) 4310 50 115 315 784 8050 8740 19500
2021-01-13 19:45 11.65 1380 19500 (2020) 50 (2013) 4310 50 115 315 784 8050 8740 19500
2021-01-13 18:45 11.63 1360 19500 (2020) 50 (2013) 4310 50 115 315 784 8050 8740 19500
2021-01-13 17:45 11.63 1360 19500 (2020) 50 (2013) 4310 50 115 315 784 8050 8740 19500
2021-01-13 16:45 11.61 1340 19500 (2020) 50 (2013) 4310 50 115 315 784 8050 8740 19500
2021-01-13 15:45 11.56 1310 19500 (2020) 50 (2013) 4310 50 115 315 784 8050 8740 19500
2021-01-13 14:45 11.57 1310 19500 (2020) 50 (2013) 4310 50 115 315 784 8050 8740 19500
2021-01-13 13:45 11.55 1300 19500 (2020) 50 (2013) 4310 50 115 315 784 8050 8740 19500
2021-01-13 12:45 11.59 1330 19500 (2020) 50 (2013) 4310 50 115 315 784 8050 8740 19500
2021-01-13 11:45 11.62 1350 19500 (2020) 50 (2013) 4310 50 115 315 784 8050 8740 19500
2021-01-13 10:45 11.62 1350 19500 (2020) 50 (2013) 4310 50 115 315 784 8050 8740 19500
2021-01-13 09:45 11.64 1370 19500 (2020) 50 (2013) 4310 50 115 315 784 8050 8740 19500
2021-01-13 08:45 11.64 1370 19500 (2020) 50 (2013) 4310 50 115 315 784 8050 8740 19500
2021-01-13 07:45 11.65 1380 19500 (2020) 50 (2013) 4310 50 115 315 784 8050 8740 19500
2021-01-13 06:45 11.64 1370 19500 (2020) 50 (2013) 4310 50 115 315 784 8050 8740 19500
2021-01-13 05:45 11.58 1320 19500 (2020) 50 (2013) 4310 50 115 315 784 8050 8740 19500
2021-01-13 04:45 11.54 1290 19500 (2020) 50 (2013) 4310 50 115 315 784 8050 8740 19500
2021-01-13 03:45 11.59 1330 19500 (2020) 50 (2013) 4310 50 115 315 784 8050 8740 19500
2021-01-13 02:45 11.59 1330 19500 (2020) 50 (2013) 4310 50 115 315 784 8050 8740 19500
2021-01-13 01:45 11.58 1320 19500 (2020) 50 (2013) 4310 50 115 315 784 8050 8740 19500
2021-01-13 00:45 11.59 1330 19500 (2020) 50 (2013) 4310 50 115 315 784 8050 8740 19500
2021-01-12 23:45 11.59 1330 16800 (2020) 50 (2013) 4020 50 99 245 708 8400 12300 16800
2021-01-12 22:45 11.61 1340 16800 (2020) 50 (2013) 4020 50 99 245 708 8400 12300 16800
2021-01-12 21:45 11.63 1360 16800 (2020) 50 (2013) 4020 50 99 245 708 8400 12300 16800
2021-01-12 20:45 11.64 1370 16800 (2020) 50 (2013) 4020 50 99 245 708 8400 12300 16800
2021-01-12 19:45 11.63 1360 16800 (2020) 50 (2013) 4020 50 99 245 708 8400 12300 16800
2021-01-12 18:45 11.60 1340 16800 (2020) 50 (2013) 4020 50 99 245 708 8400 12300 16800
2021-01-12 17:45 11.54 1290 16800 (2020) 50 (2013) 4020 50 99 245 708 8400 12300 16800
2021-01-12 16:45 11.49 1250 16800 (2020) 50 (2013) 4020 50 99 245 708 8400 12300 16800
2021-01-12 15:45 11.42 1200 16800 (2020) 50 (2013) 4020 50 99 245 708 8400 12300 16800
2021-01-12 14:45 11.51 1270 16800 (2020) 50 (2013) 4020 50 99 245 708 8400 12300 16800
2021-01-12 13:45 11.56 1310 16800 (2020) 50 (2013) 4020 50 99 245 708 8400 12300 16800
2021-01-12 12:45 11.64 1370 16800 (2020) 50 (2013) 4020 50 99 245 708 8400 12300 16800
2021-01-12 11:45 11.69 1410 16800 (2020) 50 (2013) 4020 50 99 245 708 8400 12300 16800
2021-01-12 10:45 11.77 1470 16800 (2020) 50 (2013) 4020 50 99 245 708 8400 12300 16800
2021-01-12 09:45 11.79 1490 16800 (2020) 50 (2013) 4020 50 99 245 708 8400 12300 16800
2021-01-12 08:45 11.80 1500 16800 (2020) 50 (2013) 4020 50 99 245 708 8400 12300 16800
2021-01-12 07:45 11.82 1520 16800 (2020) 50 (2013) 4020 50 99 245 708 8400 12300 16800
2021-01-12 06:45 11.83 1520 16800 (2020) 50 (2013) 4020 50 99 245 708 8400 12300 16800
2021-01-12 05:45 11.84 1530 16800 (2020) 50 (2013) 4020 50 99 245 708 8400 12300 16800
2021-01-12 04:45 11.84 1530 16800 (2020) 50 (2013) 4020 50 99 245 708 8400 12300 16800
2021-01-12 03:45 11.83 1520 16800 (2020) 50 (2013) 4020 50 99 245 708 8400 12300 16800
2021-01-12 02:45 11.81 1510 16800 (2020) 50 (2013) 4020 50 99 245 708 8400 12300 16800
2021-01-12 01:45 11.80 1500 16800 (2020) 50 (2013) 4020 50 99 245 708 8400 12300 16800
2021-01-12 00:45 11.80 1500 16800 (2020) 50 (2013) 4020 50 99 245 708 8400 12300 16800
2021-01-11 23:45 11.82 1520 15100 (2016) 50 (2013) 3820 50 90 139 628 8470 12900 15100
2021-01-11 22:45 11.81 1510 15100 (2016) 50 (2013) 3820 50 90 139 628 8470 12900 15100
2021-01-11 21:45 11.82 1520 15100 (2016) 50 (2013) 3820 50 90 139 628 8470 12900 15100
2021-01-11 20:45 11.83 1520 15100 (2016) 50 (2013) 3820 50 90 139 628 8470 12900 15100
2021-01-11 19:45 11.84 1530 15100 (2016) 50 (2013) 3820 50 90 139 628 8470 12900 15100
2021-01-11 18:45 11.83 1520 15100 (2016) 50 (2013) 3820 50 90 139 628 8470 12900 15100
2021-01-11 17:45 11.80 1500 15100 (2016) 50 (2013) 3820 50 90 139 628 8470 12900 15100
2021-01-11 16:45 11.76 1470 15100 (2016) 50 (2013) 3820 50 90 139 628 8470 12900 15100
2021-01-11 15:45 11.75 1460 15100 (2016) 50 (2013) 3820 50 90 139 628 8470 12900 15100
2021-01-11 14:45 11.78 1480 15100 (2016) 50 (2013) 3820 50 90 139 628 8470 12900 15100
2021-01-11 13:45 11.82 1520 15100 (2016) 50 (2013) 3820 50 90 139 628 8470 12900 15100
2021-01-11 12:45 11.91 1590 15100 (2016) 50 (2013) 3820 50 90 139 628 8470 12900 15100
2021-01-11 11:45 11.97 1650 15100 (2016) 50 (2013) 3820 50 90 139 628 8470 12900 15100
2021-01-11 10:45 12.02 1690 15100 (2016) 50 (2013) 3820 50 90 139 628 8470 12900 15100
2021-01-11 09:45 12.04 1710 15100 (2016) 50 (2013) 3820 50 90 139 628 8470 12900 15100
2021-01-11 08:45 12.04 1710 15100 (2016) 50 (2013) 3820 50 90 139 628 8470 12900 15100
2021-01-11 07:45 12.05 1710 15100 (2016) 50 (2013) 3820 50 90 139 628 8470 12900 15100
2021-01-11 06:45 12.06 1720 15100 (2016) 50 (2013) 3820 50 90 139 628 8470 12900 15100
2021-01-11 05:45 12.07 1730 15100 (2016) 50 (2013) 3820 50 90 139 628 8470 12900 15100
2021-01-11 04:45 12.07 1730 15100 (2016) 50 (2013) 3820 50 90 139 628 8470 12900 15100
2021-01-11 03:45 12.09 1750 15100 (2016) 50 (2013) 3820 50 90 139 628 8470 12900 15100
2021-01-11 02:45 12.10 1750 15100 (2016) 50 (2013) 3820 50 90 139 628 8470 12900 15100
2021-01-11 01:45 12.11 1760 15100 (2016) 50 (2013) 3820 50 90 139 628 8470 12900 15100
2021-01-11 00:45 12.11 1760 15100 (2016) 50 (2013) 3820 50 90 139 628 8470 12900 15100
2021-01-10 23:45 12.11 1760 14600 (2016) 50 (2013) 2890 50 144 165 610 4650 4920 14600
2021-01-10 22:45 12.11 1760 14600 (2016) 50 (2013) 2890 50 144 165 610 4650 4920 14600
2021-01-10 21:45 12.11 1760 14600 (2016) 50 (2013) 2890 50 144 165 610 4650 4920 14600
2021-01-10 20:45 12.12 1770 14600 (2016) 50 (2013) 2890 50 144 165 610 4650 4920 14600
2021-01-10 19:45 12.13 1780 14600 (2016) 50 (2013) 2890 50 144 165 610 4650 4920 14600
2021-01-10 17:45 12.16 1800 14600 (2016) 50 (2013) 2890 50 144 165 610 4650 4920 14600
2021-01-10 16:45 12.17 1810 14600 (2016) 50 (2013) 2890 50 144 165 610 4650 4920 14600
2021-01-10 15:45 12.18 1820 14600 (2016) 50 (2013) 2890 50 144 165 610 4650 4920 14600
2021-01-10 14:45 12.19 1830 14600 (2016) 50 (2013) 2890 50 144 165 610 4650 4920 14600
2021-01-10 13:45 12.20 1840 14600 (2016) 50 (2013) 2890 50 144 165 610 4650 4920 14600
2021-01-10 12:45 12.15 1790 14600 (2016) 50 (2013) 2890 50 144 165 610 4650 4920 14600
2021-01-10 11:45 12.18 1820 14600 (2016) 50 (2013) 2890 50 144 165 610 4650 4920 14600
2021-01-10 10:45 12.19 1830 14600 (2016) 50 (2013) 2890 50 144 165 610 4650 4920 14600
2021-01-10 09:45 12.23 1860 14600 (2016) 50 (2013) 2890 50 144 165 610 4650 4920 14600
2021-01-10 08:45 12.24 1870 14600 (2016) 50 (2013) 2890 50 144 165 610 4650 4920 14600
2021-01-10 07:45 12.25 1880 14600 (2016) 50 (2013) 2890 50 144 165 610 4650 4920 14600
2021-01-10 06:45 12.25 1880 14600 (2016) 50 (2013) 2890 50 144 165 610 4650 4920 14600
2021-01-10 05:45 12.26 1890 14600 (2016) 50 (2013) 2890 50 144 165 610 4650 4920 14600
2021-01-10 04:45 12.27 1900 14600 (2016) 50 (2013) 2890 50 144 165 610 4650 4920 14600
2021-01-10 03:45 12.29 1910 14600 (2016) 50 (2013) 2890 50 144 165 610 4650 4920 14600
2021-01-10 02:45 12.30 1920 14600 (2016) 50 (2013) 2890 50 144 165 610 4650 4920 14600
2021-01-10 01:45 12.32 1940 14600 (2016) 50 (2013) 2890 50 144 165 610 4650 4920 14600
2021-01-10 00:45 12.33 1950 14600 (2016) 50 (2013) 2890 50 144 165 610 4650 4920 14600
2021-01-09 23:45 12.34 1960 12800 (2016) 77 (2013) 2660 77 166 173 426 4530 4580 12800
2021-01-09 22:45 12.35 1970 12800 (2016) 77 (2013) 2660 77 166 173 426 4530 4580 12800
2021-01-09 20:45 12.38 1990 12800 (2016) 77 (2013) 2660 77 166 173 426 4530 4580 12800
2021-01-09 19:45 12.39 2000 12800 (2016) 77 (2013) 2660 77 166 173 426 4530 4580 12800
2021-01-09 18:45 12.40 2010 12800 (2016) 77 (2013) 2660 77 166 173 426 4530 4580 12800
2021-01-09 17:45 12.41 2020 12800 (2016) 77 (2013) 2660 77 166 173 426 4530 4580 12800
2021-01-09 16:45 12.43 2040 12800 (2016) 77 (2013) 2660 77 166 173 426 4530 4580 12800
2021-01-09 15:45 12.43 2040 12800 (2016) 77 (2013) 2660 77 166 173 426 4530 4580 12800
2021-01-09 14:45 12.44 2050 12800 (2016) 77 (2013) 2660 77 166 173 426 4530 4580 12800
2021-01-09 13:45 12.45 2050 12800 (2016) 77 (2013) 2660 77 166 173 426 4530 4580 12800
2021-01-09 12:45 12.45 2050 12800 (2016) 77 (2013) 2660 77 166 173 426 4530 4580 12800
2021-01-09 11:45 12.46 2060 12800 (2016) 77 (2013) 2660 77 166 173 426 4530 4580 12800
2021-01-09 10:45 12.47 2070 12800 (2016) 77 (2013) 2660 77 166 173 426 4530 4580 12800
2021-01-09 09:45 12.47 2070 12800 (2016) 77 (2013) 2660 77 166 173 426 4530 4580 12800
2021-01-09 08:45 12.47 2070 12800 (2016) 77 (2013) 2660 77 166 173 426 4530 4580 12800
2021-01-09 07:45 12.47 2070 12800 (2016) 77 (2013) 2660 77 166 173 426 4530 4580 12800
2021-01-09 06:45 12.47 2070 12800 (2016) 77 (2013) 2660 77 166 173 426 4530 4580 12800
2021-01-09 05:45 12.46 2060 12800 (2016) 77 (2013) 2660 77 166 173 426 4530 4580 12800
2021-01-09 04:45 12.45 2050 12800 (2016) 77 (2013) 2660 77 166 173 426 4530 4580 12800
2021-01-09 03:45 12.43 2040 12800 (2016) 77 (2013) 2660 77 166 173 426 4530 4580 12800
2021-01-09 02:45 12.40 2010 12800 (2016) 77 (2013) 2660 77 166 173 426 4530 4580 12800
2021-01-09 01:45 12.38 1990 12800 (2016) 77 (2013) 2660 77 166 173 426 4530 4580 12800
2021-01-09 00:45 12.36 1970 12800 (2016) 77 (2013) 2660 77 166 173 426 4530 4580 12800
2021-01-08 23:45 12.34 1960 8060 (2016) 73 (2013) 2130 73 163 197 503 4540 4640 8060
2021-01-08 22:45 12.32 1940 8060 (2016) 73 (2013) 2130 73 163 197 503 4540 4640 8060
2021-01-08 21:45 12.30 1920 8060 (2016) 73 (2013) 2130 73 163 197 503 4540 4640 8060
2021-01-08 20:45 12.27 1900 8060 (2016) 73 (2013) 2130 73 163 197 503 4540 4640 8060
2021-01-08 19:45 12.23 1860 8060 (2016) 73 (2013) 2130 73 163 197 503 4540 4640 8060
2021-01-08 18:45 12.19 1830 8060 (2016) 73 (2013) 2130 73 163 197 503 4540 4640 8060
2021-01-08 17:45 12.15 1790 8060 (2016) 73 (2013) 2130 73 163 197 503 4540 4640 8060
2021-01-08 16:45 12.12 1770 8060 (2016) 73 (2013) 2130 73 163 197 503 4540 4640 8060
2021-01-08 15:45 12.10 1750 8060 (2016) 73 (2013) 2130 73 163 197 503 4540 4640 8060
2021-01-08 14:45 12.09 1750 8060 (2016) 73 (2013) 2130 73 163 197 503 4540 4640 8060
2021-01-08 13:45 12.07 1730 8060 (2016) 73 (2013) 2130 73 163 197 503 4540 4640 8060
2021-01-08 12:45 12.08 1740 8060 (2016) 73 (2013) 2130 73 163 197 503 4540 4640 8060
2021-01-08 11:45 12.07 1730 8060 (2016) 73 (2013) 2130 73 163 197 503 4540 4640 8060
2021-01-08 10:45 12.06 1720 8060 (2016) 73 (2013) 2130 73 163 197 503 4540 4640 8060
2021-01-08 09:45 12.04 1710 8060 (2016) 73 (2013) 2130 73 163 197 503 4540 4640 8060
2021-01-08 08:45 12.03 1700 8060 (2016) 73 (2013) 2130 73 163 197 503 4540 4640 8060
2021-01-08 07:45 12.01 1680 8060 (2016) 73 (2013) 2130 73 163 197 503 4540 4640 8060
2021-01-08 06:45 11.99 1660 8060 (2016) 73 (2013) 2130 73 163 197 503 4540 4640 8060
2021-01-08 05:45 11.96 1640 8060 (2016) 73 (2013) 2130 73 163 197 503 4540 4640 8060
2021-01-08 04:45 11.94 1620 8060 (2016) 73 (2013) 2130 73 163 197 503 4540 4640 8060
2021-01-08 03:45 11.91 1590 8060 (2016) 73 (2013) 2130 73 163 197 503 4540 4640 8060
2021-01-08 02:45 11.89 1580 8060 (2016) 73 (2013) 2130 73 163 197 503 4540 4640 8060
2021-01-08 01:45 11.89 1580 8060 (2016) 73 (2013) 2130 73 163 197 503 4540 4640 8060
2021-01-08 00:45 11.91 1590 8060 (2016) 73 (2013) 2130 73 163 197 503 4540 4640 8060
2021-01-07 23:45 11.91 1590 7460 (2016) 50 (2013) 2120 50 190 198 468 4690 4790 7460
2021-01-07 22:45 11.92 1600 7460 (2016) 50 (2013) 2120 50 190 198 468 4690 4790 7460
2021-01-07 21:45 11.92 1600 7460 (2016) 50 (2013) 2120 50 190 198 468 4690 4790 7460
2021-01-07 20:45 11.89 1580 7460 (2016) 50 (2013) 2120 50 190 198 468 4690 4790 7460
2021-01-07 19:45 11.86 1550 7460 (2016) 50 (2013) 2120 50 190 198 468 4690 4790 7460
2021-01-07 18:45 11.84 1530 7460 (2016) 50 (2013) 2120 50 190 198 468 4690 4790 7460
2021-01-07 17:45 11.80 1500 7460 (2016) 50 (2013) 2120 50 190 198 468 4690 4790 7460
2021-01-07 16:45 11.77 1470 7460 (2016) 50 (2013) 2120 50 190 198 468 4690 4790 7460
2021-01-07 15:45 11.74 1450 7460 (2016) 50 (2013) 2120 50 190 198 468 4690 4790 7460
2021-01-07 14:45 11.71 1420 7460 (2016) 50 (2013) 2120 50 190 198 468 4690 4790 7460
2021-01-07 13:45 11.67 1390 7460 (2016) 50 (2013) 2120 50 190 198 468 4690 4790 7460
2021-01-07 12:45 11.64 1370 7460 (2016) 50 (2013) 2120 50 190 198 468 4690 4790 7460
2021-01-07 11:45 11.61 1340 7460 (2016) 50 (2013) 2120 50 190 198 468 4690 4790 7460
2021-01-07 10:45 11.57 1310 7460 (2016) 50 (2013) 2120 50 190 198 468 4690 4790 7460
2021-01-07 09:45 11.53 1280 7460 (2016) 50 (2013) 2120 50 190 198 468 4690 4790 7460
2021-01-07 08:45 11.49 1250 7460 (2016) 50 (2013) 2120 50 190 198 468 4690 4790 7460
2021-01-07 07:45 11.45 1220 7460 (2016) 50 (2013) 2120 50 190 198 468 4690 4790 7460
2021-01-07 06:45 11.42 1200 7460 (2016) 50 (2013) 2120 50 190 198 468 4690 4790 7460
2021-01-07 05:45 11.39 1180 7460 (2016) 50 (2013) 2120 50 190 198 468 4690 4790 7460
2021-01-07 04:45 11.36 1160 7460 (2016) 50 (2013) 2120 50 190 198 468 4690 4790 7460
2021-01-07 03:45 11.35 1150 7460 (2016) 50 (2013) 2120 50 190 198 468 4690 4790 7460
2021-01-07 02:45 11.33 1130 7460 (2016) 50 (2013) 2120 50 190 198 468 4690 4790 7460
2021-01-07 01:45 11.31 1120 7460 (2016) 50 (2013) 2120 50 190 198 468 4690 4790 7460
2021-01-07 00:45 11.32 1130 7460 (2016) 50 (2013) 2120 50 190 198 468 4690 4790 7460
2021-01-06 23:45 11.33 1130 9660 (2016) 50 (2013) 2470 50 198 215 620 5060 5090 9660
2021-01-06 22:45 11.35 1150 9660 (2016) 50 (2013) 2470 50 198 215 620 5060 5090 9660
2021-01-06 21:45 11.38 1170 9660 (2016) 50 (2013) 2470 50 198 215 620 5060 5090 9660
2021-01-06 20:45 11.38 1170 9660 (2016) 50 (2013) 2470 50 198 215 620 5060 5090 9660
2021-01-06 19:45 11.41 1190 9660 (2016) 50 (2013) 2470 50 198 215 620 5060 5090 9660
2021-01-06 18:45 11.34 1140 9660 (2016) 50 (2013) 2470 50 198 215 620 5060 5090 9660
2021-01-06 17:45 11.37 1160 9660 (2016) 50 (2013) 2470 50 198 215 620 5060 5090 9660
2021-01-06 16:45 11.38 1170 9660 (2016) 50 (2013) 2470 50 198 215 620 5060 5090 9660
2021-01-06 15:45 11.35 1150 9660 (2016) 50 (2013) 2470 50 198 215 620 5060 5090 9660
2021-01-06 14:45 11.37 1160 9660 (2016) 50 (2013) 2470 50 198 215 620 5060 5090 9660
2021-01-06 13:45 11.38 1170 9660 (2016) 50 (2013) 2470 50 198 215 620 5060 5090 9660
2021-01-06 12:45 11.36 1160 9660 (2016) 50 (2013) 2470 50 198 215 620 5060 5090 9660
2021-01-06 11:45 11.39 1180 9660 (2016) 50 (2013) 2470 50 198 215 620 5060 5090 9660
2021-01-06 10:45 11.35 1150 9660 (2016) 50 (2013) 2470 50 198 215 620 5060 5090 9660
2021-01-06 09:45 11.36 1160 9660 (2016) 50 (2013) 2470 50 198 215 620 5060 5090 9660
2021-01-06 08:45 11.37 1160 9660 (2016) 50 (2013) 2470 50 198 215 620 5060 5090 9660
2021-01-06 07:45 11.32 1130 9660 (2016) 50 (2013) 2470 50 198 215 620 5060 5090 9660
2021-01-06 06:45 11.35 1150 9660 (2016) 50 (2013) 2470 50 198 215 620 5060 5090 9660
2021-01-06 05:45 11.32 1130 9660 (2016) 50 (2013) 2470 50 198 215 620 5060 5090 9660
2021-01-06 04:45 11.32 1130 9660 (2016) 50 (2013) 2470 50 198 215 620 5060 5090 9660
2021-01-06 03:45 11.35 1150 9660 (2016) 50 (2013) 2470 50 198 215 620 5060 5090 9660
2021-01-06 02:45 11.30 1110 9660 (2016) 50 (2013) 2470 50 198 215 620 5060 5090 9660
2021-01-06 01:45 11.29 1110 9660 (2016) 50 (2013) 2470 50 198 215 620 5060 5090 9660
2021-01-06 00:45 11.35 1150 9660 (2016) 50 (2013) 2470 50 198 215 620 5060 5090 9660
2021-01-05 23:45 11.35 1150 13200 (2016) 50 (2013) 3150 50 213 247 613 6240 6650 13200
2021-01-05 22:45 11.35 1150 13200 (2016) 50 (2013) 3150 50 213 247 613 6240 6650 13200
2021-01-05 21:45 11.31 1120 13200 (2016) 50 (2013) 3150 50 213 247 613 6240 6650 13200
2021-01-05 20:45 11.35 1150 13200 (2016) 50 (2013) 3150 50 213 247 613 6240 6650 13200
2021-01-05 19:45 11.35 1150 13200 (2016) 50 (2013) 3150 50 213 247 613 6240 6650 13200
2021-01-05 18:45 11.33 1130 13200 (2016) 50 (2013) 3150 50 213 247 613 6240 6650 13200
2021-01-05 17:45 11.31 1120 13200 (2016) 50 (2013) 3150 50 213 247 613 6240 6650 13200
2021-01-05 16:45 11.30 1110 13200 (2016) 50 (2013) 3150 50 213 247 613 6240 6650 13200
2021-01-05 15:45 11.26 1080 13200 (2016) 50 (2013) 3150 50 213 247 613 6240 6650 13200
2021-01-05 14:45 11.33 1130 13200 (2016) 50 (2013) 3150 50 213 247 613 6240 6650 13200
2021-01-05 13:45 11.32 1130 13200 (2016) 50 (2013) 3150 50 213 247 613 6240 6650 13200
2021-01-05 12:45 11.39 1180 13200 (2016) 50 (2013) 3150 50 213 247 613 6240 6650 13200
2021-01-05 11:45 11.39 1180 13200 (2016) 50 (2013) 3150 50 213 247 613 6240 6650 13200
2021-01-05 10:45 11.42 1200 13200 (2016) 50 (2013) 3150 50 213 247 613 6240 6650 13200
2021-01-05 09:45 11.42 1200 13200 (2016) 50 (2013) 3150 50 213 247 613 6240 6650 13200
2021-01-05 08:45 11.43 1210 13200 (2016) 50 (2013) 3150 50 213 247 613 6240 6650 13200
2021-01-05 07:45 11.43 1210 13200 (2016) 50 (2013) 3150 50 213 247 613 6240 6650 13200
2021-01-05 06:45 11.43 1210 13200 (2016) 50 (2013) 3150 50 213 247 613 6240 6650 13200
2021-01-05 05:45 11.44 1210 13200 (2016) 50 (2013) 3150 50 213 247 613 6240 6650 13200
2021-01-05 04:45 11.44 1210 13200 (2016) 50 (2013) 3150 50 213 247 613 6240 6650 13200
2021-01-05 03:45 11.45 1220 13200 (2016) 50 (2013) 3150 50 213 247 613 6240 6650 13200
2021-01-05 02:45 11.46 1230 13200 (2016) 50 (2013) 3150 50 213 247 613 6240 6650 13200
2021-01-05 01:45 11.47 1240 13200 (2016) 50 (2013) 3150 50 213 247 613 6240 6650 13200
2021-01-05 00:45 11.49 1250 13200 (2016) 50 (2013) 3150 50 213 247 613 6240 6650 13200
2021-01-04 23:45 11.51 1270 16600 (2016) 50 (2013) 4360 50 211 243 678 10000 12600 16600
2021-01-04 22:45 11.53 1280 16600 (2016) 50 (2013) 4360 50 211 243 678 10000 12600 16600
2021-01-04 21:45 11.54 1290 16600 (2016) 50 (2013) 4360 50 211 243 678 10000 12600 16600
2021-01-04 20:45 11.56 1310 16600 (2016) 50 (2013) 4360 50 211 243 678 10000 12600 16600
2021-01-04 19:45 11.57 1310 16600 (2016) 50 (2013) 4360 50 211 243 678 10000 12600 16600
2021-01-04 18:45 11.58 1320 16600 (2016) 50 (2013) 4360 50 211 243 678 10000 12600 16600
2021-01-04 17:45 11.60 1340 16600 (2016) 50 (2013) 4360 50 211 243 678 10000 12600 16600
2021-01-04 16:45 11.59 1330 16600 (2016) 50 (2013) 4360 50 211 243 678 10000 12600 16600
2021-01-04 15:45 11.60 1340 16600 (2016) 50 (2013) 4360 50 211 243 678 10000 12600 16600
2021-01-04 14:45 11.65 1380 16600 (2016) 50 (2013) 4360 50 211 243 678 10000 12600 16600
2021-01-04 13:45 11.67 1390 16600 (2016) 50 (2013) 4360 50 211 243 678 10000 12600 16600
2021-01-04 12:45 11.69 1410 16600 (2016) 50 (2013) 4360 50 211 243 678 10000 12600 16600
2021-01-04 11:45 11.73 1440 16600 (2016) 50 (2013) 4360 50 211 243 678 10000 12600 16600
2021-01-04 10:45 11.80 1500 16600 (2016) 50 (2013) 4360 50 211 243 678 10000 12600 16600
2021-01-04 09:45 11.83 1520 16600 (2016) 50 (2013) 4360 50 211 243 678 10000 12600 16600
2021-01-04 08:45 11.87 1560 16600 (2016) 50 (2013) 4360 50 211 243 678 10000 12600 16600
2021-01-04 07:45 11.89 1580 16600 (2016) 50 (2013) 4360 50 211 243 678 10000 12600 16600
2021-01-04 06:45 11.93 1610 16600 (2016) 50 (2013) 4360 50 211 243 678 10000 12600 16600
2021-01-04 05:45 11.96 1640 16600 (2016) 50 (2013) 4360 50 211 243 678 10000 12600 16600
2021-01-04 04:45 11.99 1660 16600 (2016) 50 (2013) 4360 50 211 243 678 10000 12600 16600
2021-01-04 03:45 12.03 1700 16600 (2016) 50 (2013) 4360 50 211 243 678 10000 12600 16600
2021-01-04 02:45 12.06 1720 16600 (2016) 50 (2013) 4360 50 211 243 678 10000 12600 16600
2021-01-04 01:45 12.10 1750 16600 (2016) 50 (2013) 4360 50 211 243 678 10000 12600 16600
2021-01-04 00:45 12.14 1790 16600 (2016) 50 (2013) 4360 50 211 243 678 10000 12600 16600
2021-01-03 23:45 12.17 1810 19900 (2016) 50 (2013) 5700 50 285 324 688 14400 18400 19900
2021-01-03 22:45 12.20 1840 19900 (2016) 50 (2013) 5700 50 285 324 688 14400 18400 19900
2021-01-03 21:45 12.23 1860 19900 (2016) 50 (2013) 5700 50 285 324 688 14400 18400 19900
2021-01-03 20:45 12.24 1870 19900 (2016) 50 (2013) 5700 50 285 324 688 14400 18400 19900
2021-01-03 19:45 12.25 1880 19900 (2016) 50 (2013) 5700 50 285 324 688 14400 18400 19900
2021-01-03 18:45 12.31 1930 19900 (2016) 50 (2013) 5700 50 285 324 688 14400 18400 19900
2021-01-03 17:45 12.33 1950 19900 (2016) 50 (2013) 5700 50 285 324 688 14400 18400 19900
2021-01-03 16:45 12.36 1970 19900 (2016) 50 (2013) 5700 50 285 324 688 14400 18400 19900
2021-01-03 15:45 12.38 1990 19900 (2016) 50 (2013) 5700 50 285 324 688 14400 18400 19900
2021-01-03 14:45 12.40 2010 19900 (2016) 50 (2013) 5700 50 285 324 688 14400 18400 19900
2021-01-03 13:45 12.37 1980 19900 (2016) 50 (2013) 5700 50 285 324 688 14400 18400 19900
2021-01-03 12:45 12.39 2000 19900 (2016) 50 (2013) 5700 50 285 324 688 14400 18400 19900
2021-01-03 11:45 12.43 2040 19900 (2016) 50 (2013) 5700 50 285 324 688 14400 18400 19900
2021-01-03 10:45 12.44 2050 19900 (2016) 50 (2013) 5700 50 285 324 688 14400 18400 19900
2021-01-03 09:45 12.45 2050 19900 (2016) 50 (2013) 5700 50 285 324 688 14400 18400 19900
2021-01-03 08:45 12.44 2050 19900 (2016) 50 (2013) 5700 50 285 324 688 14400 18400 19900
2021-01-03 07:45 12.44 2050 19900 (2016) 50 (2013) 5700 50 285 324 688 14400 18400 19900
2021-01-03 06:45 12.42 2030 19900 (2016) 50 (2013) 5700 50 285 324 688 14400 18400 19900
2021-01-03 05:45 12.41 2020 19900 (2016) 50 (2013) 5700 50 285 324 688 14400 18400 19900
2021-01-03 04:45 12.39 2000 19900 (2016) 50 (2013) 5700 50 285 324 688 14400 18400 19900
2021-01-03 03:45 12.38 1990 19900 (2016) 50 (2013) 5700 50 285 324 688 14400 18400 19900
2021-01-03 02:45 12.35 1970 19900 (2016) 50 (2013) 5700 50 285 324 688 14400 18400 19900
2021-01-03 01:45 12.32 1940 19900 (2016) 50 (2013) 5700 50 285 324 688 14400 18400 19900
2021-01-03 00:45 12.28 1900 19900 (2016) 50 (2013) 5700 50 285 324 688 14400 18400 19900
2021-01-02 23:45 12.25 1880 23900 (2016) 50 (2013) 6610 50 308 343 670 16500 18200 23900
2021-01-02 22:45 12.21 1850 23900 (2016) 50 (2013) 6610 50 308 343 670 16500 18200 23900
2021-01-02 21:45 12.16 1800 23900 (2016) 50 (2013) 6610 50 308 343 670 16500 18200 23900
2021-01-02 20:45 12.11 1760 23900 (2016) 50 (2013) 6610 50 308 343 670 16500 18200 23900
2021-01-02 19:45 12.06 1720 23900 (2016) 50 (2013) 6610 50 308 343 670 16500 18200 23900
2021-01-02 18:45 12.00 1670 23900 (2016) 50 (2013) 6610 50 308 343 670 16500 18200 23900
2021-01-02 17:45 11.95 1630 23900 (2016) 50 (2013) 6610 50 308 343 670 16500 18200 23900
2021-01-02 16:45 11.88 1570 23900 (2016) 50 (2013) 6610 50 308 343 670 16500 18200 23900
2021-01-02 15:45 11.84 1530 23900 (2016) 50 (2013) 6610 50 308 343 670 16500 18200 23900
2021-01-02 14:45 11.78 1480 23900 (2016) 50 (2013) 6610 50 308 343 670 16500 18200 23900
2021-01-02 13:45 11.72 1430 23900 (2016) 50 (2013) 6610 50 308 343 670 16500 18200 23900
2021-01-02 12:45 11.67 1390 23900 (2016) 50 (2013) 6610 50 308 343 670 16500 18200 23900
2021-01-02 11:45 11.60 1340 23900 (2016) 50 (2013) 6610 50 308 343 670 16500 18200 23900
2021-01-02 10:45 11.54 1290 23900 (2016) 50 (2013) 6610 50 308 343 670 16500 18200 23900
2021-01-02 09:45 11.47 1240 23900 (2016) 50 (2013) 6610 50 308 343 670 16500 18200 23900
2021-01-02 08:45 11.41 1190 23900 (2016) 50 (2013) 6610 50 308 343 670 16500 18200 23900
2021-01-02 07:45 11.33 1130 23900 (2016) 50 (2013) 6610 50 308 343 670 16500 18200 23900
2021-01-02 06:45 11.25 1080 23900 (2016) 50 (2013) 6610 50 308 343 670 16500 18200 23900
2021-01-02 05:45 11.17 1020 23900 (2016) 50 (2013) 6610 50 308 343 670 16500 18200 23900
2021-01-02 04:45 11.08 965 23900 (2016) 50 (2013) 6610 50 308 343 670 16500 18200 23900
2021-01-02 03:45 11.00 914 23900 (2016) 50 (2013) 6610 50 308 343 670 16500 18200 23900
2021-01-02 02:45 10.92 865 23900 (2016) 50 (2013) 6610 50 308 343 670 16500 18200 23900
2021-01-02 01:45 10.83 813 23900 (2016) 50 (2013) 6610 50 308 343 670 16500 18200 23900
2021-01-02 00:45 10.75 768 23900 (2016) 50 (2013) 6610 50 308 343 670 16500 18200 23900
2021-01-01 23:45 10.68 730 27500 (2016) 50 (2013) 6710 50 320 377 626 15000 17500 27500
2021-01-01 22:45 10.60 688 27500 (2016) 50 (2013) 6710 50 320 377 626 15000 17500 27500
2021-01-01 21:45 10.50 638 27500 (2016) 50 (2013) 6710 50 320 377 626 15000 17500 27500
2021-01-01 20:45 10.47 623 27500 (2016) 50 (2013) 6710 50 320 377 626 15000 17500 27500
2021-01-01 19:45 10.38 581 27500 (2016) 50 (2013) 6710 50 320 377 626 15000 17500 27500
2021-01-01 18:45 10.28 539 27500 (2016) 50 (2013) 6710 50 320 377 626 15000 17500 27500
2021-01-01 17:45 10.18 500 27500 (2016) 50 (2013) 6710 50 320 377 626 15000 17500 27500
2021-01-01 16:45 10.07 459 27500 (2016) 50 (2013) 6710 50 320 377 626 15000 17500 27500
2021-01-01 15:45 9.93 410 27500 (2016) 50 (2013) 6710 50 320 377 626 15000 17500 27500
2021-01-01 14:45 9.85 383 27500 (2016) 50 (2013) 6710 50 320 377 626 15000 17500 27500
2021-01-01 13:45 9.76 354 27500 (2016) 50 (2013) 6710 50 320 377 626 15000 17500 27500
2021-01-01 12:45 9.69 333 27500 (2016) 50 (2013) 6710 50 320 377 626 15000 17500 27500
2021-01-01 11:45 9.68 330 27500 (2016) 50 (2013) 6710 50 320 377 626 15000 17500 27500
2021-01-01 10:45 9.64 318 27500 (2016) 50 (2013) 6710 50 320 377 626 15000 17500 27500
2021-01-01 08:45 9.63 316 27500 (2016) 50 (2013) 6710 50 320 377 626 15000 17500 27500
2021-01-01 07:45 9.57 299 27500 (2016) 50 (2013) 6710 50 320 377 626 15000 17500 27500
2021-01-01 05:45 9.53 288 27500 (2016) 50 (2013) 6710 50 320 377 626 15000 17500 27500
2021-01-01 04:45 9.49 277 27500 (2016) 50 (2013) 6710 50 320 377 626 15000 17500 27500
2021-01-01 03:45 9.40 254 27500 (2016) 50 (2013) 6710 50 320 377 626 15000 17500 27500
2021-01-01 02:45 9.37 246 27500 (2016) 50 (2013) 6710 50 320 377 626 15000 17500 27500
2021-01-01 01:45 9.35 241 27500 (2016) 50 (2013) 6710 50 320 377 626 15000 17500 27500
2021-01-01 00:45 9.36 244 27500 (2016) 50 (2013) 6710 50 320 377 626 15000 17500 27500
2020-12-31 23:45 9.33 236 29400 (2016) 50 (2013) 6480 50 336 421 663 12900 17600 29400
2020-12-31 22:45 9.33 236 29400 (2016) 50 (2013) 6480 50 336 421 663 12900 17600 29400
2020-12-31 21:45 9.32 234 29400 (2016) 50 (2013) 6480 50 336 421 663 12900 17600 29400
2020-12-31 20:45 9.28 225 29400 (2016) 50 (2013) 6480 50 336 421 663 12900 17600 29400
2020-12-31 19:45 9.25 218 29400 (2016) 50 (2013) 6480 50 336 421 663 12900 17600 29400
2020-12-31 18:45 9.24 216 29400 (2016) 50 (2013) 6480 50 336 421 663 12900 17600 29400
2020-12-31 17:45 9.25 218 29400 (2016) 50 (2013) 6480 50 336 421 663 12900 17600 29400
2020-12-31 16:45 9.26 220 29400 (2016) 50 (2013) 6480 50 336 421 663 12900 17600 29400
2020-12-31 15:45 9.27 222 29400 (2016) 50 (2013) 6480 50 336 421 663 12900 17600 29400
2020-12-31 14:45 9.27 222 29400 (2016) 50 (2013) 6480 50 336 421 663 12900 17600 29400
2020-12-31 13:45 9.24 216 29400 (2016) 50 (2013) 6480 50 336 421 663 12900 17600 29400
2020-12-31 12:45 9.21 209 29400 (2016) 50 (2013) 6480 50 336 421 663 12900 17600 29400
2020-12-31 11:45 9.22 211 29400 (2016) 50 (2013) 6480 50 336 421 663 12900 17600 29400
2020-12-31 10:45 9.19 205 29400 (2016) 50 (2013) 6480 50 336 421 663 12900 17600 29400
2020-12-31 09:45 9.21 209 29400 (2016) 50 (2013) 6480 50 336 421 663 12900 17600 29400
2020-12-31 08:45 9.21 209 29400 (2016) 50 (2013) 6480 50 336 421 663 12900 17600 29400
2020-12-31 07:45 9.20 207 29400 (2016) 50 (2013) 6480 50 336 421 663 12900 17600 29400
2020-12-31 06:45 9.21 209 29400 (2016) 50 (2013) 6480 50 336 421 663 12900 17600 29400
2020-12-31 05:45 9.21 209 29400 (2016) 50 (2013) 6480 50 336 421 663 12900 17600 29400
2020-12-31 04:45 9.20 207 29400 (2016) 50 (2013) 6480 50 336 421 663 12900 17600 29400
2020-12-31 03:45 9.20 207 29400 (2016) 50 (2013) 6480 50 336 421 663 12900 17600 29400
2020-12-31 02:45 9.19 205 29400 (2016) 50 (2013) 6480 50 336 421 663 12900 17600 29400
2020-12-31 01:45 9.16 199 29400 (2016) 50 (2013) 6480 50 336 421 663 12900 17600 29400
2020-12-31 00:45 9.16 199 29400 (2016) 50 (2013) 6480 50 336 421 663 12900 17600 29400
2020-12-30 23:45 9.19 205 25100 (2016) 50 (2013) 6300 50 453 496 741 14100 14800 25100
2020-12-30 22:45 9.21 209 25100 (2016) 50 (2013) 6300 50 453 496 741 14100 14800 25100
2020-12-30 21:45 9.24 216 25100 (2016) 50 (2013) 6300 50 453 496 741 14100 14800 25100
2020-12-30 20:45 9.24 216 25100 (2016) 50 (2013) 6300 50 453 496 741 14100 14800 25100
2020-12-30 19:45 9.21 209 25100 (2016) 50 (2013) 6300 50 453 496 741 14100 14800 25100
2020-12-30 18:45 9.20 207 25100 (2016) 50 (2013) 6300 50 453 496 741 14100 14800 25100
2020-12-30 17:45 9.17 201 25100 (2016) 50 (2013) 6300 50 453 496 741 14100 14800 25100
2020-12-30 16:45 9.13 193 25100 (2016) 50 (2013) 6300 50 453 496 741 14100 14800 25100
2020-12-30 15:45 9.10 188 25100 (2016) 50 (2013) 6300 50 453 496 741 14100 14800 25100
2020-12-30 14:45 9.08 184 25100 (2016) 50 (2013) 6300 50 453 496 741 14100 14800 25100
2020-12-30 13:45 9.10 188 25100 (2016) 50 (2013) 6300 50 453 496 741 14100 14800 25100
2020-12-30 12:45 9.12 192 25100 (2016) 50 (2013) 6300 50 453 496 741 14100 14800 25100
2020-12-30 11:45 9.16 199 25100 (2016) 50 (2013) 6300 50 453 496 741 14100 14800 25100
2020-12-30 10:45 9.18 203 25100 (2016) 50 (2013) 6300 50 453 496 741 14100 14800 25100
2020-12-30 09:45 9.24 216 25100 (2016) 50 (2013) 6300 50 453 496 741 14100 14800 25100
2020-12-30 08:45 9.23 214 25100 (2016) 50 (2013) 6300 50 453 496 741 14100 14800 25100
2020-12-30 07:45 9.25 218 25100 (2016) 50 (2013) 6300 50 453 496 741 14100 14800 25100
2020-12-30 06:45 9.27 222 25100 (2016) 50 (2013) 6300 50 453 496 741 14100 14800 25100
2020-12-30 05:45 9.22 211 25100 (2016) 50 (2013) 6300 50 453 496 741 14100 14800 25100
2020-12-30 04:45 9.19 205 25100 (2016) 50 (2013) 6300 50 453 496 741 14100 14800 25100
2020-12-30 03:45 9.07 182 25100 (2016) 50 (2013) 6300 50 453 496 741 14100 14800 25100
2020-12-30 02:45 9.07 182 25100 (2016) 50 (2013) 6300 50 453 496 741 14100 14800 25100
2020-12-30 01:45 9.01 171 25100 (2016) 50 (2013) 6300 50 453 496 741 14100 14800 25100
2020-12-30 00:45 9.01 171 25100 (2016) 50 (2013) 6300 50 453 496 741 14100 14800 25100
2020-12-29 23:45 8.99 167 16800 (2016) 50 (2013) 4820 50 372 450 854 11500 13900 16800
2020-12-29 22:45 8.98 166 16800 (2016) 50 (2013) 4820 50 372 450 854 11500 13900 16800
2020-12-29 21:45 9.01 171 16800 (2016) 50 (2013) 4820 50 372 450 854 11500 13900 16800
2020-12-29 20:45 8.99 167 16800 (2016) 50 (2013) 4820 50 372 450 854 11500 13900 16800
2020-12-29 19:45 9.03 175 16800 (2016) 50 (2013) 4820 50 372 450 854 11500 13900 16800
2020-12-29 18:45 9.03 175 16800 (2016) 50 (2013) 4820 50 372 450 854 11500 13900 16800
2020-12-29 17:45 9.08 184 16800 (2016) 50 (2013) 4820 50 372 450 854 11500 13900 16800
2020-12-29 16:45 9.13 193 16800 (2016) 50 (2013) 4820 50 372 450 854 11500 13900 16800
2020-12-29 15:45 9.14 195 16800 (2016) 50 (2013) 4820 50 372 450 854 11500 13900 16800
2020-12-29 14:45 9.13 193 16800 (2016) 50 (2013) 4820 50 372 450 854 11500 13900 16800
2020-12-29 13:45 9.11 190 16800 (2016) 50 (2013) 4820 50 372 450 854 11500 13900 16800
2020-12-29 12:45 9.10 188 16800 (2016) 50 (2013) 4820 50 372 450 854 11500 13900 16800
2020-12-29 11:45 9.14 195 16800 (2016) 50 (2013) 4820 50 372 450 854 11500 13900 16800
2020-12-29 10:45 9.15 197 16800 (2016) 50 (2013) 4820 50 372 450 854 11500 13900 16800
2020-12-29 09:45 9.16 199 16800 (2016) 50 (2013) 4820 50 372 450 854 11500 13900 16800
2020-12-29 08:45 9.20 207 16800 (2016) 50 (2013) 4820 50 372 450 854 11500 13900 16800
2020-12-29 07:45 9.25 218 16800 (2016) 50 (2013) 4820 50 372 450 854 11500 13900 16800
2020-12-29 06:45 9.24 216 16800 (2016) 50 (2013) 4820 50 372 450 854 11500 13900 16800
2020-12-29 05:45 9.24 216 16800 (2016) 50 (2013) 4820 50 372 450 854 11500 13900 16800
2020-12-29 04:45 9.24 216 16800 (2016) 50 (2013) 4820 50 372 450 854 11500 13900 16800
2020-12-29 03:45 9.15 197 16800 (2016) 50 (2013) 4820 50 372 450 854 11500 13900 16800
2020-12-29 02:45 9.13 193 16800 (2016) 50 (2013) 4820 50 372 450 854 11500 13900 16800
2020-12-29 01:45 9.13 193 16800 (2016) 50 (2013) 4820 50 372 450 854 11500 13900 16800
2020-12-29 00:45 9.10 188 16800 (2016) 50 (2013) 4820 50 372 450 854 11500 13900 16800
2020-12-28 23:45 9.09 186 12600 (2016) 50 (2013) 2710 50 331 452 1050 3990 6030 12600
2020-12-28 22:45 9.08 184 12600 (2016) 50 (2013) 2710 50 331 452 1050 3990 6030 12600
2020-12-28 21:45 9.11 190 12600 (2016) 50 (2013) 2710 50 331 452 1050 3990 6030 12600
2020-12-28 20:45 9.14 195 12600 (2016) 50 (2013) 2710 50 331 452 1050 3990 6030 12600
2020-12-28 19:45 9.18 203 12600 (2016) 50 (2013) 2710 50 331 452 1050 3990 6030 12600
2020-12-28 18:45 9.21 209 12600 (2016) 50 (2013) 2710 50 331 452 1050 3990 6030 12600
2020-12-28 17:45 9.20 207 12600 (2016) 50 (2013) 2710 50 331 452 1050 3990 6030 12600
2020-12-28 16:45 9.16 199 12600 (2016) 50 (2013) 2710 50 331 452 1050 3990 6030 12600
2020-12-28 15:45 9.11 190 12600 (2016) 50 (2013) 2710 50 331 452 1050 3990 6030 12600
2020-12-28 14:45 9.09 186 12600 (2016) 50 (2013) 2710 50 331 452 1050 3990 6030 12600
2020-12-28 13:45 9.05 178 12600 (2016) 50 (2013) 2710 50 331 452 1050 3990 6030 12600
2020-12-28 12:45 9.11 190 12600 (2016) 50 (2013) 2710 50 331 452 1050 3990 6030 12600
2020-12-28 11:45 9.14 195 12600 (2016) 50 (2013) 2710 50 331 452 1050 3990 6030 12600
2020-12-28 10:45 9.15 197 12600 (2016) 50 (2013) 2710 50 331 452 1050 3990 6030 12600
2020-12-28 09:45 9.15 197 12600 (2016) 50 (2013) 2710 50 331 452 1050 3990 6030 12600
2020-12-28 08:45 9.16 199 12600 (2016) 50 (2013) 2710 50 331 452 1050 3990 6030 12600
2020-12-28 07:45 9.16 199 12600 (2016) 50 (2013) 2710 50 331 452 1050 3990 6030 12600
2020-12-28 06:45 9.15 197 12600 (2016) 50 (2013) 2710 50 331 452 1050 3990 6030 12600
2020-12-28 05:45 9.13 193 12600 (2016) 50 (2013) 2710 50 331 452 1050 3990 6030 12600
2020-12-28 04:45 9.14 195 12600 (2016) 50 (2013) 2710 50 331 452 1050 3990 6030 12600
2020-12-28 03:45 9.14 195 12600 (2016) 50 (2013) 2710 50 331 452 1050 3990 6030 12600
2020-12-28 02:45 9.14 195 12600 (2016) 50 (2013) 2710 50 331 452 1050 3990 6030 12600
2020-12-28 01:45 9.18 203 12600 (2016) 50 (2013) 2710 50 331 452 1050 3990 6030 12600
2020-12-28 00:45 9.19 205 12600 (2016) 50 (2013) 2710 50 331 452 1050 3990 6030 12600
2020-12-27 23:45 9.24 216 10600 (2016) 50 (2013) 1980 50 335 466 1030 1620 1850 10600
2020-12-27 22:45 9.27 222 10600 (2016) 50 (2013) 1980 50 335 466 1030 1620 1850 10600
2020-12-27 21:45 9.25 218 10600 (2016) 50 (2013) 1980 50 335 466 1030 1620 1850 10600
2020-12-27 20:45 9.22 211 10600 (2016) 50 (2013) 1980 50 335 466 1030 1620 1850 10600
2020-12-27 19:45 9.14 195 10600 (2016) 50 (2013) 1980 50 335 466 1030 1620 1850 10600
2020-12-27 18:45 9.04 176 10600 (2016) 50 (2013) 1980 50 335 466 1030 1620 1850 10600
2020-12-27 17:45 8.94 159 10600 (2016) 50 (2013) 1980 50 335 466 1030 1620 1850 10600
2020-12-27 16:45 8.85 144 10600 (2016) 50 (2013) 1980 50 335 466 1030 1620 1850 10600
2020-12-27 15:45 8.87 147 10600 (2016) 50 (2013) 1980 50 335 466 1030 1620 1850 10600
2020-12-27 14:45 8.90 152 10600 (2016) 50 (2013) 1980 50 335 466 1030 1620 1850 10600
2020-12-27 13:45 8.98 166 10600 (2016) 50 (2013) 1980 50 335 466 1030 1620 1850 10600
2020-12-27 12:45 9.02 173 10600 (2016) 50 (2013) 1980 50 335 466 1030 1620 1850 10600
2020-12-27 11:45 9.07 182 10600 (2016) 50 (2013) 1980 50 335 466 1030 1620 1850 10600
2020-12-27 10:45 9.09 186 10600 (2016) 50 (2013) 1980 50 335 466 1030 1620 1850 10600
2020-12-27 09:45 9.15 197 10600 (2016) 50 (2013) 1980 50 335 466 1030 1620 1850 10600
2020-12-27 08:45 9.18 203 10600 (2016) 50 (2013) 1980 50 335 466 1030 1620 1850 10600
2020-12-27 07:45 9.16 199 10600 (2016) 50 (2013) 1980 50 335 466 1030 1620 1850 10600
2020-12-27 06:45 9.14 195 10600 (2016) 50 (2013) 1980 50 335 466 1030 1620 1850 10600
2020-12-27 05:45 9.11 190 10600 (2016) 50 (2013) 1980 50 335 466 1030 1620 1850 10600
2020-12-27 04:45 9.06 180 10600 (2016) 50 (2013) 1980 50 335 466 1030 1620 1850 10600
2020-12-27 03:45 9.08 184 10600 (2016) 50 (2013) 1980 50 335 466 1030 1620 1850 10600
2020-12-27 02:45 9.09 186 10600 (2016) 50 (2013) 1980 50 335 466 1030 1620 1850 10600
2020-12-27 01:45 9.11 190 10600 (2016) 50 (2013) 1980 50 335 466 1030 1620 1850 10600
2020-12-27 00:45 9.12 192 10600 (2016) 50 (2013) 1980 50 335 466 1030 1620 1850 10600
2020-12-26 23:45 9.13 193 3650 (2016) 50 (2013) 1220 50 294 383 649 1800 1890 3650
2020-12-26 22:45 9.14 195 3650 (2016) 50 (2013) 1220 50 294 383 649 1800 1890 3650
2020-12-26 21:45 9.17 201 3650 (2016) 50 (2013) 1220 50 294 383 649 1800 1890 3650
2020-12-26 20:45 9.19 205 3650 (2016) 50 (2013) 1220 50 294 383 649 1800 1890 3650
2020-12-26 19:45 9.19 205 3650 (2016) 50 (2013) 1220 50 294 383 649 1800 1890 3650
2020-12-26 18:45 9.18 203 3650 (2016) 50 (2013) 1220 50 294 383 649 1800 1890 3650
2020-12-26 17:45 9.12 192 3650 (2016) 50 (2013) 1220 50 294 383 649 1800 1890 3650
2020-12-26 16:45 9.07 182 3650 (2016) 50 (2013) 1220 50 294 383 649 1800 1890 3650
2020-12-26 15:45 9.02 173 3650 (2016) 50 (2013) 1220 50 294 383 649 1800 1890 3650
2020-12-26 14:45 8.98 166 3650 (2016) 50 (2013) 1220 50 294 383 649 1800 1890 3650
2020-12-26 13:45 9.02 173 3650 (2016) 50 (2013) 1220 50 294 383 649 1800 1890 3650
2020-12-26 12:45 9.07 182 3650 (2016) 50 (2013) 1220 50 294 383 649 1800 1890 3650
2020-12-26 11:45 9.13 193 3650 (2016) 50 (2013) 1220 50 294 383 649 1800 1890 3650
2020-12-26 10:45 9.17 201 3650 (2016) 50 (2013) 1220 50 294 383 649 1800 1890 3650
2020-12-26 09:45 9.18 203 3650 (2016) 50 (2013) 1220 50 294 383 649 1800 1890 3650
2020-12-26 08:45 9.19 205 3650 (2016) 50 (2013) 1220 50 294 383 649 1800 1890 3650
2020-12-26 07:45 9.19 205 3650 (2016) 50 (2013) 1220 50 294 383 649 1800 1890 3650
2020-12-26 06:45 9.16 199 3650 (2016) 50 (2013) 1220 50 294 383 649 1800 1890 3650
2020-12-26 05:45 9.12 192 3650 (2016) 50 (2013) 1220 50 294 383 649 1800 1890 3650
2020-12-26 04:45 9.11 190 3650 (2016) 50 (2013) 1220 50 294 383 649 1800 1890 3650
2020-12-26 03:45 9.08 184 3650 (2016) 50 (2013) 1220 50 294 383 649 1800 1890 3650
2020-12-26 02:45 9.09 186 3650 (2016) 50 (2013) 1220 50 294 383 649 1800 1890 3650
2020-12-26 01:45 9.10 188 3650 (2016) 50 (2013) 1220 50 294 383 649 1800 1890 3650
2020-12-26 00:45 9.11 190 3650 (2016) 50 (2013) 1220 50 294 383 649 1800 1890 3650
2020-12-25 23:45 9.13 193 3870 (2016) 50 (2013) 1410 50 342 436 718 2340 2660 3870
2020-12-25 22:45 9.13 193 3870 (2016) 50 (2013) 1410 50 342 436 718 2340 2660 3870
2020-12-25 21:45 9.15 197 3870 (2016) 50 (2013) 1410 50 342 436 718 2340 2660 3870
2020-12-25 20:45 9.16 199 3870 (2016) 50 (2013) 1410 50 342 436 718 2340 2660 3870
2020-12-25 19:45 9.16 199 3870 (2016) 50 (2013) 1410 50 342 436 718 2340 2660 3870
2020-12-25 18:45 9.15 197 3870 (2016) 50 (2013) 1410 50 342 436 718 2340 2660 3870
2020-12-25 17:45 9.13 193 3870 (2016) 50 (2013) 1410 50 342 436 718 2340 2660 3870
2020-12-25 16:45 9.08 184 3870 (2016) 50 (2013) 1410 50 342 436 718 2340 2660 3870
2020-12-25 15:45 9.04 176 3870 (2016) 50 (2013) 1410 50 342 436 718 2340 2660 3870
2020-12-25 14:45 9.01 171 3870 (2016) 50 (2013) 1410 50 342 436 718 2340 2660 3870
2020-12-25 13:45 9.03 175 3870 (2016) 50 (2013) 1410 50 342 436 718 2340 2660 3870
2020-12-25 12:45 9.07 182 3870 (2016) 50 (2013) 1410 50 342 436 718 2340 2660 3870
2020-12-25 11:45 9.08 184 3870 (2016) 50 (2013) 1410 50 342 436 718 2340 2660 3870
2020-12-25 10:45 9.09 186 3870 (2016) 50 (2013) 1410 50 342 436 718 2340 2660 3870
2020-12-25 09:45 9.10 188 3870 (2016) 50 (2013) 1410 50 342 436 718 2340 2660 3870
2020-12-25 08:45 9.11 190 3870 (2016) 50 (2013) 1410 50 342 436 718 2340 2660 3870
2020-12-25 07:45 9.12 192 3870 (2016) 50 (2013) 1410 50 342 436 718 2340 2660 3870
2020-12-25 06:45 9.14 195 3870 (2016) 50 (2013) 1410 50 342 436 718 2340 2660 3870
2020-12-25 05:45 9.13 193 3870 (2016) 50 (2013) 1410 50 342 436 718 2340 2660 3870
2020-12-25 04:45 9.18 203 3870 (2016) 50 (2013) 1410 50 342 436 718 2340 2660 3870
2020-12-25 03:45 9.18 203 3870 (2016) 50 (2013) 1410 50 342 436 718 2340 2660 3870
2020-12-25 02:45 9.21 209 3870 (2016) 50 (2013) 1410 50 342 436 718 2340 2660 3870
2020-12-25 01:45 9.22 211 3870 (2016) 50 (2013) 1410 50 342 436 718 2340 2660 3870
2020-12-25 00:45 9.22 211 3870 (2016) 50 (2013) 1410 50 342 436 718 2340 2660 3870
2020-12-24 23:45 9.20 207 5640 (2012) 50 (2013) 1810 50 312 478 747 3180 4240 5640
2020-12-24 22:45 9.17 201 5640 (2012) 50 (2013) 1810 50 312 478 747 3180 4240 5640
2020-12-24 21:45 9.14 195 5640 (2012) 50 (2013) 1810 50 312 478 747 3180 4240 5640
2020-12-24 20:45 9.13 193 5640 (2012) 50 (2013) 1810 50 312 478 747 3180 4240 5640
2020-12-24 19:45 9.16 199 5640 (2012) 50 (2013) 1810 50 312 478 747 3180 4240 5640
2020-12-24 18:45 9.14 195 5640 (2012) 50 (2013) 1810 50 312 478 747 3180 4240 5640
2020-12-24 17:45 9.15 197 5640 (2012) 50 (2013) 1810 50 312 478 747 3180 4240 5640
2020-12-24 16:45 9.13 193 5640 (2012) 50 (2013) 1810 50 312 478 747 3180 4240 5640
2020-12-24 15:45 9.12 192 5640 (2012) 50 (2013) 1810 50 312 478 747 3180 4240 5640
2020-12-24 14:45 9.11 190 5640 (2012) 50 (2013) 1810 50 312 478 747 3180 4240 5640
2020-12-24 13:45 9.13 193 5640 (2012) 50 (2013) 1810 50 312 478 747 3180 4240 5640
2020-12-24 12:45 9.12 192 5640 (2012) 50 (2013) 1810 50 312 478 747 3180 4240 5640
2020-12-24 11:45 9.10 188 5640 (2012) 50 (2013) 1810 50 312 478 747 3180 4240 5640
2020-12-24 10:45 9.10 188 5640 (2012) 50 (2013) 1810 50 312 478 747 3180 4240 5640
2020-12-24 09:45 9.06 180 5640 (2012) 50 (2013) 1810 50 312 478 747 3180 4240 5640
2020-12-24 08:45 9.01 171 5640 (2012) 50 (2013) 1810 50 312 478 747 3180 4240 5640
2020-12-24 07:45 9.02 173 5640 (2012) 50 (2013) 1810 50 312 478 747 3180 4240 5640
2020-12-24 06:45 9.05 178 5640 (2012) 50 (2013) 1810 50 312 478 747 3180 4240 5640
2020-12-24 05:45 9.07 182 5640 (2012) 50 (2013) 1810 50 312 478 747 3180 4240 5640
2020-12-24 04:45 9.12 192 5640 (2012) 50 (2013) 1810 50 312 478 747 3180 4240 5640
2020-12-24 03:45 9.14 195 5640 (2012) 50 (2013) 1810 50 312 478 747 3180 4240 5640
2020-12-24 02:45 9.17 201 5640 (2012) 50 (2013) 1810 50 312 478 747 3180 4240 5640
2020-12-24 01:45 9.16 199 5640 (2012) 50 (2013) 1810 50 312 478 747 3180 4240 5640
2020-12-24 00:45 9.11 190 5640 (2012) 50 (2013) 1810 50 312 478 747 3180 4240 5640
2020-12-23 23:45 9.10 188 10100 (2012) 50 (2013) 2370 50 222 425 781 3480 4810 10100
2020-12-23 22:45 9.05 178 10100 (2012) 50 (2013) 2370 50 222 425 781 3480 4810 10100
2020-12-23 21:45 8.96 162 10100 (2012) 50 (2013) 2370 50 222 425 781 3480 4810 10100
2020-12-23 20:45 9.00 169 10100 (2012) 50 (2013) 2370 50 222 425 781 3480 4810 10100
2020-12-23 19:45 8.96 162 10100 (2012) 50 (2013) 2370 50 222 425 781 3480 4810 10100
2020-12-23 18:45 9.03 175 10100 (2012) 50 (2013) 2370 50 222 425 781 3480 4810 10100
2020-12-23 17:45 9.03 175 10100 (2012) 50 (2013) 2370 50 222 425 781 3480 4810 10100
2020-12-23 16:45 9.06 180 10100 (2012) 50 (2013) 2370 50 222 425 781 3480 4810 10100
2020-12-23 15:45 9.03 175 10100 (2012) 50 (2013) 2370 50 222 425 781 3480 4810 10100
2020-12-23 14:45 8.92 155 10100 (2012) 50 (2013) 2370 50 222 425 781 3480 4810 10100
2020-12-23 13:45 8.90 152 10100 (2012) 50 (2013) 2370 50 222 425 781 3480 4810 10100
2020-12-23 12:45 8.85 144 10100 (2012) 50 (2013) 2370 50 222 425 781 3480 4810 10100
2020-12-23 11:45 8.80 136 10100 (2012) 50 (2013) 2370 50 222 425 781 3480 4810 10100
2020-12-23 10:45 8.81 138 10100 (2012) 50 (2013) 2370 50 222 425 781 3480 4810 10100
2020-12-23 09:45 8.84 142 10100 (2012) 50 (2013) 2370 50 222 425 781 3480 4810 10100
2020-12-23 08:45 8.91 153 10100 (2012) 50 (2013) 2370 50 222 425 781 3480 4810 10100
2020-12-23 07:45 8.91 153 10100 (2012) 50 (2013) 2370 50 222 425 781 3480 4810 10100
2020-12-23 06:45 8.93 157 10100 (2012) 50 (2013) 2370 50 222 425 781 3480 4810 10100
2020-12-23 05:45 8.95 160 10100 (2012) 50 (2013) 2370 50 222 425 781 3480 4810 10100
2020-12-23 04:45 8.95 160 10100 (2012) 50 (2013) 2370 50 222 425 781 3480 4810 10100
2020-12-23 03:45 8.97 164 10100 (2012) 50 (2013) 2370 50 222 425 781 3480 4810 10100
2020-12-23 02:45 8.99 167 10100 (2012) 50 (2013) 2370 50 222 425 781 3480 4810 10100
2020-12-23 01:45 9.06 180 10100 (2012) 50 (2013) 2370 50 222 425 781 3480 4810 10100
2020-12-23 00:45 9.11 190 10100 (2012) 50 (2013) 2370 50 222 425 781 3480 4810 10100
2020-12-22 23:45 9.12 192 12200 (2012) 50 (2013) 2760 50 251 401 1020 4110 5870 12200
2020-12-22 22:45 9.10 188 12200 (2012) 50 (2013) 2760 50 251 401 1020 4110 5870 12200
2020-12-22 21:45 9.06 180 12200 (2012) 50 (2013) 2760 50 251 401 1020 4110 5870 12200
2020-12-22 20:45 9.01 171 12200 (2012) 50 (2013) 2760 50 251 401 1020 4110 5870 12200
2020-12-22 19:45 8.99 167 12200 (2012) 50 (2013) 2760 50 251 401 1020 4110 5870 12200
2020-12-22 18:45 8.99 167 12200 (2012) 50 (2013) 2760 50 251 401 1020 4110 5870 12200
2020-12-22 17:45 9.06 180 12200 (2012) 50 (2013) 2760 50 251 401 1020 4110 5870 12200
2020-12-22 16:45 9.06 180 12200 (2012) 50 (2013) 2760 50 251 401 1020 4110 5870 12200
2020-12-22 15:45 9.10 188 12200 (2012) 50 (2013) 2760 50 251 401 1020 4110 5870 12200
2020-12-22 14:45 9.14 195 12200 (2012) 50 (2013) 2760 50 251 401 1020 4110 5870 12200
2020-12-22 13:45 9.14 195 12200 (2012) 50 (2013) 2760 50 251 401 1020 4110 5870 12200
2020-12-22 12:45 9.15 197 12200 (2012) 50 (2013) 2760 50 251 401 1020 4110 5870 12200
2020-12-22 11:45 9.13 193 12200 (2012) 50 (2013) 2760 50 251 401 1020 4110 5870 12200
2020-12-22 10:45 9.15 197 12200 (2012) 50 (2013) 2760 50 251 401 1020 4110 5870 12200
2020-12-22 09:45 9.13 193 12200 (2012) 50 (2013) 2760 50 251 401 1020 4110 5870 12200
2020-12-22 08:45 9.18 203 12200 (2012) 50 (2013) 2760 50 251 401 1020 4110 5870 12200
2020-12-22 07:45 9.19 205 12200 (2012) 50 (2013) 2760 50 251 401 1020 4110 5870 12200
2020-12-22 06:45 9.17 201 12200 (2012) 50 (2013) 2760 50 251 401 1020 4110 5870 12200
2020-12-22 05:45 9.15 197 12200 (2012) 50 (2013) 2760 50 251 401 1020 4110 5870 12200
2020-12-22 04:45 9.13 193 12200 (2012) 50 (2013) 2760 50 251 401 1020 4110 5870 12200
2020-12-22 03:45 9.11 190 12200 (2012) 50 (2013) 2760 50 251 401 1020 4110 5870 12200
2020-12-22 02:45 9.10 188 12200 (2012) 50 (2013) 2760 50 251 401 1020 4110 5870 12200
2020-12-22 01:45 9.13 193 12200 (2012) 50 (2013) 2760 50 251 401 1020 4110 5870 12200
2020-12-22 00:45 9.15 197 12200 (2012) 50 (2013) 2760 50 251 401 1020 4110 5870 12200
2020-12-21 23:45 9.17 201 12400 (2012) 50 (2013) 3080 50 226 343 1090 5460 8410 12400
2020-12-21 22:45 9.17 201 12400 (2012) 50 (2013) 3080 50 226 343 1090 5460 8410 12400
2020-12-21 21:45 9.17 201 12400 (2012) 50 (2013) 3080 50 226 343 1090 5460 8410 12400
2020-12-21 20:45 9.17 201 12400 (2012) 50 (2013) 3080 50 226 343 1090 5460 8410 12400
2020-12-21 19:45 9.14 195 12400 (2012) 50 (2013) 3080 50 226 343 1090 5460 8410 12400
2020-12-21 18:45 9.13 193 12400 (2012) 50 (2013) 3080 50 226 343 1090 5460 8410 12400
2020-12-21 17:45 9.10 188 12400 (2012) 50 (2013) 3080 50 226 343 1090 5460 8410 12400
2020-12-21 16:45 9.06 180 12400 (2012) 50 (2013) 3080 50 226 343 1090 5460 8410 12400
2020-12-21 15:45 9.02 173 12400 (2012) 50 (2013) 3080 50 226 343 1090 5460 8410 12400
2020-12-21 14:45 9.06 180 12400 (2012) 50 (2013) 3080 50 226 343 1090 5460 8410 12400
2020-12-21 13:45 9.11 190 12400 (2012) 50 (2013) 3080 50 226 343 1090 5460 8410 12400
2020-12-21 12:45 9.13 193 12400 (2012) 50 (2013) 3080 50 226 343 1090 5460 8410 12400
2020-12-21 11:45 9.14 195 12400 (2012) 50 (2013) 3080 50 226 343 1090 5460 8410 12400
2020-12-21 10:45 9.13 193 12400 (2012) 50 (2013) 3080 50 226 343 1090 5460 8410 12400
2020-12-21 09:45 9.15 197 12400 (2012) 50 (2013) 3080 50 226 343 1090 5460 8410 12400
2020-12-21 08:45 9.09 186 12400 (2012) 50 (2013) 3080 50 226 343 1090 5460 8410 12400
2020-12-21 07:45 9.05 178 12400 (2012) 50 (2013) 3080 50 226 343 1090 5460 8410 12400
2020-12-21 06:45 9.00 169 12400 (2012) 50 (2013) 3080 50 226 343 1090 5460 8410 12400
2020-12-21 05:45 8.97 164 12400 (2012) 50 (2013) 3080 50 226 343 1090 5460 8410 12400
2020-12-21 04:45 8.98 166 12400 (2012) 50 (2013) 3080 50 226 343 1090 5460 8410 12400
2020-12-21 03:45 9.00 169 12400 (2012) 50 (2013) 3080 50 226 343 1090 5460 8410 12400
2020-12-21 02:45 9.01 171 12400 (2012) 50 (2013) 3080 50 226 343 1090 5460 8410 12400
2020-12-21 01:45 9.04 176 12400 (2012) 50 (2013) 3080 50 226 343 1090 5460 8410 12400
2020-12-21 00:45 9.15 197 12400 (2012) 50 (2013) 3080 50 226 343 1090 5460 8410 12400
2020-12-20 23:45 9.18 203 15100 (2016) 50 (2013) 3250 50 143 255 1160 5050 7450 15100
2020-12-20 22:45 9.21 209 15100 (2016) 50 (2013) 3250 50 143 255 1160 5050 7450 15100
2020-12-20 21:45 9.21 209 15100 (2016) 50 (2013) 3250 50 143 255 1160 5050 7450 15100
2020-12-20 20:45 9.20 207 15100 (2016) 50 (2013) 3250 50 143 255 1160 5050 7450 15100
2020-12-20 19:45 9.17 201 15100 (2016) 50 (2013) 3250 50 143 255 1160 5050 7450 15100
2020-12-20 18:45 9.13 193 15100 (2016) 50 (2013) 3250 50 143 255 1160 5050 7450 15100
2020-12-20 17:45 9.09 186 15100 (2016) 50 (2013) 3250 50 143 255 1160 5050 7450 15100
2020-12-20 16:45 9.04 176 15100 (2016) 50 (2013) 3250 50 143 255 1160 5050 7450 15100
2020-12-20 15:45 9.00 169 15100 (2016) 50 (2013) 3250 50 143 255 1160 5050 7450 15100
2020-12-20 14:45 8.97 164 15100 (2016) 50 (2013) 3250 50 143 255 1160 5050 7450 15100
2020-12-20 13:45 9.01 171 15100 (2016) 50 (2013) 3250 50 143 255 1160 5050 7450 15100
2020-12-20 12:45 9.05 178 15100 (2016) 50 (2013) 3250 50 143 255 1160 5050 7450 15100
2020-12-20 11:45 9.11 190 15100 (2016) 50 (2013) 3250 50 143 255 1160 5050 7450 15100
2020-12-20 10:45 9.15 197 15100 (2016) 50 (2013) 3250 50 143 255 1160 5050 7450 15100
2020-12-20 09:45 9.17 201 15100 (2016) 50 (2013) 3250 50 143 255 1160 5050 7450 15100
2020-12-20 08:45 9.16 199 15100 (2016) 50 (2013) 3250 50 143 255 1160 5050 7450 15100
2020-12-20 07:45 9.15 197 15100 (2016) 50 (2013) 3250 50 143 255 1160 5050 7450 15100
2020-12-20 06:45 9.13 193 15100 (2016) 50 (2013) 3250 50 143 255 1160 5050 7450 15100
2020-12-20 05:45 9.09 186 15100 (2016) 50 (2013) 3250 50 143 255 1160 5050 7450 15100
2020-12-20 04:45 9.09 186 15100 (2016) 50 (2013) 3250 50 143 255 1160 5050 7450 15100
2020-12-20 03:45 9.08 184 15100 (2016) 50 (2013) 3250 50 143 255 1160 5050 7450 15100
2020-12-20 02:45 9.08 184 15100 (2016) 50 (2013) 3250 50 143 255 1160 5050 7450 15100
2020-12-20 01:45 9.08 184 15100 (2016) 50 (2013) 3250 50 143 255 1160 5050 7450 15100
2020-12-20 00:45 9.10 188 15100 (2016) 50 (2013) 3250 50 143 255 1160 5050 7450 15100
2020-12-19 23:45 9.11 190 20100 (2016) 50 (2013) 3020 50 184 236 918 2180 3350 20100
2020-12-19 22:45 9.13 193 20100 (2016) 50 (2013) 3020 50 184 236 918 2180 3350 20100
2020-12-19 21:45 9.16 199 20100 (2016) 50 (2013) 3020 50 184 236 918 2180 3350 20100
2020-12-19 20:45 9.17 201 20100 (2016) 50 (2013) 3020 50 184 236 918 2180 3350 20100
2020-12-19 19:45 9.18 203 20100 (2016) 50 (2013) 3020 50 184 236 918 2180 3350 20100
2020-12-19 18:45 9.17 201 20100 (2016) 50 (2013) 3020 50 184 236 918 2180 3350 20100
2020-12-19 17:45 9.14 195 20100 (2016) 50 (2013) 3020 50 184 236 918 2180 3350 20100
2020-12-19 16:45 9.11 190 20100 (2016) 50 (2013) 3020 50 184 236 918 2180 3350 20100
2020-12-19 15:45 9.09 186 20100 (2016) 50 (2013) 3020 50 184 236 918 2180 3350 20100
2020-12-19 14:45 9.10 188 20100 (2016) 50 (2013) 3020 50 184 236 918 2180 3350 20100
2020-12-19 13:45 9.08 184 20100 (2016) 50 (2013) 3020 50 184 236 918 2180 3350 20100
2020-12-19 12:45 9.07 182 20100 (2016) 50 (2013) 3020 50 184 236 918 2180 3350 20100
2020-12-19 11:45 9.10 188 20100 (2016) 50 (2013) 3020 50 184 236 918 2180 3350 20100
2020-12-19 10:45 9.10 188 20100 (2016) 50 (2013) 3020 50 184 236 918 2180 3350 20100
2020-12-19 09:45 9.10 188 20100 (2016) 50 (2013) 3020 50 184 236 918 2180 3350 20100
2020-12-19 08:45 9.13 193 20100 (2016) 50 (2013) 3020 50 184 236 918 2180 3350 20100
2020-12-19 07:45 9.14 195 20100 (2016) 50 (2013) 3020 50 184 236 918 2180 3350 20100
2020-12-19 06:45 9.11 190 20100 (2016) 50 (2013) 3020 50 184 236 918 2180 3350 20100
2020-12-19 05:45 9.07 182 20100 (2016) 50 (2013) 3020 50 184 236 918 2180 3350 20100
2020-12-19 04:45 9.06 180 20100 (2016) 50 (2013) 3020 50 184 236 918 2180 3350 20100
2020-12-19 03:45 9.05 178 20100 (2016) 50 (2013) 3020 50 184 236 918 2180 3350 20100
2020-12-19 02:45 9.06 180 20100 (2016) 50 (2013) 3020 50 184 236 918 2180 3350 20100
2020-12-19 01:45 9.06 180 20100 (2016) 50 (2013) 3020 50 184 236 918 2180 3350 20100
2020-12-19 00:45 9.06 180 20100 (2016) 50 (2013) 3020 50 184 236 918 2180 3350 20100
2020-12-18 23:45 9.08 184 22400 (2016) 50 (2013) 3400 50 189 238 453 3060 5050 22400
2020-12-18 22:45 9.05 178 22400 (2016) 50 (2013) 3400 50 189 238 453 3060 5050 22400
2020-12-18 21:45 9.05 178 22400 (2016) 50 (2013) 3400 50 189 238 453 3060 5050 22400
2020-12-18 20:45 9.02 173 22400 (2016) 50 (2013) 3400 50 189 238 453 3060 5050 22400
2020-12-18 19:45 8.93 157 22400 (2016) 50 (2013) 3400 50 189 238 453 3060 5050 22400
2020-12-18 18:45 8.93 157 22400 (2016) 50 (2013) 3400 50 189 238 453 3060 5050 22400
2020-12-18 17:45 8.88 148 22400 (2016) 50 (2013) 3400 50 189 238 453 3060 5050 22400
2020-12-18 16:45 8.87 147 22400 (2016) 50 (2013) 3400 50 189 238 453 3060 5050 22400
2020-12-18 15:45 8.87 147 22400 (2016) 50 (2013) 3400 50 189 238 453 3060 5050 22400
2020-12-18 14:45 8.87 147 22400 (2016) 50 (2013) 3400 50 189 238 453 3060 5050 22400
2020-12-18 13:45 8.95 160 22400 (2016) 50 (2013) 3400 50 189 238 453 3060 5050 22400
2020-12-18 12:45 9.00 169 22400 (2016) 50 (2013) 3400 50 189 238 453 3060 5050 22400
2020-12-18 11:45 9.05 178 22400 (2016) 50 (2013) 3400 50 189 238 453 3060 5050 22400
2020-12-18 10:45 9.09 186 22400 (2016) 50 (2013) 3400 50 189 238 453 3060 5050 22400
2020-12-18 09:45 9.17 201 22400 (2016) 50 (2013) 3400 50 189 238 453 3060 5050 22400
2020-12-18 08:45 9.15 197 22400 (2016) 50 (2013) 3400 50 189 238 453 3060 5050 22400
2020-12-18 07:45 9.17 201 22400 (2016) 50 (2013) 3400 50 189 238 453 3060 5050 22400
2020-12-18 06:45 9.11 190 22400 (2016) 50 (2013) 3400 50 189 238 453 3060 5050 22400
2020-12-18 05:45 9.10 188 22400 (2016) 50 (2013) 3400 50 189 238 453 3060 5050 22400
2020-12-18 04:45 9.07 182 22400 (2016) 50 (2013) 3400 50 189 238 453 3060 5050 22400
2020-12-18 03:45 9.05 178 22400 (2016) 50 (2013) 3400 50 189 238 453 3060 5050 22400
2020-12-18 02:45 9.04 176 22400 (2016) 50 (2013) 3400 50 189 238 453 3060 5050 22400
2020-12-18 01:45 9.05 178 22400 (2016) 50 (2013) 3400 50 189 238 453 3060 5050 22400
2020-12-18 00:45 9.08 184 22400 (2016) 50 (2013) 3400 50 189 238 453 3060 5050 22400
2020-12-17 23:45 9.11 190 23800 (2016) 50 (2013) 3780 50 170 225 398 4070 6510 23800
2020-12-17 22:45 9.13 193 23800 (2016) 50 (2013) 3780 50 170 225 398 4070 6510 23800
2020-12-17 21:45 9.16 199 23800 (2016) 50 (2013) 3780 50 170 225 398 4070 6510 23800
2020-12-17 20:45 9.19 205 23800 (2016) 50 (2013) 3780 50 170 225 398 4070 6510 23800
2020-12-17 19:45 9.22 211 23800 (2016) 50 (2013) 3780 50 170 225 398 4070 6510 23800
2020-12-17 18:45 9.20 207 23800 (2016) 50 (2013) 3780 50 170 225 398 4070 6510 23800
2020-12-17 17:45 9.14 195 23800 (2016) 50 (2013) 3780 50 170 225 398 4070 6510 23800
2020-12-17 16:45 9.04 176 23800 (2016) 50 (2013) 3780 50 170 225 398 4070 6510 23800
2020-12-17 15:45 8.91 153 23800 (2016) 50 (2013) 3780 50 170 225 398 4070 6510 23800
2020-12-17 14:45 8.85 144 23800 (2016) 50 (2013) 3780 50 170 225 398 4070 6510 23800
2020-12-17 13:45 8.90 152 23800 (2016) 50 (2013) 3780 50 170 225 398 4070 6510 23800
2020-12-17 12:45 8.92 155 23800 (2016) 50 (2013) 3780 50 170 225 398 4070 6510 23800
2020-12-17 11:45 9.09 186 23800 (2016) 50 (2013) 3780 50 170 225 398 4070 6510 23800
2020-12-17 10:45 9.17 201 23800 (2016) 50 (2013) 3780 50 170 225 398 4070 6510 23800
2020-12-17 09:45 9.22 211 23800 (2016) 50 (2013) 3780 50 170 225 398 4070 6510 23800
2020-12-17 08:45 9.25 218 23800 (2016) 50 (2013) 3780 50 170 225 398 4070 6510 23800
2020-12-17 07:45 9.27 222 23800 (2016) 50 (2013) 3780 50 170 225 398 4070 6510 23800
2020-12-17 06:45 9.26 220 23800 (2016) 50 (2013) 3780 50 170 225 398 4070 6510 23800
2020-12-17 05:45 9.23 214 23800 (2016) 50 (2013) 3780 50 170 225 398 4070 6510 23800
2020-12-17 04:45 9.20 207 23800 (2016) 50 (2013) 3780 50 170 225 398 4070 6510 23800
2020-12-17 03:45 9.19 205 23800 (2016) 50 (2013) 3780 50 170 225 398 4070 6510 23800
2020-12-17 02:45 9.18 203 23800 (2016) 50 (2013) 3780 50 170 225 398 4070 6510 23800
2020-12-17 01:45 9.15 197 23800 (2016) 50 (2013) 3780 50 170 225 398 4070 6510 23800
2020-12-17 00:45 9.13 193 23800 (2016) 50 (2013) 3780 50 170 225 398 4070 6510 23800
2020-12-16 23:45 9.10 188 20800 (2016) 50 (2013) 3340 50 163 200 308 3750 5570 20800
2020-12-16 22:45 9.13 193 20800 (2016) 50 (2013) 3340 50 163 200 308 3750 5570 20800
2020-12-16 21:45 9.17 201 20800 (2016) 50 (2013) 3340 50 163 200 308 3750 5570 20800
2020-12-16 20:45 9.22 211 20800 (2016) 50 (2013) 3340 50 163 200 308 3750 5570 20800
2020-12-16 19:45 9.27 222 20800 (2016) 50 (2013) 3340 50 163 200 308 3750 5570 20800
2020-12-16 18:45 9.27 222 20800 (2016) 50 (2013) 3340 50 163 200 308 3750 5570 20800
2020-12-16 17:45 9.23 214 20800 (2016) 50 (2013) 3340 50 163 200 308 3750 5570 20800
2020-12-16 16:45 9.18 203 20800 (2016) 50 (2013) 3340 50 163 200 308 3750 5570 20800
2020-12-16 15:45 9.12 192 20800 (2016) 50 (2013) 3340 50 163 200 308 3750 5570 20800
2020-12-16 14:45 9.08 184 20800 (2016) 50 (2013) 3340 50 163 200 308 3750 5570 20800
2020-12-16 13:45 9.02 173 20800 (2016) 50 (2013) 3340 50 163 200 308 3750 5570 20800
2020-12-16 12:45 9.06 180 20800 (2016) 50 (2013) 3340 50 163 200 308 3750 5570 20800
2020-12-16 11:45 9.13 193 20800 (2016) 50 (2013) 3340 50 163 200 308 3750 5570 20800
2020-12-16 10:45 9.15 197 20800 (2016) 50 (2013) 3340 50 163 200 308 3750 5570 20800
2020-12-16 09:45 9.17 201 20800 (2016) 50 (2013) 3340 50 163 200 308 3750 5570 20800
2020-12-16 08:45 9.24 216 20800 (2016) 50 (2013) 3340 50 163 200 308 3750 5570 20800
2020-12-16 07:45 9.27 222 20800 (2016) 50 (2013) 3340 50 163 200 308 3750 5570 20800
2020-12-16 06:45 9.29 227 20800 (2016) 50 (2013) 3340 50 163 200 308 3750 5570 20800
2020-12-16 05:45 9.27 222 20800 (2016) 50 (2013) 3340 50 163 200 308 3750 5570 20800
2020-12-16 04:45 9.28 225 20800 (2016) 50 (2013) 3340 50 163 200 308 3750 5570 20800
2020-12-16 03:45 9.22 211 20800 (2016) 50 (2013) 3340 50 163 200 308 3750 5570 20800
2020-12-16 02:45 9.13 193 20800 (2016) 50 (2013) 3340 50 163 200 308 3750 5570 20800
2020-12-16 01:45 9.10 188 20800 (2016) 50 (2013) 3340 50 163 200 308 3750 5570 20800
2020-12-16 00:45 9.09 186 20800 (2016) 50 (2013) 3340 50 163 200 308 3750 5570 20800
2020-12-15 23:45 9.12 192 17900 (2016) 50 (2013) 2630 50 137 150 281 2060 2220 17900
2020-12-15 22:45 9.21 209 17900 (2016) 50 (2013) 2630 50 137 150 281 2060 2220 17900
2020-12-15 21:45 9.30 229 17900 (2016) 50 (2013) 2630 50 137 150 281 2060 2220 17900
2020-12-15 20:45 9.38 249 17900 (2016) 50 (2013) 2630 50 137 150 281 2060 2220 17900
2020-12-15 19:45 9.41 256 17900 (2016) 50 (2013) 2630 50 137 150 281 2060 2220 17900
2020-12-15 18:45 9.39 251 17900 (2016) 50 (2013) 2630 50 137 150 281 2060 2220 17900
2020-12-15 17:45 9.30 229 17900 (2016) 50 (2013) 2630 50 137 150 281 2060 2220 17900
2020-12-15 16:45 9.21 209 17900 (2016) 50 (2013) 2630 50 137 150 281 2060 2220 17900
2020-12-15 15:45 9.15 197 17900 (2016) 50 (2013) 2630 50 137 150 281 2060 2220 17900
2020-12-15 14:45 9.16 199 17900 (2016) 50 (2013) 2630 50 137 150 281 2060 2220 17900
2020-12-15 13:45 9.22 211 17900 (2016) 50 (2013) 2630 50 137 150 281 2060 2220 17900
2020-12-15 12:45 9.28 225 17900 (2016) 50 (2013) 2630 50 137 150 281 2060 2220 17900
2020-12-15 11:45 9.36 244 17900 (2016) 50 (2013) 2630 50 137 150 281 2060 2220 17900
2020-12-15 10:45 9.34 239 17900 (2016) 50 (2013) 2630 50 137 150 281 2060 2220 17900
2020-12-15 09:45 9.34 239 17900 (2016) 50 (2013) 2630 50 137 150 281 2060 2220 17900
2020-12-15 08:45 9.36 244 17900 (2016) 50 (2013) 2630 50 137 150 281 2060 2220 17900
2020-12-15 07:45 9.42 259 17900 (2016) 50 (2013) 2630 50 137 150 281 2060 2220 17900
2020-12-15 06:45 9.44 264 17900 (2016) 50 (2013) 2630 50 137 150 281 2060 2220 17900
2020-12-15 05:45 9.47 272 17900 (2016) 50 (2013) 2630 50 137 150 281 2060 2220 17900
2020-12-15 04:45 9.46 269 17900 (2016) 50 (2013) 2630 50 137 150 281 2060 2220 17900
2020-12-15 03:45 9.44 264 17900 (2016) 50 (2013) 2630 50 137 150 281 2060 2220 17900
2020-12-15 02:45 9.40 254 17900 (2016) 50 (2013) 2630 50 137 150 281 2060 2220 17900
2020-12-15 01:45 9.35 241 17900 (2016) 50 (2013) 2630 50 137 150 281 2060 2220 17900
2020-12-15 00:45 9.32 234 17900 (2016) 50 (2013) 2630 50 137 150 281 2060 2220 17900
2020-12-14 23:45 9.29 227 15600 (2016) 50 (2013) 2310 50 95 122 313 1800 2780 15600
2020-12-14 22:45 9.30 229 15600 (2016) 50 (2013) 2310 50 95 122 313 1800 2780 15600
2020-12-14 21:45 9.32 234 15600 (2016) 50 (2013) 2310 50 95 122 313 1800 2780 15600
2020-12-14 20:45 9.38 249 15600 (2016) 50 (2013) 2310 50 95 122 313 1800 2780 15600
2020-12-14 19:45 9.45 266 15600 (2016) 50 (2013) 2310 50 95 122 313 1800 2780 15600
2020-12-14 18:45 9.49 277 15600 (2016) 50 (2013) 2310 50 95 122 313 1800 2780 15600
2020-12-14 17:45 9.47 272 15600 (2016) 50 (2013) 2310 50 95 122 313 1800 2780 15600
2020-12-14 16:45 9.41 256 15600 (2016) 50 (2013) 2310 50 95 122 313 1800 2780 15600
2020-12-14 15:45 9.31 232 15600 (2016) 50 (2013) 2310 50 95 122 313 1800 2780 15600
2020-12-14 14:45 9.23 214 15600 (2016) 50 (2013) 2310 50 95 122 313 1800 2780 15600
2020-12-14 13:45 9.17 939 15600 (2016) 50 (2013) 2310 50 95 122 313 1800 2780 15600
2020-12-14 12:45 9.18 945 15600 (2016) 50 (2013) 2310 50 95 122 313 1800 2780 15600
2020-12-14 11:45 9.24 984 15600 (2016) 50 (2013) 2310 50 95 122 313 1800 2780 15600
2020-12-14 10:45 9.31 1030 15600 (2016) 50 (2013) 2310 50 95 122 313 1800 2780 15600
2020-12-14 09:45 9.32 1040 15600 (2016) 50 (2013) 2310 50 95 122 313 1800 2780 15600
2020-12-14 08:45 9.34 1050 15600 (2016) 50 (2013) 2310 50 95 122 313 1800 2780 15600
2020-12-14 07:45 9.37 1070 15600 (2016) 50 (2013) 2310 50 95 122 313 1800 2780 15600
2020-12-14 06:45 9.39 1080 15600 (2016) 50 (2013) 2310 50 95 122 313 1800 2780 15600
2020-12-14 05:45 9.43 1110 15600 (2016) 50 (2013) 2310 50 95 122 313 1800 2780 15600
2020-12-14 04:45 9.44 1120 15600 (2016) 50 (2013) 2310 50 95 122 313 1800 2780 15600
2020-12-14 03:45 9.44 1120 15600 (2016) 50 (2013) 2310 50 95 122 313 1800 2780 15600
2020-12-14 02:45 9.44 1120 15600 (2016) 50 (2013) 2310 50 95 122 313 1800 2780 15600
2020-12-14 01:45 9.40 1090 15600 (2016) 50 (2013) 2310 50 95 122 313 1800 2780 15600
2020-12-14 00:45 9.37 1070 15600 (2016) 50 (2013) 2310 50 95 122 313 1800 2780 15600
2020-12-13 23:45 9.32 1040 7740 (2016) 50 (2013) 1440 50 53 74 260 1870 2870 7740
2020-12-13 22:45 9.31 1030 7740 (2016) 50 (2013) 1440 50 53 74 260 1870 2870 7740
2020-12-13 21:45 9.34 1050 7740 (2016) 50 (2013) 1440 50 53 74 260 1870 2870 7740
2020-12-13 20:45 9.38 1080 7740 (2016) 50 (2013) 1440 50 53 74 260 1870 2870 7740
2020-12-13 19:45 9.43 1110 7740 (2016) 50 (2013) 1440 50 53 74 260 1870 2870 7740
2020-12-13 18:45 9.43 1110 7740 (2016) 50 (2013) 1440 50 53 74 260 1870 2870 7740
2020-12-13 17:45 9.41 1100 7740 (2016) 50 (2013) 1440 50 53 74 260 1870 2870 7740
2020-12-13 16:45 9.36 1060 7740 (2016) 50 (2013) 1440 50 53 74 260 1870 2870 7740
2020-12-13 15:45 9.34 1050 7740 (2016) 50 (2013) 1440 50 53 74 260 1870 2870 7740
2020-12-13 14:45 9.34 1050 7740 (2016) 50 (2013) 1440 50 53 74 260 1870 2870 7740
2020-12-13 13:45 9.33 1040 7740 (2016) 50 (2013) 1440 50 53 74 260 1870 2870 7740
2020-12-13 12:45 9.34 1050 7740 (2016) 50 (2013) 1440 50 53 74 260 1870 2870 7740
2020-12-13 11:45 9.36 1060 7740 (2016) 50 (2013) 1440 50 53 74 260 1870 2870 7740
2020-12-13 10:45 9.38 1080 7740 (2016) 50 (2013) 1440 50 53 74 260 1870 2870 7740
2020-12-13 09:45 9.40 1090 7740 (2016) 50 (2013) 1440 50 53 74 260 1870 2870 7740
2020-12-13 08:45 9.41 1100 7740 (2016) 50 (2013) 1440 50 53 74 260 1870 2870 7740
2020-12-13 07:45 9.42 1110 7740 (2016) 50 (2013) 1440 50 53 74 260 1870 2870 7740
2020-12-13 06:45 9.41 1100 7740 (2016) 50 (2013) 1440 50 53 74 260 1870 2870 7740
2020-12-13 05:45 9.40 1090 7740 (2016) 50 (2013) 1440 50 53 74 260 1870 2870 7740
2020-12-13 04:45 9.38 1080 7740 (2016) 50 (2013) 1440 50 53 74 260 1870 2870 7740
2020-12-13 03:45 9.38 1080 7740 (2016) 50 (2013) 1440 50 53 74 260 1870 2870 7740
2020-12-13 02:45 9.37 1070 7740 (2016) 50 (2013) 1440 50 53 74 260 1870 2870 7740
2020-12-13 01:45 9.36 1060 7740 (2016) 50 (2013) 1440 50 53 74 260 1870 2870 7740
2020-12-13 00:45 9.34 1050 7740 (2016) 50 (2013) 1440 50 53 74 260 1870 2870 7740
2020-12-12 23:45 9.31 1030 2580 (2019) 50 (2013) 776 50 66 75 323 1350 1710 2580
2020-12-12 22:45 9.28 1010 2580 (2019) 50 (2013) 776 50 66 75 323 1350 1710 2580
2020-12-12 21:45 9.29 1020 2580 (2019) 50 (2013) 776 50 66 75 323 1350 1710 2580
2020-12-12 20:45 9.30 1020 2580 (2019) 50 (2013) 776 50 66 75 323 1350 1710 2580
2020-12-12 19:45 9.32 1040 2580 (2019) 50 (2013) 776 50 66 75 323 1350 1710 2580
2020-12-12 18:45 9.34 1050 2580 (2019) 50 (2013) 776 50 66 75 323 1350 1710 2580
2020-12-12 17:45 9.37 1070 2580 (2019) 50 (2013) 776 50 66 75 323 1350 1710 2580
2020-12-12 16:45 9.39 1080 2580 (2019) 50 (2013) 776 50 66 75 323 1350 1710 2580
2020-12-12 15:45 9.38 1080 2580 (2019) 50 (2013) 776 50 66 75 323 1350 1710 2580
2020-12-12 14:45 9.34 1050 2580 (2019) 50 (2013) 776 50 66 75 323 1350 1710 2580
2020-12-12 13:45 9.30 1020 2580 (2019) 50 (2013) 776 50 66 75 323 1350 1710 2580
2020-12-12 12:45 9.25 990 2580 (2019) 50 (2013) 776 50 66 75 323 1350 1710 2580
2020-12-12 11:45 9.21 965 2580 (2019) 50 (2013) 776 50 66 75 323 1350 1710 2580
2020-12-12 10:45 9.17 939 2580 (2019) 50 (2013) 776 50 66 75 323 1350 1710 2580
2020-12-12 09:45 9.17 939 2580 (2019) 50 (2013) 776 50 66 75 323 1350 1710 2580
2020-12-12 08:45 9.14 920 2580 (2019) 50 (2013) 776 50 66 75 323 1350 1710 2580
2020-12-12 07:45 9.18 945 2580 (2019) 50 (2013) 776 50 66 75 323 1350 1710 2580
2020-12-12 06:45 9.18 945 2580 (2019) 50 (2013) 776 50 66 75 323 1350 1710 2580
2020-12-12 05:45 9.20 958 2580 (2019) 50 (2013) 776 50 66 75 323 1350 1710 2580
2020-12-12 04:45 9.22 971 2580 (2019) 50 (2013) 776 50 66 75 323 1350 1710 2580
2020-12-12 03:45 9.24 984 2580 (2019) 50 (2013) 776 50 66 75 323 1350 1710 2580
2020-12-12 02:45 9.27 1000 2580 (2019) 50 (2013) 776 50 66 75 323 1350 1710 2580
2020-12-12 01:45 9.31 1030 2580 (2019) 50 (2013) 776 50 66 75 323 1350 1710 2580
2020-12-12 00:45 9.31 1030 2580 (2019) 50 (2013) 776 50 66 75 323 1350 1710 2580
2020-12-11 23:45 9.28 1010 2640 (2019) 50 (2013) 810 50 78 85 267 1440 1770 2640
2020-12-11 22:45 9.23 977 2640 (2019) 50 (2013) 810 50 78 85 267 1440 1770 2640
2020-12-11 21:45 9.22 971 2640 (2019) 50 (2013) 810 50 78 85 267 1440 1770 2640
2020-12-11 20:45 9.19 952 2640 (2019) 50 (2013) 810 50 78 85 267 1440 1770 2640
2020-12-11 19:45 9.20 958 2640 (2019) 50 (2013) 810 50 78 85 267 1440 1770 2640
2020-12-11 18:45 9.24 984 2640 (2019) 50 (2013) 810 50 78 85 267 1440 1770 2640
2020-12-11 17:45 9.26 997 2640 (2019) 50 (2013) 810 50 78 85 267 1440 1770 2640
2020-12-11 16:45 9.27 1000 2640 (2019) 50 (2013) 810 50 78 85 267 1440 1770 2640
2020-12-11 15:45 9.27 1000 2640 (2019) 50 (2013) 810 50 78 85 267 1440 1770 2640
2020-12-11 14:45 9.29 1020 2640 (2019) 50 (2013) 810 50 78 85 267 1440 1770 2640
2020-12-11 13:45 9.31 1030 2640 (2019) 50 (2013) 810 50 78 85 267 1440 1770 2640
2020-12-11 12:45 9.31 1030 2640 (2019) 50 (2013) 810 50 78 85 267 1440 1770 2640
2020-12-11 11:45 9.32 1040 2640 (2019) 50 (2013) 810 50 78 85 267 1440 1770 2640
2020-12-11 10:45 9.29 1020 2640 (2019) 50 (2013) 810 50 78 85 267 1440 1770 2640
2020-12-11 09:45 9.25 990 2640 (2019) 50 (2013) 810 50 78 85 267 1440 1770 2640
2020-12-11 08:45 9.24 984 2640 (2019) 50 (2013) 810 50 78 85 267 1440 1770 2640
2020-12-11 07:45 9.25 990 2640 (2019) 50 (2013) 810 50 78 85 267 1440 1770 2640
2020-12-11 06:45 9.24 984 2640 (2019) 50 (2013) 810 50 78 85 267 1440 1770 2640
2020-12-11 05:45 9.25 990 2640 (2019) 50 (2013) 810 50 78 85 267 1440 1770 2640
2020-12-11 04:45 9.27 1000 2640 (2019) 50 (2013) 810 50 78 85 267 1440 1770 2640
2020-12-11 03:45 9.28 1010 2640 (2019) 50 (2013) 810 50 78 85 267 1440 1770 2640
2020-12-11 02:45 9.28 1010 2640 (2019) 50 (2013) 810 50 78 85 267 1440 1770 2640
2020-12-11 01:45 9.28 1010 2640 (2019) 50 (2013) 810 50 78 85 267 1440 1770 2640
2020-12-11 00:45 9.28 1010 2640 (2019) 50 (2013) 810 50 78 85 267 1440 1770 2640
2020-12-10 23:45 9.28 1010 3130 (2019) 50 (2013) 932 50 50 89 243 1690 2000 3130
2020-12-10 22:45 9.25 990 3130 (2019) 50 (2013) 932 50 50 89 243 1690 2000 3130
2020-12-10 21:45 9.25 990 3130 (2019) 50 (2013) 932 50 50 89 243 1690 2000 3130
2020-12-10 20:45 9.23 977 3130 (2019) 50 (2013) 932 50 50 89 243 1690 2000 3130
2020-12-10 19:45 9.23 977 3130 (2019) 50 (2013) 932 50 50 89 243 1690 2000 3130
2020-12-10 18:45 9.22 971 3130 (2019) 50 (2013) 932 50 50 89 243 1690 2000 3130
2020-12-10 17:45 9.21 965 3130 (2019) 50 (2013) 932 50 50 89 243 1690 2000 3130
2020-12-10 16:45 9.23 977 3130 (2019) 50 (2013) 932 50 50 89 243 1690 2000 3130
2020-12-10 15:45 9.24 984 3130 (2019) 50 (2013) 932 50 50 89 243 1690 2000 3130
2020-12-10 14:45 9.26 997 3130 (2019) 50 (2013) 932 50 50 89 243 1690 2000 3130
2020-12-10 13:45 9.26 997 3130 (2019) 50 (2013) 932 50 50 89 243 1690 2000 3130
2020-12-10 12:45 9.26 997 3130 (2019) 50 (2013) 932 50 50 89 243 1690 2000 3130
2020-12-10 11:45 9.26 997 3130 (2019) 50 (2013) 932 50 50 89 243 1690 2000 3130
2020-12-10 10:45 9.26 997 3130 (2019) 50 (2013) 932 50 50 89 243 1690 2000 3130
2020-12-10 09:45 9.25 990 3130 (2019) 50 (2013) 932 50 50 89 243 1690 2000 3130
2020-12-10 08:45 9.24 984 3130 (2019) 50 (2013) 932 50 50 89 243 1690 2000 3130
2020-12-10 07:45 9.23 977 3130 (2019) 50 (2013) 932 50 50 89 243 1690 2000 3130
2020-12-10 06:45 9.22 971 3130 (2019) 50 (2013) 932 50 50 89 243 1690 2000 3130
2020-12-10 05:45 9.21 965 3130 (2019) 50 (2013) 932 50 50 89 243 1690 2000 3130
2020-12-10 04:45 9.21 965 3130 (2019) 50 (2013) 932 50 50 89 243 1690 2000 3130
2020-12-10 03:45 9.22 971 3130 (2019) 50 (2013) 932 50 50 89 243 1690 2000 3130
2020-12-10 02:45 9.23 977 3130 (2019) 50 (2013) 932 50 50 89 243 1690 2000 3130
2020-12-10 01:45 9.24 984 3130 (2019) 50 (2013) 932 50 50 89 243 1690 2000 3130
2020-12-10 00:45 9.24 984 3130 (2019) 50 (2013) 932 50 50 89 243 1690 2000 3130
2020-12-09 23:45 9.25 990 3600 (2019) 50 (2013) 1110 50 50 104 276 2190 2340 3600
2020-12-09 22:45 9.26 997 3600 (2019) 50 (2013) 1110 50 50 104 276 2190 2340 3600
2020-12-09 21:45 9.26 997 3600 (2019) 50 (2013) 1110 50 50 104 276 2190 2340 3600
2020-12-09 20:45 9.25 990 3600 (2019) 50 (2013) 1110 50 50 104 276 2190 2340 3600
2020-12-09 19:45 9.23 977 3600 (2019) 50 (2013) 1110 50 50 104 276 2190 2340 3600
2020-12-09 18:45 9.21 965 3600 (2019) 50 (2013) 1110 50 50 104 276 2190 2340 3600
2020-12-09 17:45 9.18 945 3600 (2019) 50 (2013) 1110 50 50 104 276 2190 2340 3600
2020-12-09 16:45 9.16 933 3600 (2019) 50 (2013) 1110 50 50 104 276 2190 2340 3600
2020-12-09 15:45 9.16 933 3600 (2019) 50 (2013) 1110 50 50 104 276 2190 2340 3600
2020-12-09 14:45 9.16 933 3600 (2019) 50 (2013) 1110 50 50 104 276 2190 2340 3600
2020-12-09 13:45 9.17 939 3600 (2019) 50 (2013) 1110 50 50 104 276 2190 2340 3600
2020-12-09 12:45 9.17 939 3600 (2019) 50 (2013) 1110 50 50 104 276 2190 2340 3600
2020-12-09 11:45 9.18 945 3600 (2019) 50 (2013) 1110 50 50 104 276 2190 2340 3600
2020-12-09 10:45 9.19 952 3600 (2019) 50 (2013) 1110 50 50 104 276 2190 2340 3600
2020-12-09 09:45 9.20 958 3600 (2019) 50 (2013) 1110 50 50 104 276 2190 2340 3600
2020-12-09 08:45 9.20 958 3600 (2019) 50 (2013) 1110 50 50 104 276 2190 2340 3600
2020-12-09 07:45 9.20 958 3600 (2019) 50 (2013) 1110 50 50 104 276 2190 2340 3600
2020-12-09 06:45 9.19 952 3600 (2019) 50 (2013) 1110 50 50 104 276 2190 2340 3600
2020-12-09 05:45 9.16 933 3600 (2019) 50 (2013) 1110 50 50 104 276 2190 2340 3600
2020-12-09 04:45 9.14 920 3600 (2019) 50 (2013) 1110 50 50 104 276 2190 2340 3600
2020-12-09 03:45 9.15 927 3600 (2019) 50 (2013) 1110 50 50 104 276 2190 2340 3600
2020-12-09 02:45 9.15 927 3600 (2019) 50 (2013) 1110 50 50 104 276 2190 2340 3600
2020-12-09 01:45 9.17 939 3600 (2019) 50 (2013) 1110 50 50 104 276 2190 2340 3600
2020-12-09 00:45 9.19 952 3600 (2019) 50 (2013) 1110 50 50 104 276 2190 2340 3600
2020-12-08 23:45 9.19 952 3880 (2019) 50 (2013) 1370 50 67 106 383 3040 3340 3880
2020-12-08 22:45 9.20 958 3880 (2019) 50 (2013) 1370 50 67 106 383 3040 3340 3880
2020-12-08 21:45 9.19 952 3880 (2019) 50 (2013) 1370 50 67 106 383 3040 3340 3880
2020-12-08 20:45 9.18 945 3880 (2019) 50 (2013) 1370 50 67 106 383 3040 3340 3880
2020-12-08 19:45 9.18 945 3880 (2019) 50 (2013) 1370 50 67 106 383 3040 3340 3880
2020-12-08 18:45 9.15 927 3880 (2019) 50 (2013) 1370 50 67 106 383 3040 3340 3880
2020-12-08 17:45 9.14 920 3880 (2019) 50 (2013) 1370 50 67 106 383 3040 3340 3880
2020-12-08 16:45 9.14 920 3880 (2019) 50 (2013) 1370 50 67 106 383 3040 3340 3880
2020-12-08 15:45 9.14 920 3880 (2019) 50 (2013) 1370 50 67 106 383 3040 3340 3880
2020-12-08 14:45 9.15 927 3880 (2019) 50 (2013) 1370 50 67 106 383 3040 3340 3880
2020-12-08 13:45 9.17 939 3880 (2019) 50 (2013) 1370 50 67 106 383 3040 3340 3880
2020-12-08 12:45 9.14 920 3880 (2019) 50 (2013) 1370 50 67 106 383 3040 3340 3880
2020-12-08 11:45 9.14 920 3880 (2019) 50 (2013) 1370 50 67 106 383 3040 3340 3880
2020-12-08 10:45 9.18 945 3880 (2019) 50 (2013) 1370 50 67 106 383 3040 3340 3880
2020-12-08 09:45 9.19 952 3880 (2019) 50 (2013) 1370 50 67 106 383 3040 3340 3880
2020-12-08 08:45 9.19 952 3880 (2019) 50 (2013) 1370 50 67 106 383 3040 3340 3880
2020-12-08 07:45 9.19 952 3880 (2019) 50 (2013) 1370 50 67 106 383 3040 3340 3880
2020-12-08 06:45 9.17 939 3880 (2019) 50 (2013) 1370 50 67 106 383 3040 3340 3880
2020-12-08 05:45 9.17 939 3880 (2019) 50 (2013) 1370 50 67 106 383 3040 3340 3880
2020-12-08 04:45 9.17 939 3880 (2019) 50 (2013) 1370 50 67 106 383 3040 3340 3880
2020-12-08 03:45 9.16 933 3880 (2019) 50 (2013) 1370 50 67 106 383 3040 3340 3880
2020-12-08 02:45 9.14 920 3880 (2019) 50 (2013) 1370 50 67 106 383 3040 3340 3880
2020-12-08 01:45 9.14 920 3880 (2019) 50 (2013) 1370 50 67 106 383 3040 3340 3880
2020-12-08 00:45 9.14 920 3880 (2019) 50 (2013) 1370 50 67 106 383 3040 3340 3880
2020-12-07 23:45 9.15 927 4960 (2015) 50 (2013) 1680 50 92 114 566 3610 3800 4960
2020-12-07 22:45 9.15 927 4960 (2015) 50 (2013) 1680 50 92 114 566 3610 3800 4960
2020-12-07 21:45 9.20 958 4960 (2015) 50 (2013) 1680 50 92 114 566 3610 3800 4960
2020-12-07 20:45 9.25 990 4960 (2015) 50 (2013) 1680 50 92 114 566 3610 3800 4960
2020-12-07 19:45 9.29 1020 4960 (2015) 50 (2013) 1680 50 92 114 566 3610 3800 4960
2020-12-07 18:45 9.30 1020 4960 (2015) 50 (2013) 1680 50 92 114 566 3610 3800 4960
2020-12-07 17:45 9.23 977 4960 (2015) 50 (2013) 1680 50 92 114 566 3610 3800 4960
2020-12-07 16:45 9.11 902 4960 (2015) 50 (2013) 1680 50 92 114 566 3610 3800 4960
2020-12-07 15:45 9.02 848 4960 (2015) 50 (2013) 1680 50 92 114 566 3610 3800 4960
2020-12-07 14:45 8.92 790 4960 (2015) 50 (2013) 1680 50 92 114 566 3610 3800 4960
2020-12-07 13:45 9.01 842 4960 (2015) 50 (2013) 1680 50 92 114 566 3610 3800 4960
2020-12-07 12:45 9.09 890 4960 (2015) 50 (2013) 1680 50 92 114 566 3610 3800 4960
2020-12-07 11:45 9.17 939 4960 (2015) 50 (2013) 1680 50 92 114 566 3610 3800 4960
2020-12-07 10:45 9.23 977 4960 (2015) 50 (2013) 1680 50 92 114 566 3610 3800 4960
2020-12-07 09:45 9.25 990 4960 (2015) 50 (2013) 1680 50 92 114 566 3610 3800 4960
2020-12-07 08:45 9.26 997 4960 (2015) 50 (2013) 1680 50 92 114 566 3610 3800 4960
2020-12-07 07:45 9.26 997 4960 (2015) 50 (2013) 1680 50 92 114 566 3610 3800 4960
2020-12-07 06:45 9.23 977 4960 (2015) 50 (2013) 1680 50 92 114 566 3610 3800 4960
2020-12-07 05:45 9.22 971 4960 (2015) 50 (2013) 1680 50 92 114 566 3610 3800 4960
2020-12-07 04:45 9.20 958 4960 (2015) 50 (2013) 1680 50 92 114 566 3610 3800 4960
2020-12-07 03:45 9.18 945 4960 (2015) 50 (2013) 1680 50 92 114 566 3610 3800 4960
2020-12-07 02:45 9.17 939 4960 (2015) 50 (2013) 1680 50 92 114 566 3610 3800 4960
2020-12-07 01:45 9.17 939 4960 (2015) 50 (2013) 1680 50 92 114 566 3610 3800 4960
2020-12-07 00:45 9.18 945 4960 (2015) 50 (2013) 1680 50 92 114 566 3610 3800 4960
2020-12-06 23:45 9.18 945 5460 (2016) 50 (2013) 1690 50 50 91 356 3370 3530 5460
2020-12-06 22:45 9.19 952 5460 (2016) 50 (2013) 1690 50 50 91 356 3370 3530 5460
2020-12-06 21:45 9.20 958 5460 (2016) 50 (2013) 1690 50 50 91 356 3370 3530 5460
2020-12-06 20:45 9.21 965 5460 (2016) 50 (2013) 1690 50 50 91 356 3370 3530 5460
2020-12-06 19:45 9.23 977 5460 (2016) 50 (2013) 1690 50 50 91 356 3370 3530 5460
2020-12-06 18:45 9.25 990 5460 (2016) 50 (2013) 1690 50 50 91 356 3370 3530 5460
2020-12-06 17:45 9.25 990 5460 (2016) 50 (2013) 1690 50 50 91 356 3370 3530 5460
2020-12-06 16:45 9.25 990 5460 (2016) 50 (2013) 1690 50 50 91 356 3370 3530 5460
2020-12-06 15:45 9.21 965 5460 (2016) 50 (2013) 1690 50 50 91 356 3370 3530 5460
2020-12-06 14:45 9.23 977 5460 (2016) 50 (2013) 1690 50 50 91 356 3370 3530 5460
2020-12-06 13:45 9.18 945 5460 (2016) 50 (2013) 1690 50 50 91 356 3370 3530 5460
2020-12-06 12:45 9.17 939 5460 (2016) 50 (2013) 1690 50 50 91 356 3370 3530 5460
2020-12-06 11:45 9.18 945 5460 (2016) 50 (2013) 1690 50 50 91 356 3370 3530 5460
2020-12-06 10:45 9.16 933 5460 (2016) 50 (2013) 1690 50 50 91 356 3370 3530 5460
2020-12-06 09:45 9.21 965 5460 (2016) 50 (2013) 1690 50 50 91 356 3370 3530 5460
2020-12-06 08:45 9.22 971 5460 (2016) 50 (2013) 1690 50 50 91 356 3370 3530 5460
2020-12-06 07:45 9.20 958 5460 (2016) 50 (2013) 1690 50 50 91 356 3370 3530 5460
2020-12-06 06:45 9.18 945 5460 (2016) 50 (2013) 1690 50 50 91 356 3370 3530 5460
2020-12-06 05:45 9.15 927 5460 (2016) 50 (2013) 1690 50 50 91 356 3370 3530 5460
2020-12-06 04:45 9.14 920 5460 (2016) 50 (2013) 1690 50 50 91 356 3370 3530 5460
2020-12-06 03:45 9.13 914 5460 (2016) 50 (2013) 1690 50 50 91 356 3370 3530 5460
2020-12-06 02:45 9.14 920 5460 (2016) 50 (2013) 1690 50 50 91 356 3370 3530 5460
2020-12-06 01:45 9.15 927 5460 (2016) 50 (2013) 1690 50 50 91 356 3370 3530 5460
2020-12-06 00:45 9.18 945 5460 (2016) 50 (2013) 1690 50 50 91 356 3370 3530 5460
2020-12-05 23:45 9.20 958 9460 (2016) 50 (2013) 2110 50 50 93 330 4140 5540 9460
2020-12-05 22:45 9.20 958 9460 (2016) 50 (2013) 2110 50 50 93 330 4140 5540 9460
2020-12-05 21:45 9.20 958 9460 (2016) 50 (2013) 2110 50 50 93 330 4140 5540 9460
2020-12-05 20:45 9.19 952 9460 (2016) 50 (2013) 2110 50 50 93 330 4140 5540 9460
2020-12-05 19:45 9.18 945 9460 (2016) 50 (2013) 2110 50 50 93 330 4140 5540 9460
2020-12-05 18:45 9.16 933 9460 (2016) 50 (2013) 2110 50 50 93 330 4140 5540 9460
2020-12-05 17:45 9.13 914 9460 (2016) 50 (2013) 2110 50 50 93 330 4140 5540 9460
2020-12-05 16:45 9.11 902 9460 (2016) 50 (2013) 2110 50 50 93 330 4140 5540 9460
2020-12-05 15:45 9.07 877 9460 (2016) 50 (2013) 2110 50 50 93 330 4140 5540 9460
2020-12-05 14:45 9.09 890 9460 (2016) 50 (2013) 2110 50 50 93 330 4140 5540 9460
2020-12-05 13:45 9.07 877 9460 (2016) 50 (2013) 2110 50 50 93 330 4140 5540 9460
2020-12-05 12:45 9.13 914 9460 (2016) 50 (2013) 2110 50 50 93 330 4140 5540 9460
2020-12-05 11:45 9.13 914 9460 (2016) 50 (2013) 2110 50 50 93 330 4140 5540 9460
2020-12-05 10:45 9.18 945 9460 (2016) 50 (2013) 2110 50 50 93 330 4140 5540 9460
2020-12-05 09:45 9.19 952 9460 (2016) 50 (2013) 2110 50 50 93 330 4140 5540 9460
2020-12-05 08:45 9.19 952 9460 (2016) 50 (2013) 2110 50 50 93 330 4140 5540 9460
2020-12-05 07:45 9.18 945 9460 (2016) 50 (2013) 2110 50 50 93 330 4140 5540 9460
2020-12-05 06:45 9.15 927 9460 (2016) 50 (2013) 2110 50 50 93 330 4140 5540 9460
2020-12-05 05:45 9.12 908 9460 (2016) 50 (2013) 2110 50 50 93 330 4140 5540 9460
2020-12-05 04:45 9.09 890 9460 (2016) 50 (2013) 2110 50 50 93 330 4140 5540 9460
2020-12-05 03:45 9.08 883 9460 (2016) 50 (2013) 2110 50 50 93 330 4140 5540 9460
2020-12-05 02:45 9.07 877 9460 (2016) 50 (2013) 2110 50 50 93 330 4140 5540 9460
2020-12-05 01:45 9.07 877 9460 (2016) 50 (2013) 2110 50 50 93 330 4140 5540 9460
2020-12-05 00:45 9.10 896 9460 (2016) 50 (2013) 2110 50 50 93 330 4140 5540 9460
2020-12-04 23:45 9.14 920 17400 (2016) 50 (2013) 3470 50 64 84 155 6550 8940 17400
2020-12-04 22:45 9.18 945 17400 (2016) 50 (2013) 3470 50 64 84 155 6550 8940 17400
2020-12-04 21:45 9.22 971 17400 (2016) 50 (2013) 3470 50 64 84 155 6550 8940 17400
2020-12-04 20:45 9.23 977 17400 (2016) 50 (2013) 3470 50 64 84 155 6550 8940 17400
2020-12-04 19:45 9.21 965 17400 (2016) 50 (2013) 3470 50 64 84 155 6550 8940 17400
2020-12-04 18:45 9.16 933 17400 (2016) 50 (2013) 3470 50 64 84 155 6550 8940 17400
2020-12-04 17:45 9.09 890 17400 (2016) 50 (2013) 3470 50 64 84 155 6550 8940 17400
2020-12-04 16:45 9.01 842 17400 (2016) 50 (2013) 3470 50 64 84 155 6550 8940 17400
2020-12-04 15:45 8.95 807 17400 (2016) 50 (2013) 3470 50 64 84 155 6550 8940 17400
2020-12-04 14:45 8.94 801 17400 (2016) 50 (2013) 3470 50 64 84 155 6550 8940 17400
2020-12-04 13:45 9.01 842 17400 (2016) 50 (2013) 3470 50 64 84 155 6550 8940 17400
2020-12-04 12:45 9.07 877 17400 (2016) 50 (2013) 3470 50 64 84 155 6550 8940 17400
2020-12-04 11:45 9.10 896 17400 (2016) 50 (2013) 3470 50 64 84 155 6550 8940 17400
2020-12-04 10:45 9.09 890 17400 (2016) 50 (2013) 3470 50 64 84 155 6550 8940 17400
2020-12-04 09:45 9.10 896 17400 (2016) 50 (2013) 3470 50 64 84 155 6550 8940 17400
2020-12-04 08:45 9.10 896 17400 (2016) 50 (2013) 3470 50 64 84 155 6550 8940 17400
2020-12-04 07:45 9.13 914 17400 (2016) 50 (2013) 3470 50 64 84 155 6550 8940 17400
2020-12-04 06:45 9.17 939 17400 (2016) 50 (2013) 3470 50 64 84 155 6550 8940 17400
2020-12-04 05:45 9.19 952 17400 (2016) 50 (2013) 3470 50 64 84 155 6550 8940 17400
2020-12-04 04:45 9.17 939 17400 (2016) 50 (2013) 3470 50 64 84 155 6550 8940 17400
2020-12-04 03:45 9.15 927 17400 (2016) 50 (2013) 3470 50 64 84 155 6550 8940 17400
2020-12-04 02:45 9.08 883 17400 (2016) 50 (2013) 3470 50 64 84 155 6550 8940 17400
2020-12-04 01:45 9.04 859 17400 (2016) 50 (2013) 3470 50 64 84 155 6550 8940 17400
2020-12-04 00:45 9.04 859 17400 (2016) 50 (2013) 3470 50 64 84 155 6550 8940 17400
2020-12-03 23:45 9.08 883 20000 (2016) 50 (2013) 3980 50 97 113 180 7460 8540 20000
2020-12-03 22:45 9.16 933 20000 (2016) 50 (2013) 3980 50 97 113 180 7460 8540 20000
2020-12-03 21:45 9.20 958 20000 (2016) 50 (2013) 3980 50 97 113 180 7460 8540 20000
2020-12-03 20:45 9.19 952 20000 (2016) 50 (2013) 3980 50 97 113 180 7460 8540 20000
2020-12-03 19:45 9.18 945 20000 (2016) 50 (2013) 3980 50 97 113 180 7460 8540 20000
2020-12-03 18:45 9.15 927 20000 (2016) 50 (2013) 3980 50 97 113 180 7460 8540 20000
2020-12-03 17:45 9.12 908 20000 (2016) 50 (2013) 3980 50 97 113 180 7460 8540 20000
2020-12-03 16:45 9.13 914 20000 (2016) 50 (2013) 3980 50 97 113 180 7460 8540 20000
2020-12-03 15:45 9.15 927 20000 (2016) 50 (2013) 3980 50 97 113 180 7460 8540 20000
2020-12-03 14:45 9.15 927 20000 (2016) 50 (2013) 3980 50 97 113 180 7460 8540 20000
2020-12-03 13:45 9.18 945 20000 (2016) 50 (2013) 3980 50 97 113 180 7460 8540 20000
2020-12-03 12:45 9.18 945 20000 (2016) 50 (2013) 3980 50 97 113 180 7460 8540 20000
2020-12-03 11:45 9.18 945 20000 (2016) 50 (2013) 3980 50 97 113 180 7460 8540 20000
2020-12-03 10:45 9.15 927 20000 (2016) 50 (2013) 3980 50 97 113 180 7460 8540 20000
2020-12-03 09:45 9.18 945 20000 (2016) 50 (2013) 3980 50 97 113 180 7460 8540 20000
2020-12-03 08:45 9.21 965 20000 (2016) 50 (2013) 3980 50 97 113 180 7460 8540 20000
2020-12-03 07:45 9.24 984 20000 (2016) 50 (2013) 3980 50 97 113 180 7460 8540 20000
2020-12-03 06:45 9.24 984 20000 (2016) 50 (2013) 3980 50 97 113 180 7460 8540 20000
2020-12-03 05:45 9.21 965 20000 (2016) 50 (2013) 3980 50 97 113 180 7460 8540 20000
2020-12-03 04:45 9.19 952 20000 (2016) 50 (2013) 3980 50 97 113 180 7460 8540 20000
2020-12-03 03:45 9.13 914 20000 (2016) 50 (2013) 3980 50 97 113 180 7460 8540 20000
2020-12-03 02:45 9.13 914 20000 (2016) 50 (2013) 3980 50 97 113 180 7460 8540 20000
2020-12-03 01:45 9.12 908 20000 (2016) 50 (2013) 3980 50 97 113 180 7460 8540 20000
2020-12-03 00:45 9.07 877 20000 (2016) 50 (2013) 3980 50 97 113 180 7460 8540 20000
2020-12-02 23:45 9.12 908 19000 (2016) 50 (2013) 3430 50 50 100 190 5470 7490 19000
2020-12-02 22:45 9.10 896 19000 (2016) 50 (2013) 3430 50 50 100 190 5470 7490 19000
2020-12-02 21:45 9.10 896 19000 (2016) 50 (2013) 3430 50 50 100 190 5470 7490 19000
2020-12-02 20:45 9.11 902 19000 (2016) 50 (2013) 3430 50 50 100 190 5470 7490 19000
2020-12-02 19:45 9.13 914 19000 (2016) 50 (2013) 3430 50 50 100 190 5470 7490 19000
2020-12-02 18:45 9.15 927 19000 (2016) 50 (2013) 3430 50 50 100 190 5470 7490 19000
2020-12-02 17:45 9.17 939 19000 (2016) 50 (2013) 3430 50 50 100 190 5470 7490 19000
2020-12-02 16:45 9.19 952 19000 (2016) 50 (2013) 3430 50 50 100 190 5470 7490 19000
2020-12-02 15:45 9.19 952 19000 (2016) 50 (2013) 3430 50 50 100 190 5470 7490 19000
2020-12-02 14:45 9.16 933 19000 (2016) 50 (2013) 3430 50 50 100 190 5470 7490 19000
2020-12-02 13:45 9.10 896 19000 (2016) 50 (2013) 3430 50 50 100 190 5470 7490 19000
2020-12-02 12:45 9.07 877 19000 (2016) 50 (2013) 3430 50 50 100 190 5470 7490 19000
2020-12-02 11:45 9.10 896 19000 (2016) 50 (2013) 3430 50 50 100 190 5470 7490 19000
2020-12-02 10:45 9.09 890 19000 (2016) 50 (2013) 3430 50 50 100 190 5470 7490 19000
2020-12-02 09:45 9.10 896 19000 (2016) 50 (2013) 3430 50 50 100 190 5470 7490 19000
2020-12-02 08:45 9.15 927 19000 (2016) 50 (2013) 3430 50 50 100 190 5470 7490 19000
2020-12-02 07:45 9.17 939 19000 (2016) 50 (2013) 3430 50 50 100 190 5470 7490 19000
2020-12-02 06:45 9.18 945 19000 (2016) 50 (2013) 3430 50 50 100 190 5470 7490 19000
2020-12-02 05:45 9.17 939 19000 (2016) 50 (2013) 3430 50 50 100 190 5470 7490 19000
2020-12-02 04:45 9.14 920 19000 (2016) 50 (2013) 3430 50 50 100 190 5470 7490 19000
2020-12-02 03:45 9.11 902 19000 (2016) 50 (2013) 3430 50 50 100 190 5470 7490 19000
2020-12-02 02:45 9.09 890 19000 (2016) 50 (2013) 3430 50 50 100 190 5470 7490 19000
2020-12-02 01:45 9.09 890 19000 (2016) 50 (2013) 3430 50 50 100 190 5470 7490 19000
2020-12-02 00:45 9.08 883 19000 (2016) 50 (2013) 3430 50 50 100 190 5470 7490 19000
2020-12-01 23:45 9.07 877 18000 (2016) 50 (2013) 3040 50 67 115 328 4130 6920 18000
2020-12-01 22:45 9.06 871 18000 (2016) 50 (2013) 3040 50 67 115 328 4130 6920 18000
2020-12-01 21:45 9.06 871 18000 (2016) 50 (2013) 3040 50 67 115 328 4130 6920 18000
2020-12-01 20:45 9.08 883 18000 (2016) 50 (2013) 3040 50 67 115 328 4130 6920 18000
2020-12-01 19:45 9.15 927 18000 (2016) 50 (2013) 3040 50 67 115 328 4130 6920 18000
2020-12-01 18:45 9.22 971 18000 (2016) 50 (2013) 3040 50 67 115 328 4130 6920 18000
2020-12-01 17:45 9.26 997 18000 (2016) 50 (2013) 3040 50 67 115 328 4130 6920 18000
2020-12-01 16:45 9.21 965 18000 (2016) 50 (2013) 3040 50 67 115 328 4130 6920 18000
2020-12-01 15:45 9.07 877 18000 (2016) 50 (2013) 3040 50 67 115 328 4130 6920 18000
2020-12-01 14:45 8.96 813 18000 (2016) 50 (2013) 3040 50 67 115 328 4130 6920 18000
2020-12-01 13:45 8.93 796 18000 (2016) 50 (2013) 3040 50 67 115 328 4130 6920 18000
2020-12-01 12:45 8.98 824 18000 (2016) 50 (2013) 3040 50 67 115 328 4130 6920 18000
2020-12-01 11:45 9.08 883 18000 (2016) 50 (2013) 3040 50 67 115 328 4130 6920 18000
2020-12-01 10:45 9.15 927 18000 (2016) 50 (2013) 3040 50 67 115 328 4130 6920 18000
2020-12-01 09:45 9.18 945 18000 (2016) 50 (2013) 3040 50 67 115 328 4130 6920 18000
2020-12-01 08:45 9.18 945 18000 (2016) 50 (2013) 3040 50 67 115 328 4130 6920 18000
2020-12-01 07:45 9.23 977 18000 (2016) 50 (2013) 3040 50 67 115 328 4130 6920 18000
2020-12-01 06:45 9.23 977 18000 (2016) 50 (2013) 3040 50 67 115 328 4130 6920 18000
2020-12-01 05:45 9.21 965 18000 (2016) 50 (2013) 3040 50 67 115 328 4130 6920 18000
2020-12-01 04:45 9.19 952 18000 (2016) 50 (2013) 3040 50 67 115 328 4130 6920 18000
2020-12-01 03:45 9.18 945 18000 (2016) 50 (2013) 3040 50 67 115 328 4130 6920 18000
2020-12-01 02:45 9.18 945 18000 (2016) 50 (2013) 3040 50 67 115 328 4130 6920 18000
2020-12-01 01:45 9.17 939 18000 (2016) 50 (2013) 3040 50 67 115 328 4130 6920 18000
2020-12-01 00:45 9.18 945 18000 (2016) 50 (2013) 3040 50 67 115 328 4130 6920 18000
2020-11-30 23:45 9.18 945 18000 (2016) 50 (2013) 2620 50 50 115 246 2250 4080 18000
2020-11-30 22:45 9.19 952 18000 (2016) 50 (2013) 2620 50 50 115 246 2250 4080 18000
2020-11-30 21:45 9.19 952 18000 (2016) 50 (2013) 2620 50 50 115 246 2250 4080 18000
2020-11-30 20:45 9.18 945 18000 (2016) 50 (2013) 2620 50 50 115 246 2250 4080 18000
2020-11-30 19:45 9.19 952 18000 (2016) 50 (2013) 2620 50 50 115 246 2250 4080 18000
2020-11-30 18:45 9.17 939 18000 (2016) 50 (2013) 2620 50 50 115 246 2250 4080 18000
2020-11-30 17:45 9.14 920 18000 (2016) 50 (2013) 2620 50 50 115 246 2250 4080 18000
2020-11-30 16:45 9.08 883 18000 (2016) 50 (2013) 2620 50 50 115 246 2250 4080 18000
2020-11-30 15:45 9.12 908 18000 (2016) 50 (2013) 2620 50 50 115 246 2250 4080 18000
2020-11-30 14:45 9.12 908 18000 (2016) 50 (2013) 2620 50 50 115 246 2250 4080 18000
2020-11-30 13:45 9.14 920 18000 (2016) 50 (2013) 2620 50 50 115 246 2250 4080 18000
2020-11-30 12:45 9.14 920 18000 (2016) 50 (2013) 2620 50 50 115 246 2250 4080 18000
2020-11-30 11:45 9.15 927 18000 (2016) 50 (2013) 2620 50 50 115 246 2250 4080 18000
2020-11-30 10:45 9.12 908 18000 (2016) 50 (2013) 2620 50 50 115 246 2250 4080 18000
2020-11-30 09:45 9.10 896 18000 (2016) 50 (2013) 2620 50 50 115 246 2250 4080 18000
2020-11-30 08:45 9.10 896 18000 (2016) 50 (2013) 2620 50 50 115 246 2250 4080 18000
2020-11-30 07:45 9.13 914 18000 (2016) 50 (2013) 2620 50 50 115 246 2250 4080 18000
2020-11-30 06:45 9.12 908 18000 (2016) 50 (2013) 2620 50 50 115 246 2250 4080 18000
2020-11-30 05:45 9.17 939 18000 (2016) 50 (2013) 2620 50 50 115 246 2250 4080 18000
2020-11-30 04:45 9.18 945 18000 (2016) 50 (2013) 2620 50 50 115 246 2250 4080 18000
2020-11-30 03:45 9.21 965 18000 (2016) 50 (2013) 2620 50 50 115 246 2250 4080 18000
2020-11-30 02:45 9.22 971 18000 (2016) 50 (2013) 2620 50 50 115 246 2250 4080 18000
2020-11-30 01:45 9.22 971 18000 (2016) 50 (2013) 2620 50 50 115 246 2250 4080 18000
2020-11-30 00:45 9.24 984 18000 (2016) 50 (2013) 2620 50 50 115 246 2250 4080 18000
2020-11-29 23:45 9.24 984 18000 (2016) 50 (2013) 2260 50 50 122 251 610 805 18000
2020-11-29 22:45 9.25 990 18000 (2016) 50 (2013) 2260 50 50 122 251 610 805 18000
2020-11-29 21:45 9.26 997 18000 (2016) 50 (2013) 2260 50 50 122 251 610 805 18000
2020-11-29 20:45 9.27 1000 18000 (2016) 50 (2013) 2260 50 50 122 251 610 805 18000
2020-11-29 19:45 9.29 1020 18000 (2016) 50 (2013) 2260 50 50 122 251 610 805 18000
2020-11-29 18:45 9.24 984 18000 (2016) 50 (2013) 2260 50 50 122 251 610 805 18000
2020-11-29 17:45 9.19 952 18000 (2016) 50 (2013) 2260 50 50 122 251 610 805 18000
2020-11-29 16:45 9.16 933 18000 (2016) 50 (2013) 2260 50 50 122 251 610 805 18000
2020-11-29 15:45 9.10 896 18000 (2016) 50 (2013) 2260 50 50 122 251 610 805 18000
2020-11-29 14:45 9.06 871 18000 (2016) 50 (2013) 2260 50 50 122 251 610 805 18000
2020-11-29 13:45 9.07 877 18000 (2016) 50 (2013) 2260 50 50 122 251 610 805 18000
2020-11-29 12:45 9.07 877 18000 (2016) 50 (2013) 2260 50 50 122 251 610 805 18000
2020-11-29 11:45 9.12 908 18000 (2016) 50 (2013) 2260 50 50 122 251 610 805 18000
2020-11-29 10:45 9.14 920 18000 (2016) 50 (2013) 2260 50 50 122 251 610 805 18000
2020-11-29 09:45 9.15 927 18000 (2016) 50 (2013) 2260 50 50 122 251 610 805 18000
2020-11-29 08:45 9.15 927 18000 (2016) 50 (2013) 2260 50 50 122 251 610 805 18000
2020-11-29 07:45 9.17 939 18000 (2016) 50 (2013) 2260 50 50 122 251 610 805 18000
2020-11-29 06:45 9.18 945 18000 (2016) 50 (2013) 2260 50 50 122 251 610 805 18000
2020-11-29 05:45 9.19 952 18000 (2016) 50 (2013) 2260 50 50 122 251 610 805 18000
2020-11-29 04:45 9.19 952 18000 (2016) 50 (2013) 2260 50 50 122 251 610 805 18000
2020-11-29 03:45 9.19 952 18000 (2016) 50 (2013) 2260 50 50 122 251 610 805 18000
2020-11-29 02:45 9.19 952 18000 (2016) 50 (2013) 2260 50 50 122 251 610 805 18000
2020-11-29 01:45 9.19 952 18000 (2016) 50 (2013) 2260 50 50 122 251 610 805 18000
2020-11-29 00:45 9.20 958 18000 (2016) 50 (2013) 2260 50 50 122 251 610 805 18000
2020-11-28 23:45 9.21 965 16600 (2016) 50 (2013) 2050 50 50 121 206 452 636 16600
2020-11-28 22:45 9.21 965 16600 (2016) 50 (2013) 2050 50 50 121 206 452 636 16600
2020-11-28 21:45 9.22 971 16600 (2016) 50 (2013) 2050 50 50 121 206 452 636 16600
2020-11-28 20:45 9.22 971 16600 (2016) 50 (2013) 2050 50 50 121 206 452 636 16600
2020-11-28 19:45 9.22 971 16600 (2016) 50 (2013) 2050 50 50 121 206 452 636 16600
2020-11-28 18:45 9.22 971 16600 (2016) 50 (2013) 2050 50 50 121 206 452 636 16600
2020-11-28 17:45 9.23 977 16600 (2016) 50 (2013) 2050 50 50 121 206 452 636 16600
2020-11-28 16:45 9.25 990 16600 (2016) 50 (2013) 2050 50 50 121 206 452 636 16600
2020-11-28 15:45 9.27 1000 16600 (2016) 50 (2013) 2050 50 50 121 206 452 636 16600
2020-11-28 14:45 9.29 1020 16600 (2016) 50 (2013) 2050 50 50 121 206 452 636 16600
2020-11-28 13:45 9.31 1030 16600 (2016) 50 (2013) 2050 50 50 121 206 452 636 16600
2020-11-28 12:45 9.33 1040 16600 (2016) 50 (2013) 2050 50 50 121 206 452 636 16600
2020-11-28 11:45 9.35 1060 16600 (2016) 50 (2013) 2050 50 50 121 206 452 636 16600
2020-11-28 10:45 9.37 1070 16600 (2016) 50 (2013) 2050 50 50 121 206 452 636 16600
2020-11-28 09:45 9.39 1080 16600 (2016) 50 (2013) 2050 50 50 121 206 452 636 16600
2020-11-28 08:45 9.41 1100 16600 (2016) 50 (2013) 2050 50 50 121 206 452 636 16600
2020-11-28 07:45 9.46 1130 16600 (2016) 50 (2013) 2050 50 50 121 206 452 636 16600
2020-11-28 06:45 9.48 1150 16600 (2016) 50 (2013) 2050 50 50 121 206 452 636 16600
2020-11-28 05:45 9.51 1170 16600 (2016) 50 (2013) 2050 50 50 121 206 452 636 16600
2020-11-28 04:45 9.54 1190 16600 (2016) 50 (2013) 2050 50 50 121 206 452 636 16600
2020-11-28 03:45 9.57 1210 16600 (2016) 50 (2013) 2050 50 50 121 206 452 636 16600
2020-11-28 02:45 9.59 1230 16600 (2016) 50 (2013) 2050 50 50 121 206 452 636 16600
2020-11-28 01:45 9.63 1260 16600 (2016) 50 (2013) 2050 50 50 121 206 452 636 16600
2020-11-28 00:45 9.65 1270 16600 (2016) 50 (2013) 2050 50 50 121 206 452 636 16600
2020-11-27 23:45 9.69 1310 11100 (2016) 50 (2012) 1440 50 50 50 212 534 766 11100
2020-11-27 22:45 9.73 1340 11100 (2016) 50 (2012) 1440 50 50 50 212 534 766 11100
2020-11-27 20:45 9.82 1410 11100 (2016) 50 (2012) 1440 50 50 50 212 534 766 11100
2020-11-27 19:45 9.86 1440 11100 (2016) 50 (2012) 1440 50 50 50 212 534 766 11100
2020-11-27 18:45 9.90 1470 11100 (2016) 50 (2012) 1440 50 50 50 212 534 766 11100
2020-11-27 17:45 9.93 1500 11100 (2016) 50 (2012) 1440 50 50 50 212 534 766 11100
2020-11-27 16:45 9.95 1520 11100 (2016) 50 (2012) 1440 50 50 50 212 534 766 11100
2020-11-27 15:45 9.99 1550 11100 (2016) 50 (2012) 1440 50 50 50 212 534 766 11100
2020-11-27 14:45 1 1560 11100 (2016) 50 (2012) 1440 50 50 50 212 534 766 11100
2020-11-27 13:45 10.04 1590 11100 (2016) 50 (2012) 1440 50 50 50 212 534 766 11100
2020-11-27 12:45 10.04 1590 11100 (2016) 50 (2012) 1440 50 50 50 212 534 766 11100
2020-11-27 11:45 10.06 1610 11100 (2016) 50 (2012) 1440 50 50 50 212 534 766 11100
2020-11-27 10:45 10.08 1630 11100 (2016) 50 (2012) 1440 50 50 50 212 534 766 11100
2020-11-27 09:45 10.10 1650 11100 (2016) 50 (2012) 1440 50 50 50 212 534 766 11100
2020-11-27 08:45 10.14 1680 11100 (2016) 50 (2012) 1440 50 50 50 212 534 766 11100
2020-11-27 07:45 10.17 1710 11100 (2016) 50 (2012) 1440 50 50 50 212 534 766 11100
2020-11-27 06:45 10.19 1730 11100 (2016) 50 (2012) 1440 50 50 50 212 534 766 11100
2020-11-27 05:45 10.20 1740 11100 (2016) 50 (2012) 1440 50 50 50 212 534 766 11100
2020-11-27 04:45 10.21 1750 11100 (2016) 50 (2012) 1440 50 50 50 212 534 766 11100
2020-11-27 03:45 10.22 1760 11100 (2016) 50 (2012) 1440 50 50 50 212 534 766 11100
2020-11-27 02:45 10.22 1760 11100 (2016) 50 (2012) 1440 50 50 50 212 534 766 11100
2020-11-27 01:45 10.22 1760 11100 (2016) 50 (2012) 1440 50 50 50 212 534 766 11100
2020-11-27 00:45 10.21 1750 11100 (2016) 50 (2012) 1440 50 50 50 212 534 766 11100
2020-11-26 23:45 10.20 1740 1030 (2020) 50 (2012) 257 50 50 55 172 292 315 1030
2020-11-26 22:45 10.19 1730 1030 (2020) 50 (2012) 257 50 50 55 172 292 315 1030
2020-11-26 21:45 10.17 1710 1030 (2020) 50 (2012) 257 50 50 55 172 292 315 1030
2020-11-26 20:45 10.14 1680 1030 (2020) 50 (2012) 257 50 50 55 172 292 315 1030
2020-11-26 19:45 10.13 1670 1030 (2020) 50 (2012) 257 50 50 55 172 292 315 1030
2020-11-26 18:45 10.10 1650 1030 (2020) 50 (2012) 257 50 50 55 172 292 315 1030
2020-11-26 17:45 10.07 1620 1030 (2020) 50 (2012) 257 50 50 55 172 292 315 1030
2020-11-26 16:45 10.04 1590 1030 (2020) 50 (2012) 257 50 50 55 172 292 315 1030
2020-11-26 15:45 1 1560 1030 (2020) 50 (2012) 257 50 50 55 172 292 315 1030
2020-11-26 14:45 9.93 1500 1030 (2020) 50 (2012) 257 50 50 55 172 292 315 1030
2020-11-26 13:45 9.90 1470 1030 (2020) 50 (2012) 257 50 50 55 172 292 315 1030
2020-11-26 12:45 9.85 1430 1030 (2020) 50 (2012) 257 50 50 55 172 292 315 1030
2020-11-26 11:45 9.83 1420 1030 (2020) 50 (2012) 257 50 50 55 172 292 315 1030
2020-11-26 10:45 9.77 1370 1030 (2020) 50 (2012) 257 50 50 55 172 292 315 1030
2020-11-26 09:45 9.76 1360 1030 (2020) 50 (2012) 257 50 50 55 172 292 315 1030
2020-11-26 08:45 9.69 1310 1030 (2020) 50 (2012) 257 50 50 55 172 292 315 1030
2020-11-26 07:45 9.63 1260 1030 (2020) 50 (2012) 257 50 50 55 172 292 315 1030
2020-11-26 06:45 9.60 1240 1030 (2020) 50 (2012) 257 50 50 55 172 292 315 1030
2020-11-26 05:45 9.57 1210 1030 (2020) 50 (2012) 257 50 50 55 172 292 315 1030
2020-11-26 04:45 9.52 1180 1030 (2020) 50 (2012) 257 50 50 55 172 292 315 1030
2020-11-26 03:45 9.47 1140 1030 (2020) 50 (2012) 257 50 50 55 172 292 315 1030
2020-11-26 02:45 9.42 1110 1030 (2020) 50 (2012) 257 50 50 55 172 292 315 1030
2020-11-26 01:45 9.37 1070 1030 (2020) 50 (2012) 257 50 50 55 172 292 315 1030
2020-11-26 00:45 9.34 1050 1030 (2020) 50 (2012) 257 50 50 55 172 292 315 1030
2020-11-25 23:45 9.32 1040 1000 (2020) 50 (2012) 261 50 50 50 166 360 383 1000
2020-11-25 22:45 9.31 1030 1000 (2020) 50 (2012) 261 50 50 50 166 360 383 1000
2020-11-25 21:45 9.28 1010 1000 (2020) 50 (2012) 261 50 50 50 166 360 383 1000
2020-11-25 20:45 9.25 990 1000 (2020) 50 (2012) 261 50 50 50 166 360 383 1000
2020-11-25 19:45 9.23 977 1000 (2020) 50 (2012) 261 50 50 50 166 360 383 1000
2020-11-25 18:45 9.21 965 1000 (2020) 50 (2012) 261 50 50 50 166 360 383 1000
2020-11-25 17:45 9.17 939 1000 (2020) 50 (2012) 261 50 50 50 166 360 383 1000
2020-11-25 16:45 9.13 914 1000 (2020) 50 (2012) 261 50 50 50 166 360 383 1000
2020-11-25 15:45 9.07 877 1000 (2020) 50 (2012) 261 50 50 50 166 360 383 1000
2020-11-25 14:45 9.02 848 1000 (2020) 50 (2012) 261 50 50 50 166 360 383 1000
2020-11-25 13:45 8.97 818 1000 (2020) 50 (2012) 261 50 50 50 166 360 383 1000
2020-11-25 12:45 8.94 801 1000 (2020) 50 (2012) 261 50 50 50 166 360 383 1000
2020-11-25 11:45 8.88 768 1000 (2020) 50 (2012) 261 50 50 50 166 360 383 1000
2020-11-25 10:45 8.85 751 1000 (2020) 50 (2012) 261 50 50 50 166 360 383 1000
2020-11-25 09:45 8.79 719 1000 (2020) 50 (2012) 261 50 50 50 166 360 383 1000
2020-11-25 08:45 8.81 730 1000 (2020) 50 (2012) 261 50 50 50 166 360 383 1000
2020-11-25 07:45 8.77 709 1000 (2020) 50 (2012) 261 50 50 50 166 360 383 1000
2020-11-25 06:45 8.72 683 1000 (2020) 50 (2012) 261 50 50 50 166 360 383 1000
2020-11-25 05:45 8.68 662 1000 (2020) 50 (2012) 261 50 50 50 166 360 383 1000
2020-11-25 04:45 8.62 633 1000 (2020) 50 (2012) 261 50 50 50 166 360 383 1000
2020-11-25 03:45 8.55 599 1000 (2020) 50 (2012) 261 50 50 50 166 360 383 1000
2020-11-25 02:45 8.49 572 1000 (2020) 50 (2012) 261 50 50 50 166 360 383 1000
2020-11-25 01:45 8.45 555 1000 (2020) 50 (2012) 261 50 50 50 166 360 383 1000
2020-11-25 00:45 8.39 531 1000 (2020) 50 (2012) 261 50 50 50 166 360 383 1000
2020-11-24 23:45 8.33 508 831 (2020) 50 (2012) 259 50 50 50 229 344 358 831
2020-11-24 22:45 8.30 496 831 (2020) 50 (2012) 259 50 50 50 229 344 358 831
2020-11-24 21:45 8.30 496 831 (2020) 50 (2012) 259 50 50 50 229 344 358 831
2020-11-24 20:45 8.28 488 831 (2020) 50 (2012) 259 50 50 50 229 344 358 831
2020-11-24 19:45 8.25 477 831 (2020) 50 (2012) 259 50 50 50 229 344 358 831
2020-11-24 18:45 8.18 451 831 (2020) 50 (2012) 259 50 50 50 229 344 358 831
2020-11-24 17:45 8.20 459 831 (2020) 50 (2012) 259 50 50 50 229 344 358 831
2020-11-24 16:45 8.14 437 831 (2020) 50 (2012) 259 50 50 50 229 344 358 831
2020-11-24 15:45 8.12 430 831 (2020) 50 (2012) 259 50 50 50 229 344 358 831
2020-11-24 14:45 8.08 416 831 (2020) 50 (2012) 259 50 50 50 229 344 358 831
2020-11-24 13:45 8.08 416 831 (2020) 50 (2012) 259 50 50 50 229 344 358 831
2020-11-24 12:45 8.08 416 831 (2020) 50 (2012) 259 50 50 50 229 344 358 831
2020-11-24 11:45 8.04 403 831 (2020) 50 (2012) 259 50 50 50 229 344 358 831
2020-11-24 10:45 8.03 399 831 (2020) 50 (2012) 259 50 50 50 229 344 358 831
2020-11-24 09:45 8.03 399 831 (2020) 50 (2012) 259 50 50 50 229 344 358 831
2020-11-24 08:45 8.01 393 831 (2020) 50 (2012) 259 50 50 50 229 344 358 831
2020-11-24 07:45 8.00 390 831 (2020) 50 (2012) 259 50 50 50 229 344 358 831
2020-11-24 06:45 8.00 390 831 (2020) 50 (2012) 259 50 50 50 229 344 358 831
2020-11-24 05:45 7.97 380 831 (2020) 50 (2012) 259 50 50 50 229 344 358 831
2020-11-24 04:45 7.96 377 831 (2020) 50 (2012) 259 50 50 50 229 344 358 831
2020-11-24 03:45 7.97 380 831 (2020) 50 (2012) 259 50 50 50 229 344 358 831
2020-11-24 02:45 7.97 380 831 (2020) 50 (2012) 259 50 50 50 229 344 358 831
2020-11-24 01:45 7.98 383 831 (2020) 50 (2012) 259 50 50 50 229 344 358 831
2020-11-24 00:45 8.03 399 831 (2020) 50 (2012) 259 50 50 50 229 344 358 831
2020-11-23 23:45 8.01 393 659 (2020) 50 (2012) 261 50 50 50 192 443 480 659
2020-11-23 22:45 8.01 393 659 (2020) 50 (2012) 261 50 50 50 192 443 480 659
2020-11-23 21:45 8.02 396 659 (2020) 50 (2012) 261 50 50 50 192 443 480 659
2020-11-23 20:45 8.01 393 659 (2020) 50 (2012) 261 50 50 50 192 443 480 659
2020-11-23 19:45 7.99 386 659 (2020) 50 (2012) 261 50 50 50 192 443 480 659
2020-11-23 18:45 7.96 377 659 (2020) 50 (2012) 261 50 50 50 192 443 480 659
2020-11-23 17:45 7.98 383 659 (2020) 50 (2012) 261 50 50 50 192 443 480 659
2020-11-23 16:45 7.96 377 659 (2020) 50 (2012) 261 50 50 50 192 443 480 659
2020-11-23 15:45 7.94 370 659 (2020) 50 (2012) 261 50 50 50 192 443 480 659
2020-11-23 14:45 7.98 383 659 (2020) 50 (2012) 261 50 50 50 192 443 480 659
2020-11-23 13:45 7.95 373 659 (2020) 50 (2012) 261 50 50 50 192 443 480 659
2020-11-23 12:45 7.95 373 659 (2020) 50 (2012) 261 50 50 50 192 443 480 659
2020-11-23 11:45 7.94 370 659 (2020) 50 (2012) 261 50 50 50 192 443 480 659
2020-11-23 10:45 7.95 373 659 (2020) 50 (2012) 261 50 50 50 192 443 480 659
2020-11-23 09:45 7.96 377 659 (2020) 50 (2012) 261 50 50 50 192 443 480 659
2020-11-23 08:45 7.96 377 659 (2020) 50 (2012) 261 50 50 50 192 443 480 659
2020-11-23 07:45 7.96 377 659 (2020) 50 (2012) 261 50 50 50 192 443 480 659
2020-11-23 06:45 7.93 367 659 (2020) 50 (2012) 261 50 50 50 192 443 480 659
2020-11-23 05:45 7.94 370 659 (2020) 50 (2012) 261 50 50 50 192 443 480 659
2020-11-23 04:45 7.93 367 659 (2020) 50 (2012) 261 50 50 50 192 443 480 659
2020-11-23 03:45 7.92 364 659 (2020) 50 (2012) 261 50 50 50 192 443 480 659
2020-11-23 02:45 7.90 358 659 (2020) 50 (2012) 261 50 50 50 192 443 480 659
2020-11-23 01:45 7.90 358 659 (2020) 50 (2012) 261 50 50 50 192 443 480 659
2020-11-23 00:45 7.88 351 659 (2020) 50 (2012) 261 50 50 50 192 443 480 659
2020-11-22 23:45 7.88 351 680 (2016) 50 (2012) 280 50 50 50 228 521 597 680
2020-11-22 22:45 7.88 351 680 (2016) 50 (2012) 280 50 50 50 228 521 597 680
2020-11-22 21:45 7.86 345 680 (2016) 50 (2012) 280 50 50 50 228 521 597 680
2020-11-22 20:45 7.85 342 680 (2016) 50 (2012) 280 50 50 50 228 521 597 680
2020-11-22 19:45 7.85 342 680 (2016) 50 (2012) 280 50 50 50 228 521 597 680
2020-11-22 18:45 7.84 339 680 (2016) 50 (2012) 280 50 50 50 228 521 597 680
2020-11-22 17:45 7.82 333 680 (2016) 50 (2012) 280 50 50 50 228 521 597 680
2020-11-22 16:45 7.84 339 680 (2016) 50 (2012) 280 50 50 50 228 521 597 680
2020-11-22 15:45 7.89 354 680 (2016) 50 (2012) 280 50 50 50 228 521 597 680
2020-11-22 14:45 7.93 367 680 (2016) 50 (2012) 280 50 50 50 228 521 597 680
2020-11-22 13:45 7.94 370 680 (2016) 50 (2012) 280 50 50 50 228 521 597 680
2020-11-22 12:45 7.96 377 680 (2016) 50 (2012) 280 50 50 50 228 521 597 680
2020-11-22 11:45 7.97 380 680 (2016) 50 (2012) 280 50 50 50 228 521 597 680
2020-11-22 10:45 7.93 367 680 (2016) 50 (2012) 280 50 50 50 228 521 597 680
2020-11-22 09:45 7.85 342 680 (2016) 50 (2012) 280 50 50 50 228 521 597 680
2020-11-22 08:45 7.81 330 680 (2016) 50 (2012) 280 50 50 50 228 521 597 680
2020-11-22 07:45 7.79 324 680 (2016) 50 (2012) 280 50 50 50 228 521 597 680
2020-11-22 06:45 7.74 310 680 (2016) 50 (2012) 280 50 50 50 228 521 597 680
2020-11-22 05:45 7.76 316 680 (2016) 50 (2012) 280 50 50 50 228 521 597 680
2020-11-22 04:45 7.80 327 680 (2016) 50 (2012) 280 50 50 50 228 521 597 680
2020-11-22 03:45 7.81 330 680 (2016) 50 (2012) 280 50 50 50 228 521 597 680
2020-11-22 02:45 7.80 327 680 (2016) 50 (2012) 280 50 50 50 228 521 597 680
2020-11-22 01:45 7.79 324 680 (2016) 50 (2012) 280 50 50 50 228 521 597 680
2020-11-22 00:45 7.78 321 680 (2016) 50 (2012) 280 50 50 50 228 521 597 680
2020-11-21 23:45 7.82 333 1070 (2016) 50 (2012) 331 50 50 50 264 499 598 1070
2020-11-21 22:45 7.88 351 1070 (2016) 50 (2012) 331 50 50 50 264 499 598 1070
2020-11-21 21:45 7.89 354 1070 (2016) 50 (2012) 331 50 50 50 264 499 598 1070
2020-11-21 20:45 7.94 370 1070 (2016) 50 (2012) 331 50 50 50 264 499 598 1070
2020-11-21 19:45 7.88 351 1070 (2016) 50 (2012) 331 50 50 50 264 499 598 1070
2020-11-21 18:45 7.87 348 1070 (2016) 50 (2012) 331 50 50 50 264 499 598 1070
2020-11-21 17:45 7.84 339 1070 (2016) 50 (2012) 331 50 50 50 264 499 598 1070
2020-11-21 16:45 7.81 330 1070 (2016) 50 (2012) 331 50 50 50 264 499 598 1070
2020-11-21 15:45 7.79 324 1070 (2016) 50 (2012) 331 50 50 50 264 499 598 1070
2020-11-21 14:45 7.76 316 1070 (2016) 50 (2012) 331 50 50 50 264 499 598 1070
2020-11-21 13:45 7.71 301 1070 (2016) 50 (2012) 331 50 50 50 264 499 598 1070
2020-11-21 12:45 7.69 296 1070 (2016) 50 (2012) 331 50 50 50 264 499 598 1070
2020-11-21 11:45 7.70 299 1070 (2016) 50 (2012) 331 50 50 50 264 499 598 1070
2020-11-21 10:45 7.71 301 1070 (2016) 50 (2012) 331 50 50 50 264 499 598 1070
2020-11-21 09:45 7.73 307 1070 (2016) 50 (2012) 331 50 50 50 264 499 598 1070
2020-11-21 08:45 7.75 313 1070 (2016) 50 (2012) 331 50 50 50 264 499 598 1070
2020-11-21 07:45 7.77 318 1070 (2016) 50 (2012) 331 50 50 50 264 499 598 1070
2020-11-21 06:45 7.76 316 1070 (2016) 50 (2012) 331 50 50 50 264 499 598 1070
2020-11-21 05:45 7.75 313 1070 (2016) 50 (2012) 331 50 50 50 264 499 598 1070
2020-11-21 04:45 7.76 316 1070 (2016) 50 (2012) 331 50 50 50 264 499 598 1070
2020-11-21 03:45 7.75 313 1070 (2016) 50 (2012) 331 50 50 50 264 499 598 1070
2020-11-21 02:45 7.74 310 1070 (2016) 50 (2012) 331 50 50 50 264 499 598 1070
2020-11-21 01:45 7.75 313 1070 (2016) 50 (2012) 331 50 50 50 264 499 598 1070
2020-11-21 00:45 7.74 310 1070 (2016) 50 (2012) 331 50 50 50 264 499 598 1070
2020-11-20 23:45 7.73 307 2790 (2016) 50 (2012) 538 50 50 50 279 555 640 2790
2020-11-20 22:45 7.71 301 2790 (2016) 50 (2012) 538 50 50 50 279 555 640 2790
2020-11-20 21:45 7.69 296 2790 (2016) 50 (2012) 538 50 50 50 279 555 640 2790
2020-11-20 20:45 7.67 290 2790 (2016) 50 (2012) 538 50 50 50 279 555 640 2790
2020-11-20 19:45 7.65 285 2790 (2016) 50 (2012) 538 50 50 50 279 555 640 2790
2020-11-20 18:45 7.64 282 2790 (2016) 50 (2012) 538 50 50 50 279 555 640 2790
2020-11-20 17:45 7.64 282 2790 (2016) 50 (2012) 538 50 50 50 279 555 640 2790
2020-11-20 16:45 7.64 282 2790 (2016) 50 (2012) 538 50 50 50 279 555 640 2790
2020-11-20 15:45 7.64 282 2790 (2016) 50 (2012) 538 50 50 50 279 555 640 2790
2020-11-20 14:45 7.66 288 2790 (2016) 50 (2012) 538 50 50 50 279 555 640 2790
2020-11-20 13:45 7.68 293 2790 (2016) 50 (2012) 538 50 50 50 279 555 640 2790
2020-11-20 12:45 7.70 299 2790 (2016) 50 (2012) 538 50 50 50 279 555 640 2790
2020-11-20 11:45 7.71 301 2790 (2016) 50 (2012) 538 50 50 50 279 555 640 2790
2020-11-20 10:45 7.71 301 2790 (2016) 50 (2012) 538 50 50 50 279 555 640 2790
2020-11-20 09:45 7.67 290 2790 (2016) 50 (2012) 538 50 50 50 279 555 640 2790
2020-11-20 08:45 7.65 285 2790 (2016) 50 (2012) 538 50 50 50 279 555 640 2790
2020-11-20 07:45 7.62 277 2790 (2016) 50 (2012) 538 50 50 50 279 555 640 2790
2020-11-20 06:45 7.60 272 2790 (2016) 50 (2012) 538 50 50 50 279 555 640 2790
2020-11-20 05:45 7.59 269 2790 (2016) 50 (2012) 538 50 50 50 279 555 640 2790
2020-11-20 04:45 7.57 264 2790 (2016) 50 (2012) 538 50 50 50 279 555 640 2790
2020-11-20 03:45 7.57 264 2790 (2016) 50 (2012) 538 50 50 50 279 555 640 2790
2020-11-20 02:45 7.60 272 2790 (2016) 50 (2012) 538 50 50 50 279 555 640 2790
2020-11-20 01:45 7.65 285 2790 (2016) 50 (2012) 538 50 50 50 279 555 640 2790
2020-11-20 00:45 7.72 304 2790 (2016) 50 (2012) 538 50 50 50 279 555 640 2790
2020-11-19 23:45 7.77 318 4310 (2016) 50 (2012) 704 50 50 50 276 526 647 4310
2020-11-19 22:45 7.77 318 4310 (2016) 50 (2012) 704 50 50 50 276 526 647 4310
2020-11-19 21:45 7.74 310 4310 (2016) 50 (2012) 704 50 50 50 276 526 647 4310
2020-11-19 20:45 7.67 290 4310 (2016) 50 (2012) 704 50 50 50 276 526 647 4310
2020-11-19 19:45 7.55 259 4310 (2016) 50 (2012) 704 50 50 50 276 526 647 4310
2020-11-19 18:45 7.42 227 4310 (2016) 50 (2012) 704 50 50 50 276 526 647 4310
2020-11-19 17:45 7.33 207 4310 (2016) 50 (2012) 704 50 50 50 276 526 647 4310
2020-11-19 16:45 7.23 188 4310 (2016) 50 (2012) 704 50 50 50 276 526 647 4310
2020-11-19 15:45 7.17 176 4310 (2016) 50 (2012) 704 50 50 50 276 526 647 4310
2020-11-19 14:45 7.16 175 4310 (2016) 50 (2012) 704 50 50 50 276 526 647 4310
2020-11-19 13:45 7.16 175 4310 (2016) 50 (2012) 704 50 50 50 276 526 647 4310
2020-11-19 12:45 7.18 178 4310 (2016) 50 (2012) 704 50 50 50 276 526 647 4310
2020-11-19 11:45 7.25 192 4310 (2016) 50 (2012) 704 50 50 50 276 526 647 4310
2020-11-19 10:45 7.30 201 4310 (2016) 50 (2012) 704 50 50 50 276 526 647 4310
2020-11-19 09:45 7.37 216 4310 (2016) 50 (2012) 704 50 50 50 276 526 647 4310
2020-11-19 08:45 7.49 244 4310 (2016) 50 (2012) 704 50 50 50 276 526 647 4310
2020-11-19 07:45 7.49 244 4310 (2016) 50 (2012) 704 50 50 50 276 526 647 4310
2020-11-19 06:45 7.52 251 4310 (2016) 50 (2012) 704 50 50 50 276 526 647 4310
2020-11-19 05:45 7.47 239 4310 (2016) 50 (2012) 704 50 50 50 276 526 647 4310
2020-11-19 04:45 7.46 236 4310 (2016) 50 (2012) 704 50 50 50 276 526 647 4310
2020-11-19 03:45 7.47 239 4310 (2016) 50 (2012) 704 50 50 50 276 526 647 4310
2020-11-19 02:45 7.47 239 4310 (2016) 50 (2012) 704 50 50 50 276 526 647 4310
2020-11-19 01:45 7.49 244 4310 (2016) 50 (2012) 704 50 50 50 276 526 647 4310
2020-11-19 00:45 7.53 254 4310 (2016) 50 (2012) 704 50 50 50 276 526 647 4310
2020-11-18 23:45 7.56 261 2990 (2016) 50 (2012) 576 50 50 50 269 571 657 2990
2020-11-18 22:45 7.63 280 2990 (2016) 50 (2012) 576 50 50 50 269 571 657 2990
2020-11-18 21:45 7.59 269 2990 (2016) 50 (2012) 576 50 50 50 269 571 657 2990
2020-11-18 20:45 7.59 269 2990 (2016) 50 (2012) 576 50 50 50 269 571 657 2990
2020-11-18 19:45 7.50 246 2990 (2016) 50 (2012) 576 50 50 50 269 571 657 2990
2020-11-18 18:45 7.44 232 2990 (2016) 50 (2012) 576 50 50 50 269 571 657 2990
2020-11-18 17:45 7.36 214 2990 (2016) 50 (2012) 576 50 50 50 269 571 657 2990
2020-11-18 16:45 7.28 197 2990 (2016) 50 (2012) 576 50 50 50 269 571 657 2990
2020-11-18 15:45 7.29 199 2990 (2016) 50 (2012) 576 50 50 50 269 571 657 2990
2020-11-18 14:45 7.33 207 2990 (2016) 50 (2012) 576 50 50 50 269 571 657 2990
2020-11-18 13:45 7.36 214 2990 (2016) 50 (2012) 576 50 50 50 269 571 657 2990
2020-11-18 12:45 7.46 236 2990 (2016) 50 (2012) 576 50 50 50 269 571 657 2990
2020-11-18 11:45 7.55 259 2990 (2016) 50 (2012) 576 50 50 50 269 571 657 2990
2020-11-18 10:45 7.56 261 2990 (2016) 50 (2012) 576 50 50 50 269 571 657 2990
2020-11-18 09:45 7.58 266 2990 (2016) 50 (2012) 576 50 50 50 269 571 657 2990
2020-11-18 08:45 7.58 266 2990 (2016) 50 (2012) 576 50 50 50 269 571 657 2990
2020-11-18 07:45 7.57 264 2990 (2016) 50 (2012) 576 50 50 50 269 571 657 2990
2020-11-18 06:45 7.57 264 2990 (2016) 50 (2012) 576 50 50 50 269 571 657 2990
2020-11-18 05:45 7.59 269 2990 (2016) 50 (2012) 576 50 50 50 269 571 657 2990
2020-11-18 04:45 7.56 261 2990 (2016) 50 (2012) 576 50 50 50 269 571 657 2990
2020-11-18 03:45 7.58 266 2990 (2016) 50 (2012) 576 50 50 50 269 571 657 2990
2020-11-18 02:45 7.58 266 2990 (2016) 50 (2012) 576 50 50 50 269 571 657 2990
2020-11-18 01:45 7.60 272 2990 (2016) 50 (2012) 576 50 50 50 269 571 657 2990
2020-11-18 00:45 7.61 274 2990 (2016) 50 (2012) 576 50 50 50 269 571 657 2990
2020-11-17 23:45 7.62 277 1040 (2016) 50 (2012) 331 50 50 50 265 498 707 1040
2020-11-17 22:45 7.63 280 1040 (2016) 50 (2012) 331 50 50 50 265 498 707 1040
2020-11-17 21:45 7.63 280 1040 (2016) 50 (2012) 331 50 50 50 265 498 707 1040
2020-11-17 20:45 7.64 282 1040 (2016) 50 (2012) 331 50 50 50 265 498 707 1040
2020-11-17 19:45 7.68 293 1040 (2016) 50 (2012) 331 50 50 50 265 498 707 1040
2020-11-17 18:45 7.71 301 1040 (2016) 50 (2012) 331 50 50 50 265 498 707 1040
2020-11-17 17:45 7.71 301 1040 (2016) 50 (2012) 331 50 50 50 265 498 707 1040
2020-11-17 16:45 7.68 293 1040 (2016) 50 (2012) 331 50 50 50 265 498 707 1040
2020-11-17 15:45 7.55 259 1040 (2016) 50 (2012) 331 50 50 50 265 498 707 1040
2020-11-17 14:45 7.49 244 1040 (2016) 50 (2012) 331 50 50 50 265 498 707 1040
2020-11-17 13:45 7.49 244 1040 (2016) 50 (2012) 331 50 50 50 265 498 707 1040
2020-11-17 12:45 7.53 254 1040 (2016) 50 (2012) 331 50 50 50 265 498 707 1040
2020-11-17 11:45 7.62 277 1040 (2016) 50 (2012) 331 50 50 50 265 498 707 1040
2020-11-17 10:45 7.71 301 1040 (2016) 50 (2012) 331 50 50 50 265 498 707 1040
2020-11-17 09:45 7.72 304 1040 (2016) 50 (2012) 331 50 50 50 265 498 707 1040
2020-11-17 08:45 7.70 299 1040 (2016) 50 (2012) 331 50 50 50 265 498 707 1040
2020-11-17 07:45 7.76 316 1040 (2016) 50 (2012) 331 50 50 50 265 498 707 1040
2020-11-17 06:45 7.74 310 1040 (2016) 50 (2012) 331 50 50 50 265 498 707 1040
2020-11-17 05:45 7.70 299 1040 (2016) 50 (2012) 331 50 50 50 265 498 707 1040
2020-11-17 04:45 7.66 288 1040 (2016) 50 (2012) 331 50 50 50 265 498 707 1040
2020-11-17 03:45 7.63 280 1040 (2016) 50 (2012) 331 50 50 50 265 498 707 1040
2020-11-17 02:45 7.62 277 1040 (2016) 50 (2012) 331 50 50 50 265 498 707 1040
2020-11-17 01:45 7.63 280 1040 (2016) 50 (2012) 331 50 50 50 265 498 707 1040
2020-11-17 00:45 7.66 288 1040 (2016) 50 (2012) 331 50 50 50 265 498 707 1040
2020-11-16 23:45 7.72 304 691 (2020) 50 (2012) 222 50 50 50 205 312 317 691
2020-11-16 22:45 7.78 321 691 (2020) 50 (2012) 222 50 50 50 205 312 317 691
2020-11-16 21:45 7.83 336 691 (2020) 50 (2012) 222 50 50 50 205 312 317 691
2020-11-16 20:45 7.83 336 691 (2020) 50 (2012) 222 50 50 50 205 312 317 691
2020-11-16 19:45 7.79 324 691 (2020) 50 (2012) 222 50 50 50 205 312 317 691
2020-11-16 18:45 7.72 304 691 (2020) 50 (2012) 222 50 50 50 205 312 317 691
2020-11-16 17:45 7.62 277 691 (2020) 50 (2012) 222 50 50 50 205 312 317 691
2020-11-16 16:45 7.48 241 691 (2020) 50 (2012) 222 50 50 50 205 312 317 691
2020-11-16 15:45 7.42 227 691 (2020) 50 (2012) 222 50 50 50 205 312 317 691
2020-11-16 14:45 7.39 220 691 (2020) 50 (2012) 222 50 50 50 205 312 317 691
2020-11-16 13:45 7.39 220 691 (2020) 50 (2012) 222 50 50 50 205 312 317 691
2020-11-16 12:45 7.43 229 691 (2020) 50 (2012) 222 50 50 50 205 312 317 691
2020-11-16 11:45 7.53 254 691 (2020) 50 (2012) 222 50 50 50 205 312 317 691
2020-11-16 10:45 7.56 261 691 (2020) 50 (2012) 222 50 50 50 205 312 317 691
2020-11-16 09:45 7.66 288 691 (2020) 50 (2012) 222 50 50 50 205 312 317 691
2020-11-16 08:45 7.71 301 691 (2020) 50 (2012) 222 50 50 50 205 312 317 691
2020-11-16 07:45 7.72 304 691 (2020) 50 (2012) 222 50 50 50 205 312 317 691
2020-11-16 06:45 7.70 299 691 (2020) 50 (2012) 222 50 50 50 205 312 317 691
2020-11-16 05:45 7.68 293 691 (2020) 50 (2012) 222 50 50 50 205 312 317 691
2020-11-16 04:45 7.64 282 691 (2020) 50 (2012) 222 50 50 50 205 312 317 691
2020-11-16 03:45 7.62 277 691 (2020) 50 (2012) 222 50 50 50 205 312 317 691
2020-11-16 02:45 7.61 274 691 (2020) 50 (2012) 222 50 50 50 205 312 317 691
2020-11-16 01:45 7.62 277 691 (2020) 50 (2012) 222 50 50 50 205 312 317 691
2020-11-16 00:45 7.66 288 691 (2020) 50 (2012) 222 50 50 50 205 312 317 691
2020-11-15 23:45 7.74 310 699 (2020) 50 (2012) 255 50 50 50 258 398 442 699
2020-11-15 22:45 7.78 321 699 (2020) 50 (2012) 255 50 50 50 258 398 442 699
2020-11-15 21:45 7.82 333 699 (2020) 50 (2012) 255 50 50 50 258 398 442 699
2020-11-15 20:45 7.79 324 699 (2020) 50 (2012) 255 50 50 50 258 398 442 699
2020-11-15 19:45 7.72 304 699 (2020) 50 (2012) 255 50 50 50 258 398 442 699
2020-11-15 18:45 7.65 285 699 (2020) 50 (2012) 255 50 50 50 258 398 442 699
2020-11-15 17:45 7.57 264 699 (2020) 50 (2012) 255 50 50 50 258 398 442 699
2020-11-15 16:45 7.54 256 699 (2020) 50 (2012) 255 50 50 50 258 398 442 699
2020-11-15 15:45 7.46 236 699 (2020) 50 (2012) 255 50 50 50 258 398 442 699
2020-11-15 14:45 7.46 236 699 (2020) 50 (2012) 255 50 50 50 258 398 442 699
2020-11-15 13:45 7.47 239 699 (2020) 50 (2012) 255 50 50 50 258 398 442 699
2020-11-15 12:45 7.53 254 699 (2020) 50 (2012) 255 50 50 50 258 398 442 699
2020-11-15 11:45 7.59 269 699 (2020) 50 (2012) 255 50 50 50 258 398 442 699
2020-11-15 10:45 7.64 282 699 (2020) 50 (2012) 255 50 50 50 258 398 442 699
2020-11-15 09:45 7.64 282 699 (2020) 50 (2012) 255 50 50 50 258 398 442 699
2020-11-15 08:45 7.58 266 699 (2020) 50 (2012) 255 50 50 50 258 398 442 699
2020-11-15 07:45 7.50 246 699 (2020) 50 (2012) 255 50 50 50 258 398 442 699
2020-11-15 06:45 7.44 232 699 (2020) 50 (2012) 255 50 50 50 258 398 442 699
2020-11-15 05:45 7.45 234 699 (2020) 50 (2012) 255 50 50 50 258 398 442 699
2020-11-15 04:45 7.57 264 699 (2020) 50 (2012) 255 50 50 50 258 398 442 699
2020-11-15 03:45 7.50 246 699 (2020) 50 (2012) 255 50 50 50 258 398 442 699
2020-11-15 02:45 7.52 251 699 (2020) 50 (2012) 255 50 50 50 258 398 442 699
2020-11-15 01:45 7.58 266 699 (2020) 50 (2012) 255 50 50 50 258 398 442 699
2020-11-15 00:45 7.52 251 699 (2020) 50 (2012) 255 50 50 50 258 398 442 699
2020-11-14 23:45 7.60 272 749 (2020) 50 (2013) 293 50 50 50 308 452 530 749
2020-11-14 22:45 7.63 280 749 (2020) 50 (2013) 293 50 50 50 308 452 530 749
2020-11-14 21:45 7.55 259 749 (2020) 50 (2013) 293 50 50 50 308 452 530 749
2020-11-14 20:45 7.59 269 749 (2020) 50 (2013) 293 50 50 50 308 452 530 749
2020-11-14 19:45 7.54 256 749 (2020) 50 (2013) 293 50 50 50 308 452 530 749
2020-11-14 18:45 7.56 261 749 (2020) 50 (2013) 293 50 50 50 308 452 530 749
2020-11-14 17:45 7.56 261 749 (2020) 50 (2013) 293 50 50 50 308 452 530 749
2020-11-14 16:45 7.50 246 749 (2020) 50 (2013) 293 50 50 50 308 452 530 749
2020-11-14 15:45 7.56 261 749 (2020) 50 (2013) 293 50 50 50 308 452 530 749
2020-11-14 14:45 7.54 256 749 (2020) 50 (2013) 293 50 50 50 308 452 530 749
2020-11-14 13:45 7.53 254 749 (2020) 50 (2013) 293 50 50 50 308 452 530 749
2020-11-14 12:45 7.56 261 749 (2020) 50 (2013) 293 50 50 50 308 452 530 749
2020-11-14 11:45 7.55 259 749 (2020) 50 (2013) 293 50 50 50 308 452 530 749
2020-11-14 10:45 7.55 259 749 (2020) 50 (2013) 293 50 50 50 308 452 530 749
2020-11-14 09:45 7.55 259 749 (2020) 50 (2013) 293 50 50 50 308 452 530 749
2020-11-14 08:45 7.61 274 749 (2020) 50 (2013) 293 50 50 50 308 452 530 749
2020-11-14 07:45 7.65 285 749 (2020) 50 (2013) 293 50 50 50 308 452 530 749
2020-11-14 06:45 7.68 293 749 (2020) 50 (2013) 293 50 50 50 308 452 530 749
2020-11-14 05:45 7.73 307 749 (2020) 50 (2013) 293 50 50 50 308 452 530 749
2020-11-14 04:45 7.78 321 749 (2020) 50 (2013) 293 50 50 50 308 452 530 749
2020-11-14 03:45 7.77 318 749 (2020) 50 (2013) 293 50 50 50 308 452 530 749
2020-11-14 02:45 7.74 310 749 (2020) 50 (2013) 293 50 50 50 308 452 530 749
2020-11-14 01:45 7.71 301 749 (2020) 50 (2013) 293 50 50 50 308 452 530 749
2020-11-14 00:45 7.72 304 749 (2020) 50 (2013) 293 50 50 50 308 452 530 749
2020-11-13 23:45 7.65 285 823 (2020) 50 (2013) 364 50 50 50 336 625 765 823
2020-11-13 22:45 7.57 264 823 (2020) 50 (2013) 364 50 50 50 336 625 765 823
2020-11-13 21:45 7.58 266 823 (2020) 50 (2013) 364 50 50 50 336 625 765 823
2020-11-13 20:45 7.64 282 823 (2020) 50 (2013) 364 50 50 50 336 625 765 823
2020-11-13 19:45 7.68 293 823 (2020) 50 (2013) 364 50 50 50 336 625 765 823
2020-11-13 18:45 7.71 301 823 (2020) 50 (2013) 364 50 50 50 336 625 765 823
2020-11-13 17:45 7.72 304 823 (2020) 50 (2013) 364 50 50 50 336 625 765 823
2020-11-13 16:45 7.69 296 823 (2020) 50 (2013) 364 50 50 50 336 625 765 823
2020-11-13 15:45 7.61 274 823 (2020) 50 (2013) 364 50 50 50 336 625 765 823
2020-11-13 14:45 7.58 266 823 (2020) 50 (2013) 364 50 50 50 336 625 765 823
2020-11-13 13:45 7.58 266 823 (2020) 50 (2013) 364 50 50 50 336 625 765 823
2020-11-13 12:45 7.60 272 823 (2020) 50 (2013) 364 50 50 50 336 625 765 823
2020-11-13 11:45 7.61 274 823 (2020) 50 (2013) 364 50 50 50 336 625 765 823
2020-11-13 10:45 7.60 272 823 (2020) 50 (2013) 364 50 50 50 336 625 765 823
2020-11-13 09:45 7.59 269 823 (2020) 50 (2013) 364 50 50 50 336 625 765 823
2020-11-13 08:45 7.61 274 823 (2020) 50 (2013) 364 50 50 50 336 625 765 823
2020-11-13 07:45 7.64 282 823 (2020) 50 (2013) 364 50 50 50 336 625 765 823
2020-11-13 06:45 7.69 296 823 (2020) 50 (2013) 364 50 50 50 336 625 765 823
2020-11-13 05:45 7.76 316 823 (2020) 50 (2013) 364 50 50 50 336 625 765 823
2020-11-13 04:45 7.78 321 823 (2020) 50 (2013) 364 50 50 50 336 625 765 823
2020-11-13 03:45 7.80 327 823 (2020) 50 (2013) 364 50 50 50 336 625 765 823
2020-11-13 02:45 7.80 327 823 (2020) 50 (2013) 364 50 50 50 336 625 765 823
2020-11-13 01:45 7.75 313 823 (2020) 50 (2013) 364 50 50 50 336 625 765 823
2020-11-13 00:45 7.70 299 823 (2020) 50 (2013) 364 50 50 50 336 625 765 823
2020-11-12 23:45 7.63 280 1060 (2014) 50 (2013) 447 50 50 50 440 776 828 1060
2020-11-12 22:45 7.62 277 1060 (2014) 50 (2013) 447 50 50 50 440 776 828 1060
2020-11-12 21:45 7.59 269 1060 (2014) 50 (2013) 447 50 50 50 440 776 828 1060
2020-11-12 20:45 7.57 264 1060 (2014) 50 (2013) 447 50 50 50 440 776 828 1060
2020-11-12 19:45 7.64 282 1060 (2014) 50 (2013) 447 50 50 50 440 776 828 1060
2020-11-12 18:45 7.61 274 1060 (2014) 50 (2013) 447 50 50 50 440 776 828 1060
2020-11-12 17:45 7.57 264 1060 (2014) 50 (2013) 447 50 50 50 440 776 828 1060
2020-11-12 16:45 7.55 259 1060 (2014) 50 (2013) 447 50 50 50 440 776 828 1060
2020-11-12 15:45 7.54 256 1060 (2014) 50 (2013) 447 50 50 50 440 776 828 1060
2020-11-12 14:45 7.59 269 1060 (2014) 50 (2013) 447 50 50 50 440 776 828 1060
2020-11-12 13:45 7.61 274 1060 (2014) 50 (2013) 447 50 50 50 440 776 828 1060
2020-11-12 12:45 7.61 274 1060 (2014) 50 (2013) 447 50 50 50 440 776 828 1060
2020-11-12 11:45 7.59 269 1060 (2014) 50 (2013) 447 50 50 50 440 776 828 1060
2020-11-12 10:45 7.60 272 1060 (2014) 50 (2013) 447 50 50 50 440 776 828 1060
2020-11-12 09:45 7.59 269 1060 (2014) 50 (2013) 447 50 50 50 440 776 828 1060
2020-11-12 08:45 7.62 277 1060 (2014) 50 (2013) 447 50 50 50 440 776 828 1060
2020-11-12 07:45 7.66 288 1060 (2014) 50 (2013) 447 50 50 50 440 776 828 1060
2020-11-12 06:45 7.69 296 1060 (2014) 50 (2013) 447 50 50 50 440 776 828 1060
2020-11-12 05:45 7.72 304 1060 (2014) 50 (2013) 447 50 50 50 440 776 828 1060
2020-11-12 04:45 7.74 310 1060 (2014) 50 (2013) 447 50 50 50 440 776 828 1060
2020-11-12 03:45 7.73 307 1060 (2014) 50 (2013) 447 50 50 50 440 776 828 1060
2020-11-12 02:45 7.72 304 1060 (2014) 50 (2013) 447 50 50 50 440 776 828 1060
2020-11-12 01:45 7.70 299 1060 (2014) 50 (2013) 447 50 50 50 440 776 828 1060
2020-11-12 00:45 7.67 290 1060 (2014) 50 (2013) 447 50 50 50 440 776 828 1060
2020-11-11 23:45 7.64 282 1660 (2012) 50 (2013) 623 50 50 50 472 1220 1590 1660
2020-11-11 22:45 7.63 280 1660 (2012) 50 (2013) 623 50 50 50 472 1220 1590 1660
2020-11-11 21:45 7.61 274 1660 (2012) 50 (2013) 623 50 50 50 472 1220 1590 1660
2020-11-11 20:45 7.63 280 1660 (2012) 50 (2013) 623 50 50 50 472 1220 1590 1660
2020-11-11 19:45 7.65 285 1660 (2012) 50 (2013) 623 50 50 50 472 1220 1590 1660
2020-11-11 18:45 7.66 288 1660 (2012) 50 (2013) 623 50 50 50 472 1220 1590 1660
2020-11-11 17:45 7.68 293 1660 (2012) 50 (2013) 623 50 50 50 472 1220 1590 1660
2020-11-11 16:45 7.67 290 1660 (2012) 50 (2013) 623 50 50 50 472 1220 1590 1660
2020-11-11 15:45 7.68 293 1660 (2012) 50 (2013) 623 50 50 50 472 1220 1590 1660
2020-11-11 14:45 7.69 296 1660 (2012) 50 (2013) 623 50 50 50 472 1220 1590 1660
2020-11-11 13:45 7.71 301 1660 (2012) 50 (2013) 623 50 50 50 472 1220 1590 1660
2020-11-11 12:45 7.71 301 1660 (2012) 50 (2013) 623 50 50 50 472 1220 1590 1660
2020-11-11 11:45 7.71 301 1660 (2012) 50 (2013) 623 50 50 50 472 1220 1590 1660
2020-11-11 10:45 7.68 293 1660 (2012) 50 (2013) 623 50 50 50 472 1220 1590 1660
2020-11-11 09:45 7.62 277 1660 (2012) 50 (2013) 623 50 50 50 472 1220 1590 1660
2020-11-11 08:45 7.61 274 1660 (2012) 50 (2013) 623 50 50 50 472 1220 1590 1660
2020-11-11 07:45 7.61 274 1660 (2012) 50 (2013) 623 50 50 50 472 1220 1590 1660
2020-11-11 06:45 7.62 277 1660 (2012) 50 (2013) 623 50 50 50 472 1220 1590 1660
2020-11-11 05:45 7.65 285 1660 (2012) 50 (2013) 623 50 50 50 472 1220 1590 1660
2020-11-11 04:45 7.66 288 1660 (2012) 50 (2013) 623 50 50 50 472 1220 1590 1660
2020-11-11 03:45 7.65 285 1660 (2012) 50 (2013) 623 50 50 50 472 1220 1590 1660
2020-11-11 02:45 7.61 274 1660 (2012) 50 (2013) 623 50 50 50 472 1220 1590 1660
2020-11-11 01:45 7.56 261 1660 (2012) 50 (2013) 623 50 50 50 472 1220 1590 1660
2020-11-11 00:45 7.56 261 1660 (2012) 50 (2013) 623 50 50 50 472 1220 1590 1660
2020-11-10 23:45 7.62 277 3680 (2014) 50 (2013) 1040 50 50 96 491 1930 2960 3680
2020-11-10 22:45 7.75 313 3680 (2014) 50 (2013) 1040 50 50 96 491 1930 2960 3680
2020-11-10 21:45 7.84 339 3680 (2014) 50 (2013) 1040 50 50 96 491 1930 2960 3680
2020-11-10 20:45 7.84 339 3680 (2014) 50 (2013) 1040 50 50 96 491 1930 2960 3680
2020-11-10 19:45 7.77 318 3680 (2014) 50 (2013) 1040 50 50 96 491 1930 2960 3680
2020-11-10 18:45 7.61 274 3680 (2014) 50 (2013) 1040 50 50 96 491 1930 2960 3680
2020-11-10 17:45 7.49 244 3680 (2014) 50 (2013) 1040 50 50 96 491 1930 2960 3680
2020-11-10 16:45 7.37 216 3680 (2014) 50 (2013) 1040 50 50 96 491 1930 2960 3680
2020-11-10 15:45 7.33 207 3680 (2014) 50 (2013) 1040 50 50 96 491 1930 2960 3680
2020-11-10 14:45 7.37 216 3680 (2014) 50 (2013) 1040 50 50 96 491 1930 2960 3680
2020-11-10 13:45 7.40 222 3680 (2014) 50 (2013) 1040 50 50 96 491 1930 2960 3680
2020-11-10 12:45 7.35 211 3680 (2014) 50 (2013) 1040 50 50 96 491 1930 2960 3680
2020-11-10 11:45 7.43 229 3680 (2014) 50 (2013) 1040 50 50 96 491 1930 2960 3680
2020-11-10 10:45 7.53 254 3680 (2014) 50 (2013) 1040 50 50 96 491 1930 2960 3680
2020-11-10 09:45 7.49 244 3680 (2014) 50 (2013) 1040 50 50 96 491 1930 2960 3680
2020-11-10 08:45 7.51 249 3680 (2014) 50 (2013) 1040 50 50 96 491 1930 2960 3680
2020-11-10 07:45 7.55 259 3680 (2014) 50 (2013) 1040 50 50 96 491 1930 2960 3680
2020-11-10 06:45 7.59 269 3680 (2014) 50 (2013) 1040 50 50 96 491 1930 2960 3680
2020-11-10 05:45 7.57 264 3680 (2014) 50 (2013) 1040 50 50 96 491 1930 2960 3680
2020-11-10 04:45 7.61 274 3680 (2014) 50 (2013) 1040 50 50 96 491 1930 2960 3680
2020-11-10 03:45 7.63 280 3680 (2014) 50 (2013) 1040 50 50 96 491 1930 2960 3680
2020-11-10 02:45 7.57 264 3680 (2014) 50 (2013) 1040 50 50 96 491 1930 2960 3680
2020-11-10 01:45 7.54 256 3680 (2014) 50 (2013) 1040 50 50 96 491 1930 2960 3680
2020-11-10 00:45 7.59 269 3680 (2014) 50 (2013) 1040 50 50 96 491 1930 2960 3680
2020-11-09 23:45 7.63 280 7850 (2014) 50 (2013) 1510 50 50 79 605 1860 2690 7850
2020-11-09 22:45 7.69 296 7850 (2014) 50 (2013) 1510 50 50 79 605 1860 2690 7850
2020-11-09 20:45 7.72 304 7850 (2014) 50 (2013) 1510 50 50 79 605 1860 2690 7850
2020-11-09 19:45 7.63 280 7850 (2014) 50 (2013) 1510 50 50 79 605 1860 2690 7850
2020-11-09 18:45 7.58 266 7850 (2014) 50 (2013) 1510 50 50 79 605 1860 2690 7850
2020-11-09 17:45 7.55 259 7850 (2014) 50 (2013) 1510 50 50 79 605 1860 2690 7850
2020-11-09 16:45 7.51 249 7850 (2014) 50 (2013) 1510 50 50 79 605 1860 2690 7850
2020-11-09 15:45 7.48 241 7850 (2014) 50 (2013) 1510 50 50 79 605 1860 2690 7850
2020-11-09 14:45 7.47 239 7850 (2014) 50 (2013) 1510 50 50 79 605 1860 2690 7850
2020-11-09 13:45 7.52 251 7850 (2014) 50 (2013) 1510 50 50 79 605 1860 2690 7850
2020-11-09 12:45 7.54 256 7850 (2014) 50 (2013) 1510 50 50 79 605 1860 2690 7850
2020-11-09 11:45 7.61 274 7850 (2014) 50 (2013) 1510 50 50 79 605 1860 2690 7850
2020-11-09 10:45 7.58 266 7850 (2014) 50 (2013) 1510 50 50 79 605 1860 2690 7850
2020-11-09 09:45 7.58 266 7850 (2014) 50 (2013) 1510 50 50 79 605 1860 2690 7850
2020-11-09 08:45 7.59 269 7850 (2014) 50 (2013) 1510 50 50 79 605 1860 2690 7850
2020-11-09 07:45 7.62 277 7850 (2014) 50 (2013) 1510 50 50 79 605 1860 2690 7850
2020-11-09 06:45 7.62 277 7850 (2014) 50 (2013) 1510 50 50 79 605 1860 2690 7850
2020-11-09 05:45 7.64 282 7850 (2014) 50 (2013) 1510 50 50 79 605 1860 2690 7850
2020-11-09 04:45 7.66 288 7850 (2014) 50 (2013) 1510 50 50 79 605 1860 2690 7850
2020-11-09 03:45 7.68 293 7850 (2014) 50 (2013) 1510 50 50 79 605 1860 2690 7850
2020-11-09 02:45 7.66 288 7850 (2014) 50 (2013) 1510 50 50 79 605 1860 2690 7850
2020-11-09 01:45 7.70 299 7850 (2014) 50 (2013) 1510 50 50 79 605 1860 2690 7850
2020-11-09 00:45 7.71 301 7850 (2014) 50 (2013) 1510 50 50 79 605 1860 2690 7850
2020-11-08 23:45 7.66 288 10200 (2014) 50 (2013) 1630 50 50 83 625 1130 1140 10200
2020-11-08 22:45 7.63 280 10200 (2014) 50 (2013) 1630 50 50 83 625 1130 1140 10200
2020-11-08 21:45 7.67 290 10200 (2014) 50 (2013) 1630 50 50 83 625 1130 1140 10200
2020-11-08 20:45 7.61 274 10200 (2014) 50 (2013) 1630 50 50 83 625 1130 1140 10200
2020-11-08 19:45 7.58 266 10200 (2014) 50 (2013) 1630 50 50 83 625 1130 1140 10200
2020-11-08 18:45 7.59 269 10200 (2014) 50 (2013) 1630 50 50 83 625 1130 1140 10200
2020-11-08 17:45 7.54 256 10200 (2014) 50 (2013) 1630 50 50 83 625 1130 1140 10200
2020-11-08 16:45 7.53 254 10200 (2014) 50 (2013) 1630 50 50 83 625 1130 1140 10200
2020-11-08 15:45 7.55 259 10200 (2014) 50 (2013) 1630 50 50 83 625 1130 1140 10200
2020-11-08 14:45 7.52 251 10200 (2014) 50 (2013) 1630 50 50 83 625 1130 1140 10200
2020-11-08 13:45 7.59 269 10200 (2014) 50 (2013) 1630 50 50 83 625 1130 1140 10200
2020-11-08 12:45 7.61 274 10200 (2014) 50 (2013) 1630 50 50 83 625 1130 1140 10200
2020-11-08 11:45 7.64 282 10200 (2014) 50 (2013) 1630 50 50 83 625 1130 1140 10200
2020-11-08 10:45 7.64 282 10200 (2014) 50 (2013) 1630 50 50 83 625 1130 1140 10200
2020-11-08 09:45 7.63 280 10200 (2014) 50 (2013) 1630 50 50 83 625 1130 1140 10200
2020-11-08 08:45 7.60 272 10200 (2014) 50 (2013) 1630 50 50 83 625 1130 1140 10200
2020-11-08 07:45 7.64 282 10200 (2014) 50 (2013) 1630 50 50 83 625 1130 1140 10200
2020-11-08 06:45 7.62 277 10200 (2014) 50 (2013) 1630 50 50 83 625 1130 1140 10200
2020-11-08 05:45 7.61 274 10200 (2014) 50 (2013) 1630 50 50 83 625 1130 1140 10200
2020-11-08 04:45 7.61 274 10200 (2014) 50 (2013) 1630 50 50 83 625 1130 1140 10200
2020-11-08 03:45 7.62 277 10200 (2014) 50 (2013) 1630 50 50 83 625 1130 1140 10200
2020-11-08 02:45 7.64 282 10200 (2014) 50 (2013) 1630 50 50 83 625 1130 1140 10200
2020-11-08 01:45 7.66 288 10200 (2014) 50 (2013) 1630 50 50 83 625 1130 1140 10200
2020-11-08 00:45 7.69 296 10200 (2014) 50 (2013) 1630 50 50 83 625 1130 1140 10200
2020-11-07 23:45 7.71 301 5650 (2014) 50 (2012) 1000 50 50 50 331 1200 1310 5650
2020-11-07 22:45 7.74 310 5650 (2014) 50 (2012) 1000 50 50 50 331 1200 1310 5650
2020-11-07 21:45 7.74 310 5650 (2014) 50 (2012) 1000 50 50 50 331 1200 1310 5650
2020-11-07 20:45 7.72 304 5650 (2014) 50 (2012) 1000 50 50 50 331 1200 1310 5650
2020-11-07 19:45 7.67 290 5650 (2014) 50 (2012) 1000 50 50 50 331 1200 1310 5650
2020-11-07 18:45 7.60 272 5650 (2014) 50 (2012) 1000 50 50 50 331 1200 1310 5650
2020-11-07 17:45 7.54 256 5650 (2014) 50 (2012) 1000 50 50 50 331 1200 1310 5650
2020-11-07 16:45 7.51 249 5650 (2014) 50 (2012) 1000 50 50 50 331 1200 1310 5650
2020-11-07 15:45 7.45 234 5650 (2014) 50 (2012) 1000 50 50 50 331 1200 1310 5650
2020-11-07 14:45 7.46 236 5650 (2014) 50 (2012) 1000 50 50 50 331 1200 1310 5650
2020-11-07 13:45 7.56 261 5650 (2014) 50 (2012) 1000 50 50 50 331 1200 1310 5650
2020-11-07 12:45 7.56 261 5650 (2014) 50 (2012) 1000 50 50 50 331 1200 1310 5650
2020-11-07 11:45 7.60 272 5650 (2014) 50 (2012) 1000 50 50 50 331 1200 1310 5650
2020-11-07 10:45 7.63 280 5650 (2014) 50 (2012) 1000 50 50 50 331 1200 1310 5650
2020-11-07 09:45 7.64 282 5650 (2014) 50 (2012) 1000 50 50 50 331 1200 1310 5650
2020-11-07 08:45 7.64 282 5650 (2014) 50 (2012) 1000 50 50 50 331 1200 1310 5650
2020-11-07 07:45 7.66 288 5650 (2014) 50 (2012) 1000 50 50 50 331 1200 1310 5650
2020-11-07 06:45 7.66 288 5650 (2014) 50 (2012) 1000 50 50 50 331 1200 1310 5650
2020-11-07 05:45 7.63 280 5650 (2014) 50 (2012) 1000 50 50 50 331 1200 1310 5650
2020-11-07 04:45 7.61 274 5650 (2014) 50 (2012) 1000 50 50 50 331 1200 1310 5650
2020-11-07 03:45 7.61 274 5650 (2014) 50 (2012) 1000 50 50 50 331 1200 1310 5650
2020-11-07 02:45 7.62 277 5650 (2014) 50 (2012) 1000 50 50 50 331 1200 1310 5650
2020-11-07 01:45 7.61 274 5650 (2014) 50 (2012) 1000 50 50 50 331 1200 1310 5650
2020-11-07 00:45 7.62 277 5650 (2014) 50 (2012) 1000 50 50 50 331 1200 1310 5650
2020-11-06 23:45 7.64 282 1660 (2020) 50 (2012) 596 50 50 50 321 1360 1590 1660
2020-11-06 22:45 7.64 282 1660 (2020) 50 (2012) 596 50 50 50 321 1360 1590 1660
2020-11-06 21:45 7.64 282 1660 (2020) 50 (2012) 596 50 50 50 321 1360 1590 1660
2020-11-06 20:45 7.64 282 1660 (2020) 50 (2012) 596 50 50 50 321 1360 1590 1660
2020-11-06 19:45 7.63 280 1660 (2020) 50 (2012) 596 50 50 50 321 1360 1590 1660
2020-11-06 18:45 7.61 274 1660 (2020) 50 (2012) 596 50 50 50 321 1360 1590 1660
2020-11-06 17:45 7.62 277 1660 (2020) 50 (2012) 596 50 50 50 321 1360 1590 1660
2020-11-06 16:45 7.61 274 1660 (2020) 50 (2012) 596 50 50 50 321 1360 1590 1660
2020-11-06 15:45 7.60 272 1660 (2020) 50 (2012) 596 50 50 50 321 1360 1590 1660
2020-11-06 14:45 7.61 274 1660 (2020) 50 (2012) 596 50 50 50 321 1360 1590 1660
2020-11-06 13:45 7.60 272 1660 (2020) 50 (2012) 596 50 50 50 321 1360 1590 1660
2020-11-06 12:45 7.58 266 1660 (2020) 50 (2012) 596 50 50 50 321 1360 1590 1660
2020-11-06 11:45 7.58 266 1660 (2020) 50 (2012) 596 50 50 50 321 1360 1590 1660
2020-11-06 10:45 7.58 266 1660 (2020) 50 (2012) 596 50 50 50 321 1360 1590 1660
2020-11-06 09:45 7.61 274 1660 (2020) 50 (2012) 596 50 50 50 321 1360 1590 1660
2020-11-06 08:45 7.61 274 1660 (2020) 50 (2012) 596 50 50 50 321 1360 1590 1660
2020-11-06 07:45 7.63 280 1660 (2020) 50 (2012) 596 50 50 50 321 1360 1590 1660
2020-11-06 06:45 7.67 290 1660 (2020) 50 (2012) 596 50 50 50 321 1360 1590 1660
2020-11-06 05:45 7.70 299 1660 (2020) 50 (2012) 596 50 50 50 321 1360 1590 1660
2020-11-06 04:45 7.69 296 1660 (2020) 50 (2012) 596 50 50 50 321 1360 1590 1660
2020-11-06 03:45 7.63 280 1660 (2020) 50 (2012) 596 50 50 50 321 1360 1590 1660
2020-11-06 02:45 7.53 254 1660 (2020) 50 (2012) 596 50 50 50 321 1360 1590 1660
2020-11-06 01:45 7.46 236 1660 (2020) 50 (2012) 596 50 50 50 321 1360 1590 1660
2020-11-06 00:45 7.45 234 1660 (2020) 50 (2012) 596 50 50 50 321 1360 1590 1660
2020-11-05 23:45 7.52 251 3790 (2014) 50 (2012) 956 50 50 50 368 1810 2180 3790
2020-11-05 22:45 7.61 274 3790 (2014) 50 (2012) 956 50 50 50 368 1810 2180 3790
2020-11-05 21:45 7.70 299 3790 (2014) 50 (2012) 956 50 50 50 368 1810 2180 3790
2020-11-05 20:45 7.73 307 3790 (2014) 50 (2012) 956 50 50 50 368 1810 2180 3790
2020-11-05 19:45 7.73 307 3790 (2014) 50 (2012) 956 50 50 50 368 1810 2180 3790
2020-11-05 18:45 7.71 301 3790 (2014) 50 (2012) 956 50 50 50 368 1810 2180 3790
2020-11-05 17:45 7.68 293 3790 (2014) 50 (2012) 956 50 50 50 368 1810 2180 3790
2020-11-05 16:45 7.64 282 3790 (2014) 50 (2012) 956 50 50 50 368 1810 2180 3790
2020-11-05 15:45 7.61 274 3790 (2014) 50 (2012) 956 50 50 50 368 1810 2180 3790
2020-11-05 14:45 7.59 269 3790 (2014) 50 (2012) 956 50 50 50 368 1810 2180 3790
2020-11-05 13:45 7.59 269 3790 (2014) 50 (2012) 956 50 50 50 368 1810 2180 3790
2020-11-05 12:45 7.63 280 3790 (2014) 50 (2012) 956 50 50 50 368 1810 2180 3790
2020-11-05 11:45 7.64 282 3790 (2014) 50 (2012) 956 50 50 50 368 1810 2180 3790
2020-11-05 10:45 7.68 293 3790 (2014) 50 (2012) 956 50 50 50 368 1810 2180 3790
2020-11-05 09:45 7.70 299 3790 (2014) 50 (2012) 956 50 50 50 368 1810 2180 3790
2020-11-05 08:45 7.72 304 3790 (2014) 50 (2012) 956 50 50 50 368 1810 2180 3790
2020-11-05 07:45 7.72 304 3790 (2014) 50 (2012) 956 50 50 50 368 1810 2180 3790
2020-11-05 06:45 7.70 299 3790 (2014) 50 (2012) 956 50 50 50 368 1810 2180 3790
2020-11-05 05:45 7.67 290 3790 (2014) 50 (2012) 956 50 50 50 368 1810 2180 3790
2020-11-05 04:45 7.64 282 3790 (2014) 50 (2012) 956 50 50 50 368 1810 2180 3790
2020-11-05 03:45 7.61 274 3790 (2014) 50 (2012) 956 50 50 50 368 1810 2180 3790
2020-11-05 02:45 7.61 274 3790 (2014) 50 (2012) 956 50 50 50 368 1810 2180 3790
2020-11-05 01:45 7.63 280 3790 (2014) 50 (2012) 956 50 50 50 368 1810 2180 3790
2020-11-05 00:45 7.66 288 3790 (2014) 50 (2012) 956 50 50 50 368 1810 2180 3790
2020-11-04 23:45 7.70 299 10200 (2014) 50 (2012) 1930 50 50 50 430 2890 3930 10200
2020-11-04 22:45 7.72 304 10200 (2014) 50 (2012) 1930 50 50 50 430 2890 3930 10200
2020-11-04 21:45 7.73 307 10200 (2014) 50 (2012) 1930 50 50 50 430 2890 3930 10200
2020-11-04 20:45 7.74 310 10200 (2014) 50 (2012) 1930 50 50 50 430 2890 3930 10200
2020-11-04 19:45 7.72 304 10200 (2014) 50 (2012) 1930 50 50 50 430 2890 3930 10200
2020-11-04 18:45 7.68 293 10200 (2014) 50 (2012) 1930 50 50 50 430 2890 3930 10200
2020-11-04 17:45 7.62 277 10200 (2014) 50 (2012) 1930 50 50 50 430 2890 3930 10200
2020-11-04 16:45 7.56 261 10200 (2014) 50 (2012) 1930 50 50 50 430 2890 3930 10200
2020-11-04 15:45 7.50 246 10200 (2014) 50 (2012) 1930 50 50 50 430 2890 3930 10200
2020-11-04 14:45 7.42 227 10200 (2014) 50 (2012) 1930 50 50 50 430 2890 3930 10200
2020-11-04 13:45 7.46 236 10200 (2014) 50 (2012) 1930 50 50 50 430 2890 3930 10200
2020-11-04 12:45 7.53 254 10200 (2014) 50 (2012) 1930 50 50 50 430 2890 3930 10200
2020-11-04 11:45 7.53 254 10200 (2014) 50 (2012) 1930 50 50 50 430 2890 3930 10200
2020-11-04 10:45 7.58 266 10200 (2014) 50 (2012) 1930 50 50 50 430 2890 3930 10200
2020-11-04 09:45 7.60 272 10200 (2014) 50 (2012) 1930 50 50 50 430 2890 3930 10200
2020-11-04 08:45 7.66 288 10200 (2014) 50 (2012) 1930 50 50 50 430 2890 3930 10200
2020-11-04 07:45 7.65 285 10200 (2014) 50 (2012) 1930 50 50 50 430 2890 3930 10200
2020-11-04 06:45 7.65 285 10200 (2014) 50 (2012) 1930 50 50 50 430 2890 3930 10200
2020-11-04 05:45 7.66 288 10200 (2014) 50 (2012) 1930 50 50 50 430 2890 3930 10200
2020-11-04 04:45 7.64 282 10200 (2014) 50 (2012) 1930 50 50 50 430 2890 3930 10200
2020-11-04 03:45 7.64 282 10200 (2014) 50 (2012) 1930 50 50 50 430 2890 3930 10200
2020-11-04 02:45 7.62 277 10200 (2014) 50 (2012) 1930 50 50 50 430 2890 3930 10200
2020-11-04 01:45 7.65 285 10200 (2014) 50 (2012) 1930 50 50 50 430 2890 3930 10200
2020-11-04 00:45 7.70 299 10200 (2014) 50 (2012) 1930 50 50 50 430 2890 3930 10200
2020-11-03 23:45 7.74 310 14100 (2014) 50 (2012) 2730 50 50 50 481 4410 6830 14100
2020-11-03 22:45 7.76 316 14100 (2014) 50 (2012) 2730 50 50 50 481 4410 6830 14100
2020-11-03 21:45 7.72 304 14100 (2014) 50 (2012) 2730 50 50 50 481 4410 6830 14100
2020-11-03 20:45 7.67 290 14100 (2014) 50 (2012) 2730 50 50 50 481 4410 6830 14100
2020-11-03 19:45 7.61 274 14100 (2014) 50 (2012) 2730 50 50 50 481 4410 6830 14100
2020-11-03 18:45 7.58 266 14100 (2014) 50 (2012) 2730 50 50 50 481 4410 6830 14100
2020-11-03 17:45 7.55 259 14100 (2014) 50 (2012) 2730 50 50 50 481 4410 6830 14100
2020-11-03 16:45 7.55 259 14100 (2014) 50 (2012) 2730 50 50 50 481 4410 6830 14100
2020-11-03 15:45 7.55 259 14100 (2014) 50 (2012) 2730 50 50 50 481 4410 6830 14100
2020-11-03 14:45 7.54 256 14100 (2014) 50 (2012) 2730 50 50 50 481 4410 6830 14100
2020-11-03 13:45 7.57 264 14100 (2014) 50 (2012) 2730 50 50 50 481 4410 6830 14100
2020-11-03 12:45 7.57 264 14100 (2014) 50 (2012) 2730 50 50 50 481 4410 6830 14100
2020-11-03 11:45 7.66 288 14100 (2014) 50 (2012) 2730 50 50 50 481 4410 6830 14100
2020-11-03 10:45 7.68 293 14100 (2014) 50 (2012) 2730 50 50 50 481 4410 6830 14100
2020-11-03 09:45 7.66 288 14100 (2014) 50 (2012) 2730 50 50 50 481 4410 6830 14100
2020-11-03 08:45 7.71 301 14100 (2014) 50 (2012) 2730 50 50 50 481 4410 6830 14100
2020-11-03 07:45 7.71 301 14100 (2014) 50 (2012) 2730 50 50 50 481 4410 6830 14100
2020-11-03 06:45 7.72 304 14100 (2014) 50 (2012) 2730 50 50 50 481 4410 6830 14100
2020-11-03 05:45 7.71 301 14100 (2014) 50 (2012) 2730 50 50 50 481 4410 6830 14100
2020-11-03 04:45 7.69 296 14100 (2014) 50 (2012) 2730 50 50 50 481 4410 6830 14100
2020-11-03 03:45 7.67 290 14100 (2014) 50 (2012) 2730 50 50 50 481 4410 6830 14100
2020-11-03 02:45 7.67 290 14100 (2014) 50 (2012) 2730 50 50 50 481 4410 6830 14100
2020-11-03 01:45 7.71 301 14100 (2014) 50 (2012) 2730 50 50 50 481 4410 6830 14100
2020-11-03 00:45 7.76 316 14100 (2014) 50 (2012) 2730 50 50 50 481 4410 6830 14100
2020-11-02 23:45 7.82 333 12500 (2014) 50 (2012) 2760 50 50 50 482 5220 8210 12500
2020-11-02 22:45 7.83 336 12500 (2014) 50 (2012) 2760 50 50 50 482 5220 8210 12500
2020-11-02 21:45 7.79 324 12500 (2014) 50 (2012) 2760 50 50 50 482 5220 8210 12500
2020-11-02 20:45 7.72 304 12500 (2014) 50 (2012) 2760 50 50 50 482 5220 8210 12500
2020-11-02 19:45 7.67 290 12500 (2014) 50 (2012) 2760 50 50 50 482 5220 8210 12500
2020-11-02 18:45 7.62 277 12500 (2014) 50 (2012) 2760 50 50 50 482 5220 8210 12500
2020-11-02 17:45 7.59 269 12500 (2014) 50 (2012) 2760 50 50 50 482 5220 8210 12500
2020-11-02 16:45 7.57 264 12500 (2014) 50 (2012) 2760 50 50 50 482 5220 8210 12500
2020-11-02 15:45 7.56 261 12500 (2014) 50 (2012) 2760 50 50 50 482 5220 8210 12500
2020-11-02 14:45 7.53 254 12500 (2014) 50 (2012) 2760 50 50 50 482 5220 8210 12500
2020-11-02 13:45 7.61 274 12500 (2014) 50 (2012) 2760 50 50 50 482 5220 8210 12500
2020-11-02 12:45 7.63 280 12500 (2014) 50 (2012) 2760 50 50 50 482 5220 8210 12500
2020-11-02 11:45 7.64 282 12500 (2014) 50 (2012) 2760 50 50 50 482 5220 8210 12500
2020-11-02 10:45 7.64 282 12500 (2014) 50 (2012) 2760 50 50 50 482 5220 8210 12500
2020-11-02 09:45 7.67 290 12500 (2014) 50 (2012) 2760 50 50 50 482 5220 8210 12500
2020-11-02 08:45 7.74 310 12500 (2014) 50 (2012) 2760 50 50 50 482 5220 8210 12500
2020-11-02 07:45 7.76 316 12500 (2014) 50 (2012) 2760 50 50 50 482 5220 8210 12500
2020-11-02 06:45 7.79 324 12500 (2014) 50 (2012) 2760 50 50 50 482 5220 8210 12500
2020-11-02 05:45 7.79 324 12500 (2014) 50 (2012) 2760 50 50 50 482 5220 8210 12500
2020-11-02 04:45 7.78 321 12500 (2014) 50 (2012) 2760 50 50 50 482 5220 8210 12500
2020-11-02 03:45 7.76 316 12500 (2014) 50 (2012) 2760 50 50 50 482 5220 8210 12500
2020-11-02 02:45 7.72 304 12500 (2014) 50 (2012) 2760 50 50 50 482 5220 8210 12500
2020-11-02 01:45 7.69 296 12500 (2014) 50 (2012) 2760 50 50 50 482 5220 8210 12500
2020-11-02 00:45 7.67 290 12500 (2014) 50 (2012) 2760 50 50 50 482 5220 8210 12500
2020-11-01 23:45 7.67 290 8750 (2020) 50 (2012) 2280 50 50 50 460 4820 7300 8750
2020-11-01 22:45 7.67 290 8750 (2020) 50 (2012) 2280 50 50 50 460 4820 7300 8750
2020-11-01 21:45 7.70 299 8750 (2020) 50 (2012) 2280 50 50 50 460 4820 7300 8750
2020-11-01 20:45 7.72 304 8750 (2020) 50 (2012) 2280 50 50 50 460 4820 7300 8750
2020-11-01 19:45 7.76 316 8750 (2020) 50 (2012) 2280 50 50 50 460 4820 7300 8750
2020-11-01 18:45 7.79 324 8750 (2020) 50 (2012) 2280 50 50 50 460 4820 7300 8750
2020-11-01 17:45 7.82 333 8750 (2020) 50 (2012) 2280 50 50 50 460 4820 7300 8750
2020-11-01 16:45 7.77 318 8750 (2020) 50 (2012) 2280 50 50 50 460 4820 7300 8750
2020-11-01 15:45 7.78 321 8750 (2020) 50 (2012) 2280 50 50 50 460 4820 7300 8750
2020-11-01 14:45 7.76 316 8750 (2020) 50 (2012) 2280 50 50 50 460 4820 7300 8750
2020-11-01 13:45 7.73 307 8750 (2020) 50 (2012) 2280 50 50 50 460 4820 7300 8750
2020-11-01 07:45 7.72 304 8750 (2020) 50 (2012) 2280 50 50 50 460 4820 7300 8750
2020-11-01 06:45 7.76 316 8750 (2020) 50 (2012) 2280 50 50 50 460 4820 7300 8750
2020-11-01 05:45 7.76 316 8750 (2020) 50 (2012) 2280 50 50 50 460 4820 7300 8750
2020-11-01 04:45 7.70 299 8750 (2020) 50 (2012) 2280 50 50 50 460 4820 7300 8750
2020-11-01 03:45 7.69 296 8750 (2020) 50 (2012) 2280 50 50 50 460 4820 7300 8750
2020-11-01 01:45 7.68 293 8750 (2020) 50 (2012) 2280 50 50 50 460 4820 7300 8750
2020-11-01 00:45 7.76 316 8750 (2020) 50 (2012) 2280 50 50 50 460 4820 7300 8750
2020-10-31 23:45 7.74 310 8510 (2020) 50 (2012) 1740 50 50 50 475 2570 2690 8510
2020-10-31 22:45 7.70 299 8510 (2020) 50 (2012) 1740 50 50 50 475 2570 2690 8510
2020-10-31 21:45 7.69 296 8510 (2020) 50 (2012) 1740 50 50 50 475 2570 2690 8510
2020-10-31 20:45 7.63 280 8510 (2020) 50 (2012) 1740 50 50 50 475 2570 2690 8510
2020-10-31 19:45 7.59 269 8510 (2020) 50 (2012) 1740 50 50 50 475 2570 2690 8510
2020-10-31 18:45 7.56 261 8510 (2020) 50 (2012) 1740 50 50 50 475 2570 2690 8510
2020-10-31 17:45 7.52 251 8510 (2020) 50 (2012) 1740 50 50 50 475 2570 2690 8510
2020-10-31 16:45 7.48 241 8510 (2020) 50 (2012) 1740 50 50 50 475 2570 2690 8510
2020-10-31 15:45 7.51 249 8510 (2020) 50 (2012) 1740 50 50 50 475 2570 2690 8510
2020-10-31 13:45 7.54 256 8510 (2020) 50 (2012) 1740 50 50 50 475 2570 2690 8510
2020-10-31 12:45 7.56 261 8510 (2020) 50 (2012) 1740 50 50 50 475 2570 2690 8510
2020-10-31 11:45 7.62 277 8510 (2020) 50 (2012) 1740 50 50 50 475 2570 2690 8510
2020-10-31 10:45 7.64 282 8510 (2020) 50 (2012) 1740 50 50 50 475 2570 2690 8510
2020-10-31 09:45 7.64 282 8510 (2020) 50 (2012) 1740 50 50 50 475 2570 2690 8510
2020-10-31 08:45 7.66 288 8510 (2020) 50 (2012) 1740 50 50 50 475 2570 2690 8510
2020-10-31 07:45 7.68 293 8510 (2020) 50 (2012) 1740 50 50 50 475 2570 2690 8510
2020-10-31 06:45 7.67 290 8510 (2020) 50 (2012) 1740 50 50 50 475 2570 2690 8510
2020-10-31 05:45 7.68 293 8510 (2020) 50 (2012) 1740 50 50 50 475 2570 2690 8510
2020-10-31 04:45 7.67 290 8510 (2020) 50 (2012) 1740 50 50 50 475 2570 2690 8510
2020-10-31 03:45 7.66 288 8510 (2020) 50 (2012) 1740 50 50 50 475 2570 2690 8510
2020-10-31 02:45 7.66 288 8510 (2020) 50 (2012) 1740 50 50 50 475 2570 2690 8510
2020-10-31 01:45 7.66 288 8510 (2020) 50 (2012) 1740 50 50 50 475 2570 2690 8510
2020-10-31 00:45 7.66 288 8510 (2020) 50 (2012) 1740 50 50 50 475 2570 2690 8510
2020-10-30 23:45 7.65 285 4880 (2020) 50 (2012) 1170 50 50 50 398 2050 2610 4880
2020-10-30 22:45 7.64 282 4880 (2020) 50 (2012) 1170 50 50 50 398 2050 2610 4880
2020-10-30 21:45 7.64 282 4880 (2020) 50 (2012) 1170 50 50 50 398 2050 2610 4880
2020-10-30 20:45 7.64 282 4880 (2020) 50 (2012) 1170 50 50 50 398 2050 2610 4880
2020-10-30 19:45 7.64 282 4880 (2020) 50 (2012) 1170 50 50 50 398 2050 2610 4880
2020-10-30 18:45 7.64 282 4880 (2020) 50 (2012) 1170 50 50 50 398 2050 2610 4880
2020-10-30 17:45 7.64 282 4880 (2020) 50 (2012) 1170 50 50 50 398 2050 2610 4880
2020-10-30 16:45 7.64 282 4880 (2020) 50 (2012) 1170 50 50 50 398 2050 2610 4880
2020-10-30 15:45 7.65 285 4880 (2020) 50 (2012) 1170 50 50 50 398 2050 2610 4880
2020-10-30 14:45 7.68 293 4880 (2020) 50 (2012) 1170 50 50 50 398 2050 2610 4880
2020-10-30 13:45 7.71 301 4880 (2020) 50 (2012) 1170 50 50 50 398 2050 2610 4880
2020-10-30 12:45 7.70 299 4880 (2020) 50 (2012) 1170 50 50 50 398 2050 2610 4880
2020-10-30 11:45 7.68 293 4880 (2020) 50 (2012) 1170 50 50 50 398 2050 2610 4880
2020-10-30 10:45 7.67 290 4880 (2020) 50 (2012) 1170 50 50 50 398 2050 2610 4880
2020-10-30 09:45 7.65 285 4880 (2020) 50 (2012) 1170 50 50 50 398 2050 2610 4880
2020-10-30 08:45 7.63 280 4880 (2020) 50 (2012) 1170 50 50 50 398 2050 2610 4880
2020-10-30 07:45 7.63 280 4880 (2020) 50 (2012) 1170 50 50 50 398 2050 2610 4880
2020-10-30 06:45 7.68 293 4880 (2020) 50 (2012) 1170 50 50 50 398 2050 2610 4880
2020-10-30 05:45 7.70 299 4880 (2020) 50 (2012) 1170 50 50 50 398 2050 2610 4880
2020-10-30 04:45 7.67 290 4880 (2020) 50 (2012) 1170 50 50 50 398 2050 2610 4880
2020-10-30 03:45 7.59 269 4880 (2020) 50 (2012) 1170 50 50 50 398 2050 2610 4880
2020-10-30 02:45 7.51 249 4880 (2020) 50 (2012) 1170 50 50 50 398 2050 2610 4880
2020-10-30 01:45 7.44 232 4880 (2020) 50 (2012) 1170 50 50 50 398 2050 2610 4880
2020-10-30 00:45 7.44 232 4880 (2020) 50 (2012) 1170 50 50 50 398 2050 2610 4880
2020-10-29 23:45 7.51 249 2690 (2019) 50 (2012) 796 50 50 50 566 1540 1990 2690
2020-10-29 22:45 7.59 269 2690 (2019) 50 (2012) 796 50 50 50 566 1540 1990 2690
2020-10-29 21:45 7.61 274 2690 (2019) 50 (2012) 796 50 50 50 566 1540 1990 2690
2020-10-29 20:45 7.64 282 2690 (2019) 50 (2012) 796 50 50 50 566 1540 1990 2690
2020-10-29 19:45 7.69 296 2690 (2019) 50 (2012) 796 50 50 50 566 1540 1990 2690
2020-10-29 17:45 7.70 299 2690 (2019) 50 (2012) 796 50 50 50 566 1540 1990 2690
2020-10-29 16:45 7.68 293 2690 (2019) 50 (2012) 796 50 50 50 566 1540 1990 2690
2020-10-29 15:45 7.63 280 2690 (2019) 50 (2012) 796 50 50 50 566 1540 1990 2690
2020-10-29 14:45 7.56 261 2690 (2019) 50 (2012) 796 50 50 50 566 1540 1990 2690
2020-10-29 13:45 7.54 256 2690 (2019) 50 (2012) 796 50 50 50 566 1540 1990 2690
2020-10-29 12:45 7.51 249 2690 (2019) 50 (2012) 796 50 50 50 566 1540 1990 2690
2020-10-29 11:45 7.56 261 2690 (2019) 50 (2012) 796 50 50 50 566 1540 1990 2690
2020-10-29 10:45 7.60 272 2690 (2019) 50 (2012) 796 50 50 50 566 1540 1990 2690
2020-10-29 09:45 7.66 288 2690 (2019) 50 (2012) 796 50 50 50 566 1540 1990 2690
2020-10-29 08:45 7.72 304 2690 (2019) 50 (2012) 796 50 50 50 566 1540 1990 2690
2020-10-29 07:45 7.72 304 2690 (2019) 50 (2012) 796 50 50 50 566 1540 1990 2690
2020-10-29 06:45 7.70 299 2690 (2019) 50 (2012) 796 50 50 50 566 1540 1990 2690
2020-10-29 05:45 7.69 296 2690 (2019) 50 (2012) 796 50 50 50 566 1540 1990 2690
2020-10-29 04:45 7.66 288 2690 (2019) 50 (2012) 796 50 50 50 566 1540 1990 2690
2020-10-29 03:45 7.64 282 2690 (2019) 50 (2012) 796 50 50 50 566 1540 1990 2690
2020-10-29 02:45 7.61 274 2690 (2019) 50 (2012) 796 50 50 50 566 1540 1990 2690
2020-10-29 01:45 7.59 269 2690 (2019) 50 (2012) 796 50 50 50 566 1540 1990 2690
2020-10-29 00:45 7.53 254 2690 (2019) 50 (2012) 796 50 50 50 566 1540 1990 2690
2020-10-28 23:45 7.59 269 2750 (2019) 50 (2012) 896 50 50 50 620 1910 2590 2750
2020-10-28 22:45 7.59 269 2750 (2019) 50 (2012) 896 50 50 50 620 1910 2590 2750
2020-10-28 21:45 7.59 269 2750 (2019) 50 (2012) 896 50 50 50 620 1910 2590 2750
2020-10-28 20:45 7.59 269 2750 (2019) 50 (2012) 896 50 50 50 620 1910 2590 2750
2020-10-28 19:45 7.61 274 2750 (2019) 50 (2012) 896 50 50 50 620 1910 2590 2750
2020-10-28 18:45 7.60 272 2750 (2019) 50 (2012) 896 50 50 50 620 1910 2590 2750
2020-10-28 17:45 7.60 272 2750 (2019) 50 (2012) 896 50 50 50 620 1910 2590 2750
2020-10-28 16:45 7.63 280 2750 (2019) 50 (2012) 896 50 50 50 620 1910 2590 2750
2020-10-28 15:45 7.59 269 2750 (2019) 50 (2012) 896 50 50 50 620 1910 2590 2750
2020-10-28 14:45 7.64 282 2750 (2019) 50 (2012) 896 50 50 50 620 1910 2590 2750
2020-10-28 13:45 7.63 280 2750 (2019) 50 (2012) 896 50 50 50 620 1910 2590 2750
2020-10-28 12:45 7.62 277 2750 (2019) 50 (2012) 896 50 50 50 620 1910 2590 2750
2020-10-28 11:45 7.61 274 2750 (2019) 50 (2012) 896 50 50 50 620 1910 2590 2750
2020-10-28 10:45 7.58 266 2750 (2019) 50 (2012) 896 50 50 50 620 1910 2590 2750
2020-10-28 09:45 7.53 254 2750 (2019) 50 (2012) 896 50 50 50 620 1910 2590 2750
2020-10-28 08:45 7.49 244 2750 (2019) 50 (2012) 896 50 50 50 620 1910 2590 2750
2020-10-28 07:45 7.50 246 2750 (2019) 50 (2012) 896 50 50 50 620 1910 2590 2750
2020-10-28 06:45 7.53 254 2750 (2019) 50 (2012) 896 50 50 50 620 1910 2590 2750
2020-10-28 05:45 7.53 254 2750 (2019) 50 (2012) 896 50 50 50 620 1910 2590 2750
2020-10-28 04:45 7.49 244 2750 (2019) 50 (2012) 896 50 50 50 620 1910 2590 2750
2020-10-28 03:45 7.42 227 2750 (2019) 50 (2012) 896 50 50 50 620 1910 2590 2750
2020-10-28 02:45 7.35 211 2750 (2019) 50 (2012) 896 50 50 50 620 1910 2590 2750
2020-10-28 01:45 7.36 214 2750 (2019) 50 (2012) 896 50 50 50 620 1910 2590 2750
2020-10-28 00:45 7.37 216 2750 (2019) 50 (2012) 896 50 50 50 620 1910 2590 2750
2020-10-27 23:45 7.47 239 4490 (2018) 50 (2012) 1140 50 50 50 626 2040 2890 4490
2020-10-27 22:45 7.54 256 4490 (2018) 50 (2012) 1140 50 50 50 626 2040 2890 4490
2020-10-27 21:45 7.58 266 4490 (2018) 50 (2012) 1140 50 50 50 626 2040 2890 4490
2020-10-27 20:45 7.54 256 4490 (2018) 50 (2012) 1140 50 50 50 626 2040 2890 4490
2020-10-27 19:45 7.57 264 4490 (2018) 50 (2012) 1140 50 50 50 626 2040 2890 4490
2020-10-27 18:45 7.58 266 4490 (2018) 50 (2012) 1140 50 50 50 626 2040 2890 4490
2020-10-27 17:45 7.60 272 4490 (2018) 50 (2012) 1140 50 50 50 626 2040 2890 4490
2020-10-27 16:45 7.59 269 4490 (2018) 50 (2012) 1140 50 50 50 626 2040 2890 4490
2020-10-27 15:45 7.62 277 4490 (2018) 50 (2012) 1140 50 50 50 626 2040 2890 4490
2020-10-27 14:45 7.60 272 4490 (2018) 50 (2012) 1140 50 50 50 626 2040 2890 4490
2020-10-27 13:45 7.64 282 4490 (2018) 50 (2012) 1140 50 50 50 626 2040 2890 4490
2020-10-27 12:45 7.59 269 4490 (2018) 50 (2012) 1140 50 50 50 626 2040 2890 4490
2020-10-27 11:45 7.54 256 4490 (2018) 50 (2012) 1140 50 50 50 626 2040 2890 4490
2020-10-27 10:45 7.50 246 4490 (2018) 50 (2012) 1140 50 50 50 626 2040 2890 4490
2020-10-27 09:45 7.51 249 4490 (2018) 50 (2012) 1140 50 50 50 626 2040 2890 4490
2020-10-27 08:45 7.51 249 4490 (2018) 50 (2012) 1140 50 50 50 626 2040 2890 4490
2020-10-27 07:45 7.53 254 4490 (2018) 50 (2012) 1140 50 50 50 626 2040 2890 4490
2020-10-27 06:45 7.53 254 4490 (2018) 50 (2012) 1140 50 50 50 626 2040 2890 4490
2020-10-27 05:45 7.58 266 4490 (2018) 50 (2012) 1140 50 50 50 626 2040 2890 4490
2020-10-27 04:45 7.55 259 4490 (2018) 50 (2012) 1140 50 50 50 626 2040 2890 4490
2020-10-27 03:45 7.51 249 4490 (2018) 50 (2012) 1140 50 50 50 626 2040 2890 4490
2020-10-27 02:45 7.47 239 4490 (2018) 50 (2012) 1140 50 50 50 626 2040 2890 4490
2020-10-27 01:45 7.39 220 4490 (2018) 50 (2012) 1140 50 50 50 626 2040 2890 4490
2020-10-27 00:45 7.39 220 4490 (2018) 50 (2012) 1140 50 50 50 626 2040 2890 4490
2020-10-26 23:45 7.42 227 10900 (2018) 50 (2012) 1930 50 50 50 639 2350 3540 10900
2020-10-26 22:45 7.50 246 10900 (2018) 50 (2012) 1930 50 50 50 639 2350 3540 10900
2020-10-26 21:45 7.56 261 10900 (2018) 50 (2012) 1930 50 50 50 639 2350 3540 10900
2020-10-26 20:45 7.58 266 10900 (2018) 50 (2012) 1930 50 50 50 639 2350 3540 10900
2020-10-26 19:45 7.61 274 10900 (2018) 50 (2012) 1930 50 50 50 639 2350 3540 10900
2020-10-26 18:45 7.62 277 10900 (2018) 50 (2012) 1930 50 50 50 639 2350 3540 10900
2020-10-26 17:45 7.61 274 10900 (2018) 50 (2012) 1930 50 50 50 639 2350 3540 10900
2020-10-26 16:45 7.59 269 10900 (2018) 50 (2012) 1930 50 50 50 639 2350 3540 10900
2020-10-26 15:45 7.56 261 10900 (2018) 50 (2012) 1930 50 50 50 639 2350 3540 10900
2020-10-26 14:45 7.56 261 10900 (2018) 50 (2012) 1930 50 50 50 639 2350 3540 10900
2020-10-26 13:45 7.57 264 10900 (2018) 50 (2012) 1930 50 50 50 639 2350 3540 10900
2020-10-26 12:45 7.55 259 10900 (2018) 50 (2012) 1930 50 50 50 639 2350 3540 10900
2020-10-26 11:45 7.53 254 10900 (2018) 50 (2012) 1930 50 50 50 639 2350 3540 10900
2020-10-26 10:45 7.54 256 10900 (2018) 50 (2012) 1930 50 50 50 639 2350 3540 10900
2020-10-26 09:45 7.55 259 10900 (2018) 50 (2012) 1930 50 50 50 639 2350 3540 10900
2020-10-26 08:45 7.56 261 10900 (2018) 50 (2012) 1930 50 50 50 639 2350 3540 10900
2020-10-26 07:45 7.54 256 10900 (2018) 50 (2012) 1930 50 50 50 639 2350 3540 10900
2020-10-26 06:45 7.52 251 10900 (2018) 50 (2012) 1930 50 50 50 639 2350 3540 10900
2020-10-26 05:45 7.53 254 10900 (2018) 50 (2012) 1930 50 50 50 639 2350 3540 10900
2020-10-26 04:45 7.50 246 10900 (2018) 50 (2012) 1930 50 50 50 639 2350 3540 10900
2020-10-26 03:45 7.50 246 10900 (2018) 50 (2012) 1930 50 50 50 639 2350 3540 10900
2020-10-26 02:45 7.50 246 10900 (2018) 50 (2012) 1930 50 50 50 639 2350 3540 10900
2020-10-26 01:45 7.48 241 10900 (2018) 50 (2012) 1930 50 50 50 639 2350 3540 10900
2020-10-26 00:45 7.48 241 10900 (2018) 50 (2012) 1930 50 50 50 639 2350 3540 10900
2020-10-25 23:45 7.52 251 17100 (2018) 50 (2012) 2680 50 50 50 497 2890 4300 17100
2020-10-25 22:45 7.53 254 17100 (2018) 50 (2012) 2680 50 50 50 497 2890 4300 17100
2020-10-25 21:45 7.52 251 17100 (2018) 50 (2012) 2680 50 50 50 497 2890 4300 17100
2020-10-25 20:45 7.51 249 17100 (2018) 50 (2012) 2680 50 50 50 497 2890 4300 17100
2020-10-25 19:45 7.50 246 17100 (2018) 50 (2012) 2680 50 50 50 497 2890 4300 17100
2020-10-25 18:45 7.54 256 17100 (2018) 50 (2012) 2680 50 50 50 497 2890 4300 17100
2020-10-25 17:45 7.51 249 17100 (2018) 50 (2012) 2680 50 50 50 497 2890 4300 17100
2020-10-25 16:45 7.47 239 17100 (2018) 50 (2012) 2680 50 50 50 497 2890 4300 17100
2020-10-25 15:45 7.47 239 17100 (2018) 50 (2012) 2680 50 50 50 497 2890 4300 17100
2020-10-25 14:45 7.45 234 17100 (2018) 50 (2012) 2680 50 50 50 497 2890 4300 17100
2020-10-25 13:45 7.45 234 17100 (2018) 50 (2012) 2680 50 50 50 497 2890 4300 17100
2020-10-25 12:45 7.46 236 17100 (2018) 50 (2012) 2680 50 50 50 497 2890 4300 17100
2020-10-25 11:45 7.48 241 17100 (2018) 50 (2012) 2680 50 50 50 497 2890 4300 17100
2020-10-25 10:45 7.49 244 17100 (2018) 50 (2012) 2680 50 50 50 497 2890 4300 17100
2020-10-25 09:45 7.50 246 17100 (2018) 50 (2012) 2680 50 50 50 497 2890 4300 17100
2020-10-25 08:45 7.48 241 17100 (2018) 50 (2012) 2680 50 50 50 497 2890 4300 17100
2020-10-25 07:45 7.50 246 17100 (2018) 50 (2012) 2680 50 50 50 497 2890 4300 17100
2020-10-25 06:45 7.52 251 17100 (2018) 50 (2012) 2680 50 50 50 497 2890 4300 17100
2020-10-25 05:45 7.52 251 17100 (2018) 50 (2012) 2680 50 50 50 497 2890 4300 17100
2020-10-25 04:45 7.51 249 17100 (2018) 50 (2012) 2680 50 50 50 497 2890 4300 17100
2020-10-25 03:45 7.54 256 17100 (2018) 50 (2012) 2680 50 50 50 497 2890 4300 17100
2020-10-25 02:45 7.54 256 17100 (2018) 50 (2012) 2680 50 50 50 497 2890 4300 17100
2020-10-25 01:45 7.51 249 17100 (2018) 50 (2012) 2680 50 50 50 497 2890 4300 17100
2020-10-25 00:45 7.50 246 17100 (2018) 50 (2012) 2680 50 50 50 497 2890 4300 17100
2020-10-24 23:45 7.49 244 17200 (2018) 50 (2012) 2900 50 50 50 713 3600 4940 17200
2020-10-24 22:45 7.48 241 17200 (2018) 50 (2012) 2900 50 50 50 713 3600 4940 17200
2020-10-24 21:45 7.49 244 17200 (2018) 50 (2012) 2900 50 50 50 713 3600 4940 17200
2020-10-24 20:45 7.48 241 17200 (2018) 50 (2012) 2900 50 50 50 713 3600 4940 17200
2020-10-24 19:45 7.46 236 17200 (2018) 50 (2012) 2900 50 50 50 713 3600 4940 17200
2020-10-24 18:45 7.48 241 17200 (2018) 50 (2012) 2900 50 50 50 713 3600 4940 17200
2020-10-24 17:45 7.43 229 17200 (2018) 50 (2012) 2900 50 50 50 713 3600 4940 17200
2020-10-24 16:45 7.47 239 17200 (2018) 50 (2012) 2900 50 50 50 713 3600 4940 17200
2020-10-24 15:45 7.47 239 17200 (2018) 50 (2012) 2900 50 50 50 713 3600 4940 17200
2020-10-24 14:45 7.53 254 17200 (2018) 50 (2012) 2900 50 50 50 713 3600 4940 17200
2020-10-24 13:45 7.58 266 17200 (2018) 50 (2012) 2900 50 50 50 713 3600 4940 17200
2020-10-24 12:45 7.56 261 17200 (2018) 50 (2012) 2900 50 50 50 713 3600 4940 17200
2020-10-24 11:45 7.55 259 17200 (2018) 50 (2012) 2900 50 50 50 713 3600 4940 17200
2020-10-24 10:45 7.52 251 17200 (2018) 50 (2012) 2900 50 50 50 713 3600 4940 17200
2020-10-24 09:45 7.51 249 17200 (2018) 50 (2012) 2900 50 50 50 713 3600 4940 17200
2020-10-24 08:45 7.49 244 17200 (2018) 50 (2012) 2900 50 50 50 713 3600 4940 17200
2020-10-24 07:45 7.50 246 17200 (2018) 50 (2012) 2900 50 50 50 713 3600 4940 17200
2020-10-24 06:45 7.52 251 17200 (2018) 50 (2012) 2900 50 50 50 713 3600 4940 17200
2020-10-24 05:45 7.57 264 17200 (2018) 50 (2012) 2900 50 50 50 713 3600 4940 17200
2020-10-24 04:45 7.56 261 17200 (2018) 50 (2012) 2900 50 50 50 713 3600 4940 17200
2020-10-24 03:45 7.53 254 17200 (2018) 50 (2012) 2900 50 50 50 713 3600 4940 17200
2020-10-24 02:45 7.53 254 17200 (2018) 50 (2012) 2900 50 50 50 713 3600 4940 17200
2020-10-24 01:45 7.51 249 17200 (2018) 50 (2012) 2900 50 50 50 713 3600 4940 17200
2020-10-24 00:45 7.53 254 17200 (2018) 50 (2012) 2900 50 50 50 713 3600 4940 17200
2020-10-23 23:45 7.58 266 12000 (2018) 50 (2012) 2550 50 50 50 691 4590 5750 12000
2020-10-23 22:45 7.63 280 12000 (2018) 50 (2012) 2550 50 50 50 691 4590 5750 12000
2020-10-23 21:45 7.64 282 12000 (2018) 50 (2012) 2550 50 50 50 691 4590 5750 12000
2020-10-23 20:45 7.62 277 12000 (2018) 50 (2012) 2550 50 50 50 691 4590 5750 12000
2020-10-23 19:45 7.64 282 12000 (2018) 50 (2012) 2550 50 50 50 691 4590 5750 12000
2020-10-23 18:45 7.65 285 12000 (2018) 50 (2012) 2550 50 50 50 691 4590 5750 12000
2020-10-23 17:45 7.66 288 12000 (2018) 50 (2012) 2550 50 50 50 691 4590 5750 12000
2020-10-23 16:45 7.66 288 12000 (2018) 50 (2012) 2550 50 50 50 691 4590 5750 12000
2020-10-23 15:45 7.71 301 12000 (2018) 50 (2012) 2550 50 50 50 691 4590 5750 12000
2020-10-23 14:45 7.71 301 12000 (2018) 50 (2012) 2550 50 50 50 691 4590 5750 12000
2020-10-23 13:45 7.77 318 12000 (2018) 50 (2012) 2550 50 50 50 691 4590 5750 12000
2020-10-23 12:45 7.77 318 12000 (2018) 50 (2012) 2550 50 50 50 691 4590 5750 12000
2020-10-23 11:45 7.78 321 12000 (2018) 50 (2012) 2550 50 50 50 691 4590 5750 12000
2020-10-23 10:45 7.72 304 12000 (2018) 50 (2012) 2550 50 50 50 691 4590 5750 12000
2020-10-23 09:45 7.61 274 12000 (2018) 50 (2012) 2550 50 50 50 691 4590 5750 12000
2020-10-23 08:45 7.50 246 12000 (2018) 50 (2012) 2550 50 50 50 691 4590 5750 12000
2020-10-23 07:45 7.40 222 12000 (2018) 50 (2012) 2550 50 50 50 691 4590 5750 12000
2020-10-23 06:45 7.40 222 12000 (2018) 50 (2012) 2550 50 50 50 691 4590 5750 12000
2020-10-23 05:45 7.36 214 12000 (2018) 50 (2012) 2550 50 50 50 691 4590 5750 12000
2020-10-23 04:45 7.35 211 12000 (2018) 50 (2012) 2550 50 50 50 691 4590 5750 12000
2020-10-23 03:45 7.43 229 12000 (2018) 50 (2012) 2550 50 50 50 691 4590 5750 12000
2020-10-23 02:45 7.48 241 12000 (2018) 50 (2012) 2550 50 50 50 691 4590 5750 12000
2020-10-23 01:45 7.54 256 12000 (2018) 50 (2012) 2550 50 50 50 691 4590 5750 12000
2020-10-23 00:45 7.58 266 12000 (2018) 50 (2012) 2550 50 50 50 691 4590 5750 12000
2020-10-22 23:45 7.57 264 6990 (2019) 50 (2012) 1530 50 50 50 780 2360 2770 6990
2020-10-22 22:45 7.53 254 6990 (2019) 50 (2012) 1530 50 50 50 780 2360 2770 6990
2020-10-22 21:45 7.49 244 6990 (2019) 50 (2012) 1530 50 50 50 780 2360 2770 6990
2020-10-22 20:45 7.44 232 6990 (2019) 50 (2012) 1530 50 50 50 780 2360 2770 6990
2020-10-22 19:45 7.37 216 6990 (2019) 50 (2012) 1530 50 50 50 780 2360 2770 6990
2020-10-22 18:45 7.30 201 6990 (2019) 50 (2012) 1530 50 50 50 780 2360 2770 6990
2020-10-22 17:45 7.21 184 6990 (2019) 50 (2012) 1530 50 50 50 780 2360 2770 6990
2020-10-22 16:45 7.20 182 6990 (2019) 50 (2012) 1530 50 50 50 780 2360 2770 6990
2020-10-22 15:45 7.19 180 6990 (2019) 50 (2012) 1530 50 50 50 780 2360 2770 6990
2020-10-22 14:45 7.23 188 6990 (2019) 50 (2012) 1530 50 50 50 780 2360 2770 6990
2020-10-22 12:45 7.30 201 6990 (2019) 50 (2012) 1530 50 50 50 780 2360 2770 6990
2020-10-22 11:45 7.35 211 6990 (2019) 50 (2012) 1530 50 50 50 780 2360 2770 6990
2020-10-22 10:45 7.41 225 6990 (2019) 50 (2012) 1530 50 50 50 780 2360 2770 6990
2020-10-22 09:45 7.42 227 6990 (2019) 50 (2012) 1530 50 50 50 780 2360 2770 6990
2020-10-22 08:45 7.45 234 6990 (2019) 50 (2012) 1530 50 50 50 780 2360 2770 6990
2020-10-22 07:45 7.48 241 6990 (2019) 50 (2012) 1530 50 50 50 780 2360 2770 6990
2020-10-22 06:45 7.47 239 6990 (2019) 50 (2012) 1530 50 50 50 780 2360 2770 6990
2020-10-22 05:45 7.48 241 6990 (2019) 50 (2012) 1530 50 50 50 780 2360 2770 6990
2020-10-22 04:45 7.48 241 6990 (2019) 50 (2012) 1530 50 50 50 780 2360 2770 6990
2020-10-22 03:45 7.48 241 6990 (2019) 50 (2012) 1530 50 50 50 780 2360 2770 6990
2020-10-22 02:45 7.46 236 6990 (2019) 50 (2012) 1530 50 50 50 780 2360 2770 6990
2020-10-22 01:45 7.46 236 6990 (2019) 50 (2012) 1530 50 50 50 780 2360 2770 6990
2020-10-22 00:45 7.47 239 6990 (2019) 50 (2012) 1530 50 50 50 780 2360 2770 6990
2020-10-21 23:45 7.47 239 9700 (2019) 50 (2012) 1730 50 50 50 1040 1680 2070 9700
2020-10-21 22:45 7.49 244 9700 (2019) 50 (2012) 1730